[[{"header":{"parameterUnit":"m.s-1","parameterCategory":1,"la1":31.0,"la2":29.5877,"lo1":-88.7671,"lo2":-86.6584,"dx":0.0162,"dy":0.0185,"nx":115,"ny":88,"refTime":"2022-11-22T06:00:00:Z","depth":0,"parameterNumber":2,"parameterNumberName":"U-component_of_WINDS"},"data":[0.0,0.0,0.0,0.0,0.0,0.0,0.0,0.0,0.0,0.0,0.0,0.0,0.0,0.0,0.0,0.0,0.0,0.0,0.0,0.0,0.0,0.0,0.0,0.0,0.0,0.0,0.0,0.0,0.0,0.0,0.0,0.0,0.0,0.0,0.0,0.0,0.0,0.0,0.0,0.0,0.0,0.0,0.0,0.0,0.0,0.0,0.0,0.0,0.0,0.0,0.0,0.0,0.0,0.0,0.0,0.0,0.0,0.0,0.0,0.0,0.0,0.0,0.0,0.0,0.0,0.0,0.0,0.0,0.0,0.0,0.0,0.0,0.0,0.0,0.0,0.0,0.0,0.0,0.0,0.0,0.0,0.0,0.0,0.0,0.0,0.0,0.0,0.0,0.0,0.0,0.0,0.0,0.0,0.0,0.0,0.0,0.0,0.0,0.0,0.0,0.0,0.0,0.0,0.0,0.0,0.0,0.0,0.0,0.0,0.0,0.0,0.0,0.0,0.0,0.0,0.0,0.0,0.0,0.0,0.0,0.0,0.0,0.0,0.0,0.0,0.0,0.0,0.0,0.0,0.0,0.0,0.0,0.0,0.0,0.0,0.0,0.0,0.0,0.0,0.0,0.0,0.0,0.0,0.0,0.0,0.0,0.0,0.0,0.0,0.0,0.0,0.0,0.0,0.0,0.0,0.0,0.0,0.0,0.0,0.0,0.0,0.0,0.0,0.0,0.0,0.0,0.0,0.0,0.0,0.0,0.0,0.0,0.0,0.0,0.0,0.0,0.0,0.0,0.0,0.0,0.0,0.0,0.0,0.0,0.0,0.0,0.0,0.0,0.0,0.0,0.0,0.0,0.0,0.0,0.0,0.0,0.0,0.0,0.0,0.0,0.0,0.0,0.0,0.0,0.0,0.0,0.0,0.0,0.0,0.0,0.0,0.0,0.0,0.0,0.0,0.0,0.0,0.0,0.0,0.0,0.0,0.0,0.0,0.0,0.0,0.0,0.0,0.0,0.0,0.0,0.0,0.0,0.0,0.0,0.0,0.0,0.0,0.0,0.0,0.0,0.0,0.0,0.0,0.0,0.0,0.0,0.0,0.0,0.0,0.0,0.0,0.0,0.0,0.0,0.0,0.0,0.0,0.0,0.0,0.0,0.0,0.0,0.0,0.0,0.0,0.0,0.0,0.0,0.0,0.0,0.0,0.0,0.0,0.0,0.0,0.0,0.0,0.0,0.0,0.0,0.0,0.0,0.0,0.0,0.0,0.0,0.0,0.0,0.0,0.0,0.0,0.0,0.0,0.0,0.0,0.0,0.0,0.0,0.0,0.0,0.0,0.0,0.0,0.0,0.0,0.0,0.0,0.0,0.0,0.0,0.0,0.0,0.0,0.0,0.0,0.0,0.0,0.0,0.0,0.0,0.0,0.0,0.0,0.0,0.0,0.0,0.0,0.0,0.0,0.0,0.0,0.0,0.0,0.0,0.0,0.0,0.0,0.0,0.0,0.0,0.0,0.0,0.0,0.0,0.0,0.0,0.0,0.0,0.0,0.0,0.0,0.0,0.0,0.0,0.0,0.0,0.0,0.0,0.0,0.0,0.0,0.0,0.0,0.0,0.0,0.0,0.0,0.0,0.0,0.0,0.0,0.0,0.0,0.0,0.0,0.0,0.0,0.0,0.0,0.0,0.0,0.0,0.0,0.0,0.0,0.0,0.0,0.0,0.0,0.0,0.0,0.0,0.0,0.0,0.0,0.0,0.0,0.0,0.0,0.0,0.0,0.0,0.0,0.0,0.0,0.0,0.0,0.0,0.0,0.0,0.0,0.0,0.0,0.0,0.0,0.0,0.0,0.0,0.0,0.0,0.0,0.0,0.0,0.0,0.0,0.0,0.0,0.0,0.0,0.0,0.0,0.0,0.0,0.0,0.0,0.0,0.0,0.0,0.0,0.0,0.0,0.0,0.0,0.0,0.0,0.0,0.0,0.0,0.0,0.0,0.0,0.0,0.0,0.0,0.0,0.0,0.0,0.0,0.0,0.0,0.0,0.0,0.0,0.0,0.0,0.0,0.0,0.0,0.0,0.0,0.0,0.0,0.0,0.0,0.0,0.0,0.0,0.0,0.0,0.0,0.0,0.0,0.0,0.0,0.0,0.0,0.0,0.0,0.0,0.0,0.0,0.0,0.0,0.0,0.0,0.0,0.0,0.0,0.0,0.0,0.0,0.0,0.0,0.0,0.0,0.0,0.0,0.0,0.0,0.0,0.0,0.0,0.0,0.0,0.0,0.0,0.0,0.0,0.0,0.0,0.0,0.0,0.0,0.0,0.0,0.0,0.0,0.0,0.0,0.0,0.0,0.0,0.0,0.0,0.0,0.0,0.0,0.0,0.0,0.0,0.0,0.0,0.0,0.0,0.0,0.0,0.0,0.0,0.0,0.0,0.0,0.0,0.0,0.0,0.0,0.0,0.0,0.0,0.0,0.0,0.0,0.0,0.0,0.0,0.0,0.0,0.0,0.0,0.0,0.0,0.0,0.0,0.0,0.0,0.0,0.0,0.0,0.0,0.0,0.0,0.0,0.0,0.0,0.0,0.0,0.0,0.0,0.0,0.0,0.0,0.0,0.0,0.0,0.0,0.0,0.0,0.0,0.0,0.0,0.0,0.0,0.0,0.0,0.0,0.0,0.0,0.0,0.0,0.0,0.0,0.0,0.0,0.0,0.0,0.0,0.0,0.0,0.0,0.0,0.0,0.0,0.0,0.0,0.0,0.0,0.0,0.0,0.0,0.0,0.0,0.0,0.0,0.0,0.0,0.0,0.0,0.0,0.0,0.0,0.0,0.0,0.0,0.0,0.0,0.0,0.0,0.0,0.0,0.0,0.0,0.0,0.0,0.0,0.0,0.0,0.0,0.0,0.0,0.0,0.0,0.0,0.0,0.0,0.0,0.0,0.0,0.0,0.0,0.0,0.0,0.0,0.0,0.0,0.0,0.0,0.0,0.0,0.0,0.0,0.0,0.0,0.0,0.0,0.0,0.0,0.0,0.0,0.0,0.0,0.0,0.0,0.0,0.0,0.0,0.0,0.0,0.0,0.0,0.0,0.0,0.0,0.0,0.0,0.0,0.0,0.0,0.0,0.0,0.0,0.0,0.0,0.0,0.0,0.0,0.0,0.0,0.0,0.0,0.0,0.0,0.0,0.0,0.0,0.0,0.0,0.0,0.0,0.0,0.0,0.0,0.0,0.0,0.0,0.0,0.0,0.0,0.0,0.0,0.0,0.0,0.0,0.0,0.0,0.0,0.0,0.0,0.0,0.0,0.0,0.0,0.0,0.0,0.0,0.0,0.0,0.0,0.0,0.0,0.0,0.0,0.0,0.0,0.0,0.0,0.0,0.0,0.0,0.0,0.0,0.0,0.0,0.0,0.0,0.0,0.0,0.0,0.0,0.0,0.0,0.0,0.0,0.0,0.0,0.0,0.0,0.0,0.0,0.0,0.0,0.0,0.0,0.0,0.0,0.0,0.0,0.0,0.0,0.0,0.0,0.0,0.0,0.0,0.0,0.0,0.0,0.0,0.0,0.0,0.0,0.0,0.0,0.0,0.0,0.0,0.0,0.0,0.0,0.0,0.0,0.0,0.0,0.0,0.0,0.0,0.0,0.0,0.0,0.0,0.0,0.0,0.0,0.0,0.0,0.0,0.0,0.0,0.0,0.0,0.0,0.0,0.0,0.0,0.0,0.0,0.0,0.0,0.0,0.0,0.0,0.0,0.0,0.0,0.0,0.0,0.0,0.0,0.0,0.0,0.0,0.0,0.0,0.0,0.0,0.0,0.0,0.0,0.0,0.0,0.0,0.0,0.0,0.0,0.0,0.0,0.0,0.0,0.0,0.0,0.0,0.0,0.0,0.0,0.0,0.0,0.0,0.0,0.0,0.0,0.0,0.0,0.0,0.0,0.0,0.0,0.0,0.0,0.0,0.0,0.0,0.0,0.0,0.0,0.0,0.0,0.0,0.0,0.0,0.0,0.0,0.0,0.0,0.0,0.0,0.0,0.0,0.0,0.0,0.0,0.0,0.0,0.0,0.0,0.0,0.0,0.0,0.0,0.0,0.0,0.0,0.0,0.0,0.0,0.0,0.0,0.0,0.0,0.0,0.0,0.0,0.0,0.0,0.0,0.0,0.0,0.0,0.0,0.0,0.0,0.0,0.0,0.0,0.0,0.0,0.0,0.0,0.0,0.0,0.0,0.0,0.0,0.0,0.0,2.3811,0.0,0.0,0.0,1.998,0.0,0.0,0.0,0.0,0.0,0.0,0.0,0.0,0.0,0.0,0.0,0.0,0.0,0.0,0.0,0.0,0.0,0.0,0.0,0.0,0.0,0.0,0.0,0.0,0.0,0.0,0.0,0.0,0.0,0.0,0.0,0.0,0.0,0.0,0.0,0.0,0.0,0.0,0.0,0.0,0.0,0.0,0.0,0.0,0.0,0.0,0.0,0.0,0.0,0.0,0.0,0.0,0.0,0.0,0.0,0.0,0.0,0.0,0.0,0.0,0.0,0.0,0.0,0.0,0.0,0.0,0.0,0.0,0.0,0.0,0.0,0.0,0.0,0.0,0.0,0.0,0.0,0.0,0.0,0.0,0.0,0.0,0.0,0.0,0.0,0.0,0.0,0.0,0.0,0.0,0.0,0.0,0.0,0.0,0.0,0.0,0.0,0.0,0.0,0.0,0.0,0.0,0.0,0.0,0.0,0.0,0.0,0.0,0.0,0.0,2.3934,2.2881,2.2541,2.1765,2.0549,0.0,0.0,0.0,0.0,0.0,0.0,0.0,0.0,0.0,0.0,0.0,0.0,0.0,0.0,0.0,0.0,0.0,0.0,0.0,0.0,0.0,0.0,0.0,0.0,0.0,0.0,0.0,0.0,0.0,0.0,0.0,0.0,0.0,0.0,0.0,0.0,0.0,0.0,0.0,0.0,0.0,0.0,0.0,0.0,0.0,0.0,0.0,0.0,0.0,0.0,0.0,0.0,0.0,0.0,0.0,0.0,0.0,0.0,0.0,0.0,0.0,0.0,0.0,0.0,0.0,0.0,0.0,0.0,0.0,0.0,0.0,0.0,0.0,0.0,0.0,0.0,0.0,0.0,0.0,0.0,0.0,0.0,0.0,0.0,0.0,0.0,0.0,0.0,0.0,0.0,0.0,0.0,0.0,0.0,0.0,0.0,0.0,0.0,0.0,0.0,0.0,0.0,0.0,0.0,0.0,0.0,0.0,0.0,0.0,0.0,0.0,0.0,2.282,2.2031,2.0978,0.0,0.0,0.0,0.0,0.0,0.0,0.0,0.0,0.0,0.0,0.0,0.0,0.0,0.0,0.0,0.0,0.0,0.0,0.0,0.0,0.0,0.0,0.0,0.0,0.0,0.0,0.0,0.0,0.0,0.0,0.0,0.0,0.0,0.0,0.0,0.0,0.0,0.0,0.0,0.0,0.0,0.0,0.0,0.0,0.0,0.0,0.0,0.0,0.0,0.0,0.0,0.0,0.0,0.0,0.0,0.0,0.0,0.0,0.0,0.0,0.0,0.0,0.0,0.0,0.0,0.0,0.0,0.0,0.0,0.0,0.0,0.0,0.0,0.0,0.0,0.0,0.0,0.0,0.0,0.0,0.0,0.0,0.0,0.0,0.0,0.0,0.0,0.0,0.0,0.0,0.0,0.0,0.0,0.0,0.0,0.0,0.0,0.0,0.0,0.0,0.0,0.0,0.0,0.0,0.0,0.0,0.0,0.0,0.0,0.0,2.4044,2.3309,2.329,0.0,2.0882,0.0,0.0,0.0,0.0,0.0,0.0,0.0,0.0,0.0,0.0,0.0,0.0,0.0,0.0,0.0,0.0,0.0,0.0,0.0,0.0,0.0,0.0,0.0,0.0,0.0,0.0,0.0,0.0,0.0,0.0,0.0,0.0,0.0,0.0,0.0,0.0,0.0,0.0,0.0,0.0,0.0,0.0,0.0,0.0,0.0,0.0,0.0,0.0,0.0,0.0,0.0,0.0,0.0,0.0,0.0,0.0,0.0,0.0,0.0,0.0,0.0,0.0,0.0,0.0,0.0,0.0,0.0,0.0,0.0,0.0,0.0,0.0,0.0,0.0,0.0,0.0,0.0,0.0,0.0,0.0,0.0,0.0,0.0,0.0,0.0,0.0,0.0,0.0,0.0,0.0,0.0,0.0,0.0,0.0,0.0,0.0,0.0,0.0,0.0,0.0,0.0,0.0,0.0,0.0,0.0,0.0,0.0,0.0,0.0,0.0,2.3788,2.3937,2.3075,2.1993,0.0,0.0,0.0,0.0,0.0,0.0,0.0,0.0,0.0,0.0,0.0,0.0,0.0,0.0,0.0,0.0,0.0,0.0,0.0,0.0,0.0,0.0,0.0,0.0,0.0,0.0,0.0,0.0,0.0,0.0,0.0,0.0,0.0,0.0,0.0,0.0,0.0,0.0,0.0,0.0,0.0,0.0,0.0,0.0,0.0,0.0,0.0,0.0,0.0,0.0,0.0,0.0,0.0,0.0,0.0,0.0,0.0,0.0,0.0,0.0,0.0,0.0,0.0,0.0,0.0,0.0,0.0,0.0,0.0,0.0,0.0,0.0,0.0,0.0,0.0,0.0,0.0,0.0,0.0,0.0,0.0,0.0,0.0,0.0,0.0,0.0,0.0,0.0,0.0,0.0,0.0,0.0,0.0,0.0,0.0,0.0,0.0,0.0,0.0,0.0,0.0,0.0,0.0,0.0,0.0,0.0,0.0,0.0,0.0,0.0,2.3062,2.3544,2.4237,2.2794,2.154,2.0673,0.0,0.0,0.0,0.0,0.0,0.0,0.0,0.0,0.0,0.0,0.0,0.0,0.0,0.0,0.0,0.0,0.0,0.0,0.0,0.0,0.0,0.0,0.0,0.0,0.0,0.0,0.0,0.0,0.0,0.0,0.0,0.0,0.0,0.0,0.0,0.0,0.0,0.0,0.0,0.0,0.0,0.0,0.0,0.0,0.0,0.0,0.0,0.0,0.0,0.0,0.0,0.0,0.0,0.0,0.0,0.0,0.0,0.0,0.0,0.0,0.0,0.0,0.0,0.0,0.0,0.0,0.0,0.0,0.0,0.0,0.0,0.0,0.0,0.0,0.0,0.0,0.0,0.0,0.0,0.0,0.0,0.0,0.0,0.0,0.0,0.0,0.0,0.0,0.0,0.0,0.0,0.0,0.0,0.0,0.0,0.0,0.0,0.0,0.0,0.0,0.0,0.0,0.0,0.0,0.0,0.0,0.0,0.0,2.2065,2.277,2.3525,2.4266,2.2672,2.1434,0.0,0.0,0.0,0.0,0.0,0.0,0.0,0.0,0.0,0.0,0.0,0.0,0.0,0.0,0.0,0.0,0.0,0.0,0.0,0.0,0.0,0.0,0.0,0.0,0.0,0.0,0.0,0.0,0.0,0.0,0.0,0.0,0.0,0.0,0.0,0.0,0.0,0.0,0.0,0.0,0.0,0.0,0.0,0.0,0.0,0.0,0.0,0.0,0.0,0.0,0.0,0.0,0.0,0.0,0.0,0.0,0.0,0.0,0.0,0.0,0.0,0.0,0.0,0.0,0.0,0.0,0.0,0.0,0.0,0.0,0.0,0.0,0.0,0.0,0.0,0.0,0.0,0.0,0.0,0.0,0.0,0.0,0.0,0.0,0.0,0.0,0.0,0.0,0.0,0.0,0.0,0.0,0.0,0.0,0.0,0.0,0.0,0.0,0.0,0.0,0.0,0.0,0.0,0.0,0.0,0.0,0.0,0.0,0.0,2.2096,2.373,2.4792,2.5,2.3455,2.1942,0.0,0.0,0.0,0.0,0.0,0.0,0.0,0.0,0.0,0.0,0.0,0.0,0.0,0.0,0.0,0.0,0.0,0.0,0.0,0.0,0.0,0.0,0.0,0.0,0.0,0.0,0.0,0.0,0.0,0.0,0.0,0.0,0.0,0.0,0.0,0.0,0.0,0.0,0.0,0.0,0.0,0.0,0.0,0.0,0.0,0.0,0.0,0.0,0.0,0.0,0.0,0.0,0.0,0.0,0.0,0.0,0.0,0.0,0.0,0.0,0.0,0.0,0.0,0.0,0.0,0.0,0.0,0.0,0.0,0.0,0.0,0.0,0.0,0.0,0.0,0.0,0.0,0.0,0.0,0.0,0.0,0.0,0.0,0.0,0.0,0.0,0.0,0.0,0.0,0.0,0.0,0.0,0.0,0.0,0.0,0.0,0.0,0.0,0.0,0.0,0.0,0.0,0.0,0.0,0.0,0.0,0.0,0.0,0.0,2.3229,2.5222,2.6252,2.614,2.4586,2.273,0.0,0.0,0.0,0.0,0.0,0.0,0.0,0.0,0.0,0.0,0.0,0.0,0.0,0.0,0.0,0.0,0.0,0.0,0.0,0.0,0.0,0.0,0.0,0.0,0.0,0.0,0.0,0.0,0.0,0.0,0.0,0.0,0.0,0.0,0.0,0.0,0.0,0.0,0.0,0.0,0.0,0.0,0.0,0.0,0.0,0.0,0.0,0.0,0.0,0.0,0.0,0.0,0.0,0.0,0.0,0.0,0.0,0.0,0.0,0.0,0.0,0.0,0.0,0.0,0.0,0.0,0.0,0.0,0.0,0.0,0.0,0.0,0.0,0.0,0.0,0.0,0.0,0.0,0.0,0.0,0.0,0.0,0.0,0.0,0.0,0.0,0.0,0.0,0.0,0.0,0.0,0.0,0.0,0.0,0.0,0.0,0.0,0.0,0.0,0.0,0.0,0.0,0.0,0.0,0.0,0.0,0.0,0.0,2.2862,2.5597,2.7199,2.7998,2.7656,2.618,2.3812,0.0,0.0,0.0,0.0,0.0,0.0,0.0,0.0,0.0,0.0,0.0,0.0,0.0,0.0,0.0,0.0,0.0,0.0,0.0,0.0,0.0,0.0,0.0,0.0,0.0,0.0,0.0,0.0,0.0,0.0,0.0,0.0,0.0,0.0,0.0,0.0,0.0,0.0,0.0,0.0,0.0,0.0,0.0,0.0,0.0,0.0,0.0,0.0,0.0,0.0,0.0,0.0,0.0,0.0,0.0,0.0,0.0,0.0,0.0,0.0,0.0,0.0,0.0,0.0,0.0,0.0,0.0,0.0,0.0,0.0,0.0,0.0,0.0,0.0,0.0,0.0,0.0,0.0,0.0,0.0,0.0,0.0,0.0,0.0,0.0,0.0,0.0,0.0,0.0,0.0,0.0,0.0,0.0,0.0,0.0,0.0,0.0,0.0,0.0,0.0,0.0,0.0,0.0,0.0,0.0,0.0,0.0,0.0,0.0,2.9698,3.1139,3.1819,3.152,2.8916,2.5957,0.0,0.0,0.0,0.0,0.0,0.0,0.0,0.0,0.0,0.0,0.0,0.0,0.0,0.0,0.0,0.0,0.0,0.0,0.0,0.0,0.0,0.0,0.0,0.0,0.0,0.0,0.0,0.0,0.0,0.0,0.0,0.0,0.0,0.0,0.0,0.0,0.0,0.0,0.0,0.0,0.0,0.0,0.0,0.0,0.0,0.0,0.0,0.0,0.0,0.0,0.0,0.0,0.0,0.0,0.0,0.0,0.0,0.0,0.0,0.0,0.0,0.0,0.0,0.0,0.0,0.0,0.0,0.0,0.0,0.0,0.0,0.0,0.0,0.0,0.0,0.0,0.0,0.0,0.0,0.0,0.0,0.0,0.0,0.0,0.0,0.0,0.0,0.0,0.0,0.0,0.0,0.0,0.0,0.0,0.0,0.0,0.0,0.0,0.0,0.0,0.0,0.0,0.0,0.0,0.0,0.0,0.0,0.0,0.0,3.5255,3.5623,3.5675,3.5343,3.2505,2.9008,2.4842,0.0,0.0,0.0,0.0,0.0,0.0,0.0,0.0,0.0,0.0,0.0,0.0,0.0,0.0,0.0,0.0,0.0,0.0,0.0,0.0,0.0,0.0,0.0,0.0,0.0,0.0,0.0,0.0,0.0,0.0,0.0,0.0,0.0,0.0,0.0,0.0,0.0,0.0,0.0,0.0,0.0,0.0,0.0,0.0,0.0,0.0,0.0,0.0,0.0,0.0,0.0,0.0,0.0,0.0,0.0,0.0,0.0,0.0,0.0,0.0,0.0,0.0,0.0,0.0,0.0,0.0,0.0,0.0,0.0,0.0,0.0,0.0,0.0,0.0,0.0,0.0,0.0,0.0,0.0,0.0,0.0,0.0,0.0,0.0,0.0,0.0,0.0,0.0,0.0,0.0,0.0,0.0,0.0,0.0,0.0,0.0,0.0,0.0,0.0,0.0,0.0,0.0,0.0,0.0,0.0,0.0,0.0,0.0,4.1774,4.0619,3.967,3.8941,3.6586,3.2661,0.0,0.0,0.0,0.0,0.0,0.0,0.0,0.0,0.0,0.0,0.0,0.0,0.0,0.0,0.0,0.0,0.0,0.0,0.0,0.0,0.0,0.0,0.0,0.0,0.0,0.0,0.0,0.0,0.0,0.0,0.0,0.0,0.0,0.0,0.0,0.0,0.0,0.0,0.0,0.0,0.0,0.0,0.0,0.0,0.0,0.0,0.0,0.0,0.0,0.0,0.0,0.0,0.0,0.0,0.0,0.0,0.0,0.0,0.0,0.0,0.0,0.0,0.0,0.0,0.0,0.0,0.0,0.0,0.0,0.0,0.0,0.0,0.0,0.0,0.0,0.0,0.0,0.0,0.0,0.0,0.0,0.0,0.0,0.0,0.0,0.0,0.0,0.0,0.0,0.0,0.0,0.0,0.0,0.0,0.0,0.0,0.0,0.0,0.0,0.0,0.0,0.0,0.0,0.0,0.0,0.0,0.0,0.0,0.0,4.4464,4.6186,4.58,4.3276,3.9245,3.4644,0.0,0.0,0.0,0.0,0.0,0.0,0.0,0.0,0.0,0.0,0.0,0.0,0.0,0.0,0.0,0.0,0.0,0.0,0.0,0.0,0.0,0.0,0.0,0.0,0.0,0.0,0.0,0.0,0.0,0.0,0.0,0.0,0.0,0.0,0.0,0.0,0.0,0.0,0.0,0.0,0.0,0.0,0.0,0.0,0.0,0.0,0.0,0.0,0.0,0.0,0.0,0.0,0.0,0.0,0.0,0.0,0.0,0.0,0.0,0.0,0.0,0.0,0.0,0.0,0.0,0.0,0.0,0.0,0.0,0.0,0.0,0.0,0.0,0.0,0.0,0.0,0.0,0.0,0.0,0.0,0.0,0.0,0.0,0.0,0.0,0.0,0.0,0.0,0.0,0.0,0.0,0.0,0.0,0.0,0.0,0.0,0.0,0.0,0.0,0.0,0.0,0.0,0.0,0.0,0.0,0.0,0.0,0.0,4.2747,4.7202,4.9613,4.9764,4.752,4.2492,3.7144,0.0,0.0,0.0,0.0,0.0,0.0,0.0,0.0,0.0,0.0,0.0,0.0,0.0,0.0,0.0,0.0,0.0,0.0,0.0,0.0,0.0,0.0,0.0,0.0,0.0,0.0,0.0,0.0,0.0,0.0,0.0,0.0,0.0,0.0,0.0,0.0,0.0,0.0,0.0,0.0,0.0,0.0,0.0,0.0,0.0,0.0,0.0,0.0,0.0,0.0,0.0,0.0,0.0,0.0,0.0,0.0,0.0,0.0,0.0,0.0,0.0,0.0,0.0,0.0,0.0,0.0,0.0,0.0,0.0,0.0,0.0,0.0,0.0,0.0,0.0,0.0,0.0,0.0,0.0,0.0,0.0,0.0,0.0,0.0,0.0,0.0,0.0,0.0,0.0,0.0,0.0,0.0,0.0,0.0,0.0,0.0,0.0,0.0,0.0,0.0,0.0,0.0,0.0,0.0,0.0,0.0,0.0,0.0,4.474,4.9571,5.1463,5.1931,5.0853,4.5691,3.9744,0.0,0.0,0.0,0.0,0.0,0.0,0.0,0.0,0.0,0.0,0.0,0.0,0.0,0.0,0.0,0.0,0.0,0.0,0.0,0.0,0.0,0.0,0.0,0.0,0.0,0.0,0.0,0.0,0.0,0.0,0.0,0.0,0.0,0.0,0.0,0.0,0.0,0.0,0.0,0.0,0.0,0.0,0.0,0.0,0.0,0.0,0.0,0.0,0.0,0.0,0.0,0.0,0.0,0.0,0.0,0.0,0.0,0.0,0.0,0.0,0.0,0.0,0.0,0.0,0.0,0.0,0.0,0.0,0.0,0.0,0.0,0.0,0.0,0.0,0.0,0.0,0.0,0.0,0.0,0.0,0.0,0.0,0.0,0.0,0.0,0.0,0.0,0.0,0.0,0.0,0.0,0.0,0.0,0.0,0.0,0.0,0.0,0.0,0.0,0.0,0.0,0.0,0.0,0.0,0.0,0.0,0.0,0.0,4.5895,5.0842,5.1989,5.1921,5.0775,4.6189,4.0567,0.0,0.0,0.0,0.0,0.0,0.0,0.0,0.0,0.0,0.0,0.0,0.0,0.0,0.0,0.0,0.0,0.0,0.0,0.0,0.0,0.0,0.0,0.0,0.0,0.0,0.0,0.0,0.0,0.0,0.0,0.0,0.0,0.0,0.0,0.0,0.0,0.0,0.0,0.0,0.0,0.0,0.0,0.0,0.0,0.0,0.0,0.0,0.0,2.3173,0.0,0.0,0.0,0.0,0.0,0.0,0.0,0.0,0.0,0.0,0.0,0.0,0.0,0.0,0.0,0.0,0.0,0.0,0.0,0.0,0.0,0.0,0.0,0.0,0.0,0.0,0.0,0.0,0.0,0.0,0.0,0.0,0.0,0.0,0.0,0.0,0.0,0.0,0.0,0.0,0.0,0.0,0.0,0.0,0.0,0.0,0.0,0.0,0.0,0.0,0.0,0.0,0.0,0.0,0.0,0.0,0.0,0.0,0.0,4.7535,5.2007,5.2654,5.2421,5.1275,4.6857,4.1209,0.0,0.0,0.0,0.0,0.0,0.0,0.0,0.0,0.0,0.0,0.0,0.0,0.0,0.0,0.0,0.0,0.0,0.0,0.0,0.0,0.0,0.0,0.0,0.0,0.0,0.0,0.0,0.0,0.0,0.0,0.0,0.0,0.0,0.0,0.0,0.0,0.0,0.0,0.0,0.0,0.0,0.0,0.0,0.0,0.0,0.0,0.0,0.0,0.0,0.0,0.0,0.0,0.0,0.0,0.0,0.0,0.0,0.0,0.0,0.0,0.0,0.0,0.0,0.0,0.0,0.0,0.0,0.0,0.0,0.0,0.0,0.0,0.0,0.0,0.0,0.0,0.0,0.0,0.0,0.0,0.0,0.0,0.0,0.0,0.0,0.0,0.0,0.0,0.0,0.0,0.0,0.0,0.0,0.0,0.0,0.0,0.0,0.0,0.0,0.0,0.0,0.0,0.0,0.0,0.0,0.0,0.0,4.4564,4.8973,5.2912,5.3245,5.2854,5.196,4.7301,4.1541,3.4836,0.0,0.0,0.0,0.0,0.0,0.0,0.0,0.0,0.0,0.0,0.0,0.0,0.0,0.0,0.0,0.0,0.0,0.0,0.0,0.0,0.0,0.0,0.0,0.0,0.0,0.0,0.0,0.0,0.0,0.0,0.0,0.0,0.0,0.0,0.0,0.0,0.0,0.0,2.0204,2.2045,0.0,0.0,0.0,0.0,0.0,0.0,0.0,0.0,2.5002,0.0,0.0,0.0,0.0,0.0,0.0,0.0,0.0,0.0,0.0,0.0,0.0,0.0,0.0,0.0,0.0,0.0,0.0,0.0,0.0,0.0,0.0,0.0,0.0,0.0,0.0,0.0,0.0,0.0,0.0,0.0,0.0,0.0,0.0,0.0,0.0,0.0,0.0,0.0,0.0,0.0,0.0,0.0,0.0,0.0,0.0,0.0,0.0,0.0,0.0,0.0,0.0,0.0,0.0,0.0,0.0,4.0552,4.4542,4.8945,5.359,5.3078,5.2363,5.151,4.6714,4.1102,3.4906,0.0,0.0,0.0,0.0,0.0,0.0,0.0,0.0,0.0,0.0,0.0,0.0,0.0,0.0,0.0,0.0,0.0,0.0,0.0,0.0,0.0,0.0,0.0,0.0,0.0,0.0,0.0,0.0,0.0,0.0,0.0,0.0,0.0,0.0,0.0,0.0,0.0,0.0,0.0,2.3496,2.4628,0.0,0.0,0.0,0.0,0.0,0.0,0.0,0.0,2.604,0.0,0.0,0.0,0.0,0.0,0.0,0.0,0.0,0.0,0.0,0.0,0.0,0.0,0.0,0.0,0.0,0.0,0.0,0.0,0.0,0.0,0.0,0.0,0.0,0.0,0.0,0.0,0.0,0.0,0.0,0.0,0.0,0.0,0.0,0.0,0.0,0.0,0.0,0.0,0.0,0.0,0.0,0.0,0.0,0.0,0.0,0.0,0.0,0.0,0.0,0.0,0.0,0.0,0.0,0.0,4.2059,4.6086,4.9983,5.3856,5.3281,5.2313,5.1155,4.6362,4.084,0.0,0.0,0.0,0.0,0.0,0.0,0.0,0.0,0.0,0.0,0.0,0.0,0.0,0.0,0.0,0.0,0.0,0.0,0.0,0.0,0.0,0.0,0.0,0.0,0.0,0.0,0.0,0.0,0.0,0.0,0.0,0.0,0.0,0.0,0.0,0.0,0.0,0.0,0.0,0.0,2.5116,2.6419,2.6503,0.0,0.0,0.0,0.0,0.0,0.0,2.8093,2.7389,0.0,0.0,0.0,0.0,0.0,0.0,0.0,0.0,0.0,0.0,0.0,0.0,0.0,0.0,0.0,0.0,0.0,0.0,0.0,0.0,0.0,0.0,0.0,0.0,0.0,0.0,0.0,0.0,0.0,0.0,0.0,0.0,0.0,0.0,0.0,0.0,0.0,0.0,0.0,0.0,0.0,0.0,0.0,0.0,0.0,0.0,0.0,0.0,0.0,0.0,0.0,0.0,0.0,0.0,0.0,4.3368,4.7388,5.0873,5.3809,5.3276,5.2193,5.0608,4.595,4.0526,0.0,0.0,0.0,0.0,0.0,0.0,0.0,0.0,0.0,0.0,0.0,0.0,0.0,0.0,0.0,0.0,0.0,0.0,0.0,0.0,0.0,0.0,0.0,0.0,0.0,0.0,0.0,0.0,0.0,0.0,0.0,0.0,0.0,0.0,0.0,0.0,0.0,0.0,0.0,0.0,0.0,2.8183,2.8642,2.9811,0.0,0.0,0.0,0.0,2.9974,2.9643,0.0,0.0,0.0,0.0,0.0,0.0,0.0,0.0,0.0,0.0,0.0,0.0,0.0,0.0,0.0,0.0,0.0,0.0,0.0,0.0,0.0,0.0,0.0,0.0,0.0,0.0,0.0,0.0,0.0,0.0,0.0,0.0,0.0,0.0,0.0,0.0,0.0,0.0,0.0,0.0,0.0,0.0,0.0,0.0,0.0,0.0,0.0,0.0,0.0,0.0,0.0,0.0,0.0,0.0,0.0,0.0,4.3123,4.6961,5.0357,5.3187,5.2697,5.1521,4.9817,4.5254,4.0002,0.0,0.0,0.0,0.0,0.0,0.0,0.0,0.0,0.0,0.0,0.0,0.0,0.0,0.0,0.0,0.0,0.0,0.0,0.0,0.0,0.0,0.0,0.0,0.0,0.0,0.0,0.0,0.0,0.0,0.0,0.0,0.0,0.0,0.0,0.0,0.0,0.0,0.0,0.0,0.0,0.0,2.9485,3.1129,3.2008,3.2444,0.0,0.0,0.0,3.2338,3.1306,0.0,0.0,0.0,0.0,0.0,0.0,0.0,0.0,0.0,0.0,0.0,0.0,0.0,0.0,0.0,0.0,0.0,0.0,0.0,0.0,0.0,0.0,0.0,0.0,0.0,0.0,0.0,0.0,0.0,0.0,0.0,0.0,0.0,0.0,0.0,0.0,0.0,0.0,0.0,0.0,0.0,0.0,0.0,0.0,0.0,0.0,0.0,0.0,0.0,0.0,0.0,0.0,0.0,0.0,0.0,3.816,4.366,4.7688,5.0799,5.2965,5.2303,5.1075,4.934,4.4778,3.9808,0.0,0.0,0.0,0.0,0.0,0.0,0.0,0.0,0.0,0.0,0.0,0.0,0.0,0.0,0.0,0.0,0.0,0.0,0.0,0.0,0.0,0.0,0.0,0.0,0.0,0.0,0.0,0.0,0.0,0.0,0.0,0.0,0.0,0.0,0.0,0.0,0.0,0.0,0.0,0.0,0.0,0.0,3.2618,3.3387,0.0,0.0,0.0,3.4238,3.3991,0.0,0.0,0.0,0.0,0.0,0.0,0.0,0.0,0.0,0.0,0.0,0.0,0.0,0.0,0.0,0.0,0.0,0.0,0.0,0.0,0.0,0.0,0.0,0.0,0.0,0.0,0.0,0.0,0.0,0.0,0.0,0.0,0.0,0.0,0.0,0.0,0.0,0.0,0.0,0.0,0.0,0.0,0.0,0.0,0.0,0.0,0.0,0.0,0.0,0.0,0.0,0.0,0.0,0.0,0.0,0.0,0.0,4.4154,4.8126,5.0906,5.2489,5.183,5.0684,4.8986,4.4583,0.0,0.0,0.0,0.0,0.0,0.0,0.0,0.0,0.0,0.0,0.0,0.0,0.0,0.0,0.0,0.0,0.0,0.0,0.0,0.0,0.0,0.0,0.0,0.0,0.0,0.0,0.0,1.3159,0.0,0.0,0.0,0.0,0.0,0.0,0.0,0.0,0.0,0.0,0.0,0.0,0.0,0.0,3.1886,3.4418,3.5088,3.5523,0.0,0.0,3.5992,3.5666,3.5013,3.388,0.0,0.0,0.0,0.0,0.0,0.0,0.0,0.0,0.0,0.0,0.0,0.0,0.0,0.0,0.0,0.0,0.0,0.0,0.0,0.0,0.0,0.0,0.0,0.0,0.0,0.0,0.0,0.0,0.0,0.0,0.0,0.0,0.0,0.0,0.0,0.0,0.0,0.0,0.0,0.0,0.0,0.0,0.0,0.0,0.0,0.0,0.0,0.0,0.0,0.0,0.0,0.0,0.0,0.0,0.0,4.421,4.764,5.0112,5.1601,5.1086,5.019,4.8974,4.487,4.0703,0.0,0.0,0.0,0.0,0.0,0.0,0.0,0.0,0.0,0.0,0.0,0.0,0.0,0.0,0.0,0.0,0.0,0.0,0.0,0.0,0.0,0.0,0.0,0.0,0.0,0.0,0.0,0.0,0.0,0.0,0.0,0.0,0.0,0.0,0.0,0.0,0.0,0.0,0.0,0.0,0.0,3.4146,3.6971,3.7688,3.805,0.0,0.0,3.8377,3.765,3.692,3.5802,3.365,0.0,0.0,0.0,0.0,0.0,0.0,0.0,0.0,0.0,0.0,0.0,0.0,0.0,0.0,0.0,0.0,0.0,0.0,0.0,0.0,0.0,0.0,0.0,0.0,0.0,0.0,0.0,0.0,0.0,0.0,0.0,0.0,0.0,0.0,0.0,0.0,0.0,0.0,0.0,0.0,0.0,0.0,0.0,0.0,0.0,0.0,0.0,0.0,0.0,0.0,0.0,0.0,0.0,3.8947,4.3347,4.7262,4.9747,5.0746,5.0717,5.0037,4.8801,4.5462,4.1809,0.0,0.0,0.0,0.0,0.0,0.0,0.0,0.0,0.0,0.0,0.0,0.0,0.0,0.0,0.0,0.0,0.0,0.0,0.0,0.0,0.0,0.0,0.0,0.0,0.0,0.0,0.0,0.0,2.017,2.0214,1.9916,0.0,0.0,0.0,0.0,0.0,0.0,0.0,0.0,0.0,0.0,3.5302,3.8294,3.8937,0.0,0.0,3.9433,3.909,3.878,3.7833,3.642,3.4286,3.2094,0.0,0.0,0.0,0.0,0.0,0.0,0.0,0.0,0.0,0.0,0.0,0.0,0.0,0.0,0.0,0.0,0.0,0.0,0.0,0.0,0.0,0.0,0.0,0.0,0.0,0.0,0.0,0.0,0.0,0.0,0.0,0.0,0.0,0.0,0.0,0.0,0.0,0.0,0.0,0.0,0.0,0.0,0.0,0.0,0.0,0.0,0.0,0.0,0.0,0.0,0.0,0.0,3.9095,4.3254,4.7006,4.9374,5.0396,5.0457,5.002,4.9058,4.6355,4.3329,0.0,0.0,0.0,0.0,0.0,0.0,0.0,0.0,0.0,0.0,0.0,0.0,0.0,0.0,0.0,0.0,0.0,0.0,0.0,0.0,0.0,0.0,0.0,0.0,0.0,0.0,0.0,0.0,2.1753,2.1154,2.0011,0.0,0.0,0.0,0.0,0.0,0.0,0.0,0.0,0.0,0.0,3.6847,3.9629,4.007,4.0266,4.0707,4.0401,3.9936,3.9512,3.8484,3.7005,3.4879,0.0,0.0,0.0,0.0,0.0,0.0,0.0,0.0,0.0,0.0,0.0,0.0,0.0,0.0,0.0,0.0,0.0,0.0,0.0,0.0,0.0,0.0,0.0,0.0,0.0,0.0,0.0,0.0,0.0,0.0,0.0,0.0,0.0,0.0,0.0,0.0,0.0,0.0,0.0,0.0,0.0,0.0,0.0,0.0,0.0,0.0,0.0,0.0,0.0,0.0,0.0,0.0,0.0,0.0,4.4288,4.6909,4.8992,5.051,5.0356,5.0219,5.0099,4.7646,4.5313,4.3229,0.0,0.0,0.0,0.0,0.0,0.0,0.0,0.0,0.0,0.0,0.0,0.0,0.0,0.0,0.0,0.0,0.0,0.0,0.0,0.0,0.0,0.0,0.0,0.0,0.0,0.0,2.365,2.3745,2.2965,0.0,0.0,0.0,0.0,0.0,0.0,0.0,0.0,0.0,0.0,3.6832,3.895,4.1185,4.1211,4.1142,4.1568,4.1637,4.1136,3.9729,3.8919,3.7762,0.0,0.0,0.0,0.0,0.0,0.0,0.0,0.0,0.0,0.0,0.0,0.0,0.0,0.0,0.0,0.0,0.0,0.0,0.0,0.0,0.0,0.0,0.0,0.0,0.0,0.0,0.0,2.8394,2.8483,0.0,0.0,0.0,0.0,0.0,0.0,0.0,0.0,0.0,0.0,0.0,3.467,3.461,0.0,0.0,0.0,0.0,0.0,0.0,0.0,0.0,0.0,0.0,0.0,0.0,3.9959,4.4403,4.6935,4.8914,5.0296,5.0684,5.0637,5.0196,4.8955,4.6343,4.2182,0.0,0.0,0.0,0.0,0.0,0.0,0.0,0.0,0.0,0.0,0.0,0.0,0.0,0.0,0.0,0.0,0.0,0.0,0.0,0.0,0.0,0.0,0.0,0.0,0.0,2.3045,0.0,0.0,0.0,0.0,0.0,0.0,0.0,0.0,0.0,0.0,0.0,3.3046,3.6396,3.8404,4.0063,4.1495,4.1666,4.1677,0.0,0.0,0.0,0.0,0.0,0.0,0.0,0.0,0.0,0.0,0.0,0.0,0.0,0.0,2.9164,2.7982,2.7692,2.7762,2.8114,0.0,0.0,0.0,0.0,0.0,0.0,0.0,0.0,0.0,0.0,0.0,0.0,0.0,0.0,0.0,0.0,3.027,0.0,0.0,0.0,0.0,0.0,0.0,0.0,0.0,3.5851,3.7354,3.9026,3.8691,3.9113,0.0,3.8297,3.6374,0.0,0.0,0.0,0.0,0.0,0.0,0.0,0.0,4.0837,4.5076,4.7281,4.9051,5.0481,5.0966,5.0996,5.0548,4.9726,4.7241,4.29,3.9817,3.6284,0.0,0.0,0.0,0.0,0.0,0.0,0.0,0.0,0.0,0.0,0.0,0.0,0.0,0.0,0.0,0.0,0.0,0.0,0.0,0.0,0.0,0.0,0.0,2.5019,0.0,0.0,0.0,0.0,0.0,0.0,0.0,0.0,0.0,3.0482,3.2555,3.5073,3.7851,3.9383,4.0598,4.1631,0.0,0.0,0.0,0.0,0.0,0.0,0.0,3.8268,3.7181,3.6414,3.5676,3.4825,3.4293,3.4166,3.4617,0.0,0.0,3.1877,3.1415,3.1585,3.2098,3.241,3.2618,3.2618,3.3168,3.3691,0.0,0.0,0.0,0.0,0.0,0.0,0.0,0.0,3.7255,3.7045,0.0,3.4575,0.0,0.0,0.0,0.0,0.0,0.0,0.0,0.0,3.9677,4.1237,4.3076,4.3039,4.3659,4.4729,4.3175,4.2407,4.2145,3.5524,0.0,0.0,0.0,0.0,0.0,0.0,4.2266,4.6333,4.791,4.9479,5.1109,5.1206,5.1206,5.1146,4.9995,4.8109,4.5484,4.293,4.0056,3.6793,3.2332,0.0,0.0,0.0,0.0,0.0,0.0,0.0,0.0,0.0,0.0,0.0,0.0,0.0,0.0,0.0,0.0,0.0,0.0,0.0,0.0,2.7294,0.0,0.0,0.0,0.0,0.0,0.0,0.0,0.0,0.0,0.0,3.2075,3.4893,3.76,3.9062,0.0,0.0,0.0,0.0,4.1285,4.1622,4.1659,4.1256,4.0231,3.9573,3.8805,3.7732,0.0,0.0,3.6764,3.7286,3.771,3.8095,3.8508,3.8445,3.659,3.5999,3.6207,3.7226,3.7099,3.7085,3.7066,3.6658,3.67,4.263,0.0,0.0,0.0,0.0,4.0275,4.1775,4.3893,4.2505,4.2004,4.2073,3.9583,0.0,0.0,0.0,0.0,0.0,0.0,4.0249,4.2736,4.35,4.4488,4.5595,4.5892,4.6313,4.674,4.5797,4.5455,4.5403,4.2053,3.9358,3.7461,0.0,0.0,0.0,0.0,4.4195,4.7247,4.8645,4.9937,5.1176,5.1206,5.1206,5.1206,5.0398,4.9374,4.8169,4.6052,4.3599,4.0804,3.7182,0.0,0.0,0.0,0.0,0.0,0.0,0.0,0.0,0.0,0.0,0.0,0.0,0.0,0.0,0.0,0.0,0.0,0.0,0.0,2.922,2.9868,2.9528,0.0,0.0,0.0,0.0,0.0,0.0,0.0,0.0,0.0,3.6033,3.7289,3.8785,0.0,0.0,4.1352,4.146,4.1082,4.0885,4.1224,0.0,0.0,0.0,4.0651,4.0372,3.9899,3.9379,3.9009,3.9088,3.9092,3.9246,3.9702,3.9801,3.9798,4.0052,3.9069,3.8436,3.8665,3.8486,3.8161,3.7753,3.7944,3.8087,4.7228,4.4468,4.3038,4.3289,4.4667,4.5052,4.6408,4.8308,4.7165,4.6472,4.6041,4.4081,4.228,4.0679,4.0025,0.0,0.0,0.0,4.4051,4.6341,4.6665,4.7308,4.8175,4.8355,4.864,4.8984,4.8265,4.7921,4.784,4.5977,4.4068,4.2047,0.0,0.0,4.2206,4.3662,4.5687,4.8273,4.9239,5.0205,5.1176,5.1206,5.1206,5.1176,5.0817,5.0331,4.9673,4.8267,4.6381,4.4038,4.1265,3.7746,0.0,0.0,0.0,0.0,0.0,0.0,0.0,0.0,0.0,0.0,0.0,1.7802,0.0,0.0,0.0,0.0,2.7191,3.0179,3.2948,3.2839,0.0,0.0,0.0,0.0,0.0,0.0,0.0,3.5904,3.77,3.8971,3.919,3.9645,4.0087,4.0618,4.1147,4.1486,4.1582,0.0,4.112,4.1451,4.1228,4.1079,4.1312,4.1338,4.1261,4.1028,4.0794,4.0634,4.073,4.0747,4.091,4.1164,4.1293,4.1443,4.1802,4.101,4.0389,4.0431,4.0196,3.979,3.9263,3.908,3.8794,5.0351,5.0237,4.8225,4.7989,4.9017,4.9358,5.0442,5.188,5.1111,5.0359,4.9493,4.8016,4.6447,4.489,4.4462,0.0,0.0,4.6437,4.7563,4.9213,4.9093,4.9609,5.0645,5.0393,5.0614,5.1218,5.0411,4.9863,4.9551,4.7969,4.701,4.6621,4.3923,4.3078,4.4166,4.5221,4.6874,4.9133,4.968,5.0351,5.1176,5.1206,5.1206,5.1206,5.1206,5.0907,5.0285,4.9673,4.8468,4.654,4.4596,4.1784,3.7896,0.0,0.0,0.0,0.0,0.0,0.0,0.0,0.0,0.0,0.0,0.0,0.0,0.0,0.0,0.0,3.0983,0.0,3.6459,3.6106,0.0,0.0,0.0,3.5705,3.5326,3.6993,3.8433,3.8979,0.0,0.0,0.0,0.0,4.1491,4.0954,4.104,4.1384,4.193,4.175,4.1723,4.2079,4.2076,4.2046,4.196,4.1956,4.1924,4.1733,4.1497,4.1559,4.1762,4.2068,4.2409,4.2311,4.2718,4.2717,4.2089,4.1739,4.1939,4.1926,4.1727,4.1348,4.0723,3.982,3.8935,5.2219,5.2052,5.1713,5.155,5.1559,5.1995,5.2904,5.3941,5.3063,5.2467,5.2038,5.097,4.9818,4.858,4.7823,4.7871,4.8544,4.8715,4.9382,5.0454,5.0281,5.0502,5.103,5.1013,5.1201,5.1613,5.1224,5.094,5.068,4.9406,4.828,4.7333,4.5979,4.5436,4.5691,4.6644,4.7684,4.881,4.9816,5.0633,5.1206,5.1206,5.1206,5.1206,5.1206,5.1116,5.0966,5.0338,4.9321,4.7878,4.6411,4.4047,4.0606,3.7793,0.0,0.0,0.0,0.0,0.0,0.0,0.0,0.0,0.0,2.3893,2.6198,0.0,2.9616,0.0,3.4683,3.7284,3.8905,3.8802,0.0,0.0,3.9168,3.9687,3.9553,4.0775,4.1531,4.1278,4.1818,4.1979,4.1363,4.1924,4.2373,4.242,4.2128,4.1902,4.2057,4.1846,4.1891,4.2371,4.2361,4.245,4.312,4.3475,4.3529,4.3522,4.3066,4.2792,4.2803,4.2461,4.2197,4.2138,4.1657,4.1266,4.1068,4.0507,4.0119,4.0128,4.035,4.0222,3.9138,3.873,3.8348,5.3169,5.33,5.3491,5.374,5.4025,5.3887,5.4306,5.5002,5.4377,5.3746,5.3058,5.1918,5.1001,5.0315,4.9734,4.9771,5.0223,5.0078,5.0437,5.1182,5.0984,5.1066,5.1458,5.1458,5.16,5.1832,5.1457,5.1031,5.0471,4.933,4.8319,4.746,4.6705,4.6328,4.6311,4.6945,4.7697,4.8558,4.9863,5.0662,5.1011,5.1129,5.1206,5.1176,5.0907,5.0757,5.0757,5.0129,4.9314,4.8349,4.7578,4.5822,4.2851,4.0726,3.7853,0.0,0.0,0.0,0.0,0.0,0.0,0.0,0.0,0.0,0.0,0.0,3.3911,0.0,3.8779,0.0,4.1863,4.2073,4.207,4.2013,4.2415,4.2657,4.2575,4.2907,4.3203,4.3374,4.328,4.315,4.2968,4.325,4.3532,4.3693,4.3411,4.3201,4.3201,4.3091,4.3106,4.3437,4.3375,4.341,4.3944,4.3862,4.3679,4.3477,4.3063,4.2586,4.219,4.1939,4.1598,4.1037,4.0819,4.0628,4.0172,3.9888,3.9548,3.9314,3.9401,3.9308,3.861,3.8423,3.8156,5.3555,5.3951,5.4135,5.4854,5.5808,5.4993,5.4994,5.5545,5.5201,5.4356,5.3134,5.1975,5.1351,5.1178,5.1063,5.1211,5.1568,5.1129,5.1248,5.1767,5.1516,5.1584,5.1878,5.1806,5.1763,5.1802,5.1238,5.0566,4.9729,4.8682,4.7886,4.7274,4.6662,4.6325,4.633,4.6517,4.727,4.8578,4.9843,5.0589,5.087,5.1071,5.1152,5.1176,5.0548,5.0196,5.0196,4.9613,4.9007,4.8349,4.8319,4.716,4.4685,4.3329,4.1033,0.0,3.4831,0.0,0.0,0.0,0.0,0.0,0.0,0.0,0.0,3.6122,3.8499,4.1155,4.2759,4.4058,4.4929,4.5313,4.5462,4.5382,4.523,4.5041,4.4766,4.4297,4.4296,4.5071,4.4465,4.424,4.4824,4.4763,4.4618,4.4669,4.4644,4.4647,4.4769,4.4618,4.4468,4.456,4.4519,4.4236,4.4042,4.3554,4.306,4.2628,4.2161,4.1581,4.0822,4.0899,4.0774,3.9819,4.0061,4.0258,3.9403,3.9461,3.9377,3.8854,3.8757,3.8742,3.8617,3.8417,3.8212,5.3884,5.3694,5.3712,5.4094,5.4629,5.4445,5.5211,5.6456,5.5288,5.4047,5.2847,5.2891,5.2894,5.2864,5.2997,5.3095,5.3138,5.2852,5.2792,5.2887,5.2621,5.2442,5.2265,5.1787,5.15,5.1297,5.0741,5.0131,4.9519,4.8866,4.8064,4.7195,4.6407,4.5999,4.5977,0.0,0.0,0.0,5.0036,5.0576,5.1257,5.1018,5.0988,5.1176,5.0524,0.0,5.0166,4.9613,4.8977,4.8349,4.8319,0.0,0.0,0.0,0.0,0.0,0.0,0.0,0.0,0.0,0.0,0.0,4.0049,3.9891,3.8249,4.0625,4.316,4.5232,4.5627,4.6147,4.7159,4.7126,4.7019,4.6906,4.7108,4.6932,4.6112,4.6089,4.6016,4.5466,4.509,4.4824,4.4734,4.4618,4.479,4.5246,4.5321,4.5497,4.5869,4.5192,4.4552,4.4319,4.4191,4.3988,4.3663,4.3153,4.2623,4.2309,4.1307,4.0573,4.0328,3.9931,3.9726,3.9281,3.9305,3.9268,3.8993,3.8584,3.8282,3.8057,3.8098,3.8074,3.8022,3.7963,3.7832,5.464,0.0,5.4586,5.4849,0.0,5.5164,5.5691,5.6457,5.5083,5.3991,5.316,5.3206,5.3263,5.327,5.3339,5.3398,5.3398,5.3247,5.3125,5.2979,5.2739,5.2494,5.2231,5.1638,5.1284,5.1182,5.0601,5.0084,4.9634,4.9038,4.8412,4.7809,4.7197,4.6763,4.6516,4.6579,4.7367,4.8948,4.9803,5.0493,5.0944,5.1157,5.1244,5.1206,0.0,0.0,0.0,0.0,0.0,0.0,0.0,0.0,0.0,0.0,0.0,4.4427,4.306,4.2162,4.1833,4.161,4.2038,4.3308,4.475,4.478,4.2943,4.47,4.6329,4.734,4.8081,4.8699,4.9094,4.9221,4.9068,4.8596,4.8196,4.7615,4.6732,4.6305,4.607,4.5754,4.5483,4.5322,4.5422,4.5417,4.5573,4.5849,4.575,4.576,4.5929,4.5555,4.5002,4.4345,4.3721,4.3274,4.2895,4.2063,4.1521,4.1193,4.0432,3.978,3.9592,3.9318,3.9027,3.8705,3.8636,3.8658,3.8467,3.8252,3.818,3.818,3.8213,3.822,3.8219,3.818,3.8144,5.566,5.5862,5.5837,5.6028,5.6273,5.6106,5.607,5.5999,0.0,0.0,0.0,5.3421,5.3354,5.3378,5.3528,5.3558,5.3533,5.3509,5.3337,5.3065,5.2809,5.2497,5.2155,5.1577,5.1211,5.1016,5.0435,4.9966,4.9516,4.905,4.8646,4.8311,4.8032,4.7688,4.7252,4.7615,4.7982,4.8297,4.9625,5.0471,5.0796,5.1528,5.1791,5.1535,5.0787,5.0375,5.0368,4.9673,4.9277,4.9277,4.9277,4.9037,4.8528,4.8468,4.7989,4.6899,4.6322,4.5992,4.6014,4.5603,4.5912,4.7228,4.8432,4.8618,4.7516,4.8221,4.8828,4.9067,5.0258,5.0868,5.0554,5.0687,5.0502,4.9585,4.8626,4.7695,4.6831,4.6197,4.5875,4.5935,4.58,4.5799,4.62,4.622,4.6296,4.6266,4.6104,4.5833,4.5644,4.5404,4.4909,4.4079,4.3145,4.2408,4.1865,4.0943,4.0113,4.0067,3.9492,3.8979,3.8771,3.8711,3.8472,3.8036,3.8236,3.8366,3.8138,3.8317,3.8611,3.8611,3.8611,3.8611,3.8611,3.8611,3.8571,5.6851,5.6877,5.6903,5.6629,5.6196,5.617,5.587,5.532,5.4767,5.4085,5.3307,5.3827,5.4072,5.4102,5.464,5.491,5.491,5.4683,5.4429,0.0,5.3867,5.3358,5.2516,5.1924,5.1213,5.0429,4.9797,4.9212,4.8651,4.8522,4.828,4.8026,4.7908,4.7811,4.7587,4.8094,4.8564,4.8975,4.9913,5.0877,5.184,5.2163,5.2511,5.2851,5.1684,5.1056,5.1026,4.9965,4.9277,4.9277,4.9277,4.9269,4.9157,4.9187,4.909,4.8887,4.8768,4.8738,4.8738,4.9134,4.9949,5.1236,5.1852,5.1709,5.069,5.0481,5.0935,5.1975,5.1842,5.155,5.1042,5.0391,4.9617,4.8545,4.8016,4.7407,4.6518,4.6491,4.6467,4.6295,4.6205,4.6225,4.6346,4.6376,4.6371,4.6366,4.6259,4.6049,4.5024,4.4467,4.3842,4.3098,4.2188,4.1395,4.0682,4.0023,3.9452,3.9151,3.8549,3.8137,3.8137,3.8133,3.8098,3.7939,3.8272,3.8527,3.8457,3.8552,3.8611,3.8611,3.8611,3.8611,3.8611,3.8611,3.8611,5.7094,5.7094,5.7094,5.6944,5.6671,5.6342,5.5833,5.5204,5.5005,5.4705,5.4336,5.461,5.476,5.476,5.5059,5.5133,5.4981,5.5056,5.4733,5.4129,5.3848,5.3164,5.2116,5.1316,5.0601,4.9975,4.9538,4.9226,4.9065,4.9059,4.8964,4.8812,4.8567,4.8447,4.8511,4.8506,4.8937,4.9785,5.0518,5.1276,5.2076,5.2665,5.302,5.3174,5.2576,5.2276,5.2276,5.1732,5.1253,5.087,5.0893,5.0714,5.0361,5.0331,5.0331,5.0331,5.0661,5.0823,5.066,5.0947,5.1369,5.1955,5.2086,5.2,5.1716,5.1483,5.1567,5.203,5.1747,5.1304,5.0727,5.0045,4.928,4.847,4.7799,4.7202,4.6666,4.6514,4.6577,4.6702,4.6722,4.6823,4.7154,4.7179,4.7057,4.6922,4.6312,4.5174,4.3861,4.2895,4.2196,4.1825,4.1142,4.0366,3.9663,3.8952,3.8627,3.8638,3.8239,3.7984,3.818,3.8256,3.8278,3.8281,3.8457,3.8591,3.8611,3.8611,3.8611,3.8611,3.8611,3.8611,3.8611,3.8611,3.8611,5.7543,5.7543,5.7543,5.7453,5.7274,5.6671,5.6102,5.5628,5.5653,5.5628,5.5598,5.5478,5.5504,5.5628,5.5551,5.5372,5.5149,5.5175,5.4742,5.3905,5.3473,5.2692,5.1578,5.0729,5.0161,4.9796,4.9444,4.9386,4.9597,4.959,4.959,4.9565,4.9195,4.9134,4.9418,4.9142,4.9538,5.0563,5.1321,5.1917,5.241,5.3264,5.3688,5.3658,5.3498,5.3414,5.3438,5.3288,5.2935,5.2456,5.2426,5.2187,5.1708,5.1624,5.1648,5.1684,5.2055,5.2221,5.2009,5.1954,5.1973,5.2038,5.1761,5.1678,5.1926,5.1661,5.1529,5.1509,5.1175,5.0704,5.0133,4.9545,4.8957,4.8321,4.7718,4.7202,4.6923,4.6723,4.6798,4.7199,4.7274,4.7456,4.7776,4.7814,4.7527,4.69,4.5732,4.4256,4.2873,4.1745,4.1096,4.056,4.0138,3.9592,3.8897,3.8442,3.8232,3.8477,3.8302,3.8275,3.8474,3.8591,3.8611,3.8591,3.8591,3.8611,3.8611,3.8611,3.8611,3.8611,3.8611,3.865,3.8767,3.8887,3.8806,5.889,5.8919,5.886,5.856,5.7935,5.7304,5.6944,5.6885,5.6915,5.6915,5.6855,5.6342,5.6406,5.6859,5.6627,5.6308,5.596,5.5298,5.4422,5.3529,5.2964,5.217,5.1284,5.0774,5.0422,5.0034,4.9714,4.9579,4.959,4.959,4.959,4.959,4.954,4.9583,4.9782,5.0198,5.0717,5.1248,5.2352,5.3058,5.3416,5.4223,5.4786,5.4999,5.4401,5.4132,5.4102,5.3533,5.3198,5.3109,5.3109,5.3054,5.2989,5.2989,5.3019,5.2965,5.2811,5.2664,5.2431,5.2217,5.2167,5.2446,5.1884,5.1588,5.1618,5.0768,5.063,5.1152,5.0657,4.996,4.959,4.8813,4.8107,4.7681,4.7538,4.7425,4.7227,4.7481,4.7782,4.7801,4.7832,4.7857,4.7946,4.7682,4.7135,4.6364,4.5139,4.3849,4.2587,4.1608,4.0699,3.9739,3.92,3.8975,3.8624,3.8583,3.8485,3.8585,3.8569,3.8552,3.8591,3.8611,3.8611,3.8611,3.8611,3.8611,3.8611,3.8611,3.8611,3.8708,3.8728,3.8767,3.9082,3.9414,3.9394,5.9099,5.9099,5.9099,5.8713,5.8085,5.7786,5.7483,5.7124,5.7094,5.7304,5.7636,5.7239,5.7011,5.6865,5.6388,5.5904,5.5387,5.4908,5.4061,5.2992,5.2493,5.1756,5.0903,5.0486,5.0136,4.984,4.9654,4.959,4.959,4.959,4.959,4.959,4.959,4.9746,4.9996,5.0452,5.1168,5.2054,5.2911,5.3613,5.4208,5.4617,5.493,5.5154,5.491,5.479,5.476,5.4521,5.4192,5.3832,5.3773,5.3593,5.3228,5.3198,5.3125,5.296,5.2595,5.2375,5.2327,5.1581,5.1097,5.1072,5.0517,5.0096,4.9871,4.9567,4.9549,4.9669,4.9229,4.8861,4.8855,4.8229,4.7816,4.7851,4.7856,4.7736,4.7581,4.7751,4.8008,4.8335,4.841,4.8497,4.843,4.7701,4.6756,4.5685,4.4358,4.29,4.1728,4.0719,3.9842,3.91,3.8797,3.8718,3.8573,3.8583,3.8611,3.8611,3.8611,3.8611,3.8611,3.8611,3.8611,3.8611,3.8611,3.8611,3.8611,3.863,3.865,3.8865,3.9238,3.9414,3.959,3.9766,3.9668,5.9099,5.9099,5.9099,5.883,5.8384,5.8384,5.8085,5.7693,5.7633,5.7879,5.822,5.79,5.7335,5.6625,5.6158,5.5636,5.4995,5.4396,5.351,5.2487,5.1967,5.1277,5.0487,5.0104,4.9815,4.9622,4.959,4.959,4.959,4.959,4.959,4.959,4.959,4.9751,5.0142,5.0623,5.1504,5.2588,5.3332,5.4091,5.4717,5.4868,5.5006,5.5179,5.5234,5.5234,5.5234,5.5234,5.497,5.4521,5.4386,5.4127,5.3674,5.3491,5.3193,5.2776,5.2428,5.21,5.1846,5.1013,5.0357,4.9984,4.9464,4.9057,4.8901,4.883,4.8735,4.8558,4.8197,4.8171,4.836,4.7978,4.7875,4.8224,4.8133,4.8134,4.8159,4.8234,4.856,4.8969,4.8892,4.8729,4.8363,4.7259,4.5965,4.4744,4.3249,4.1799,4.0755,3.9806,3.9103,3.8683,3.8611,3.8611,3.8611,3.8611,3.8611,3.8611,3.8611,3.8611,3.8611,3.8611,3.8611,3.8611,3.8611,3.8708,3.8809,3.8809,3.8962,3.9316,3.9726,4.0039,4.0059,4.0137,4.0254,5.9099,5.9099,5.9099,5.9069,5.9069,5.9039,5.9039,5.886,5.8922,5.8847,5.8548,5.8027,5.7273,5.6394,5.6194,5.5936,5.5182,5.3705,5.2727,5.2015,5.1131,5.0487,5.0129,4.9783,4.9622,4.959,4.959,4.959,4.959,4.959,4.959,4.959,4.959,4.9751,5.0168,5.0979,5.1901,5.2637,5.3668,5.4495,5.4805,5.5078,5.5154,5.5179,5.5234,5.5234,5.5179,5.5179,5.5149,5.5149,5.4811,5.4684,5.4629,5.4083,5.3376,5.2726,5.2537,5.1989,5.1052,5.0759,5.0403,4.9831,4.9417,4.9339,4.9118,4.8764,4.8502,4.841,4.823,4.8193,4.8404,4.8187,4.7995,4.8096,4.8466,4.8686,4.8736,4.9145,4.9464,4.945,4.9102,4.833,4.715,4.6069,4.4789,4.348,4.2187,4.1019,4.0074,3.9465,3.903,3.872,3.8611,3.8611,3.8611,3.8611,3.8611,3.8611,3.8611,3.8611,3.8611,3.8611,3.8611,3.865,3.8689,3.8809,3.9062,3.9277,3.9453,3.9785,4.0195,4.0449,4.0488,4.0859,4.0957,5.9099,5.9099,5.9099,5.9099,5.9099,5.9099,5.9099,5.9072,5.8939,5.8664,5.828,5.7585,5.668,5.5731,5.4677,5.4112,5.3724,5.2627,5.1752,5.1126,5.055,5.0104,4.9783,4.9654,4.959,4.959,4.959,4.959,4.959,4.959,4.959,4.959,4.959,4.9654,4.9944,5.0772,5.171,5.2584,5.343,5.4227,5.5035,5.5027,5.5002,5.5179,5.5234,5.5234,5.5234,5.5057,5.4955,5.4955,5.4491,5.4152,5.3919,5.3049,5.25,5.2293,5.1595,5.0927,5.0487,4.9891,4.9381,4.8927,4.8589,4.8517,4.848,4.8547,4.8649,4.8699,4.8907,4.9051,4.9039,4.8781,4.8611,4.8937,4.9163,4.9264,4.9346,4.9464,4.9525,4.9202,4.8396,4.7208,4.6012,4.4721,4.3445,4.2187,4.1019,4.0146,3.9554,3.9067,3.8756,3.8647,3.8611,3.8611,3.8611,3.8611,3.8611,3.8611,3.8611,3.863,3.863,3.8669,3.8669,3.8984,3.8984,3.916,3.9492,3.9902,4.0059,4.0234,4.0644,4.0801,4.0937,4.1113,4.1172,5.9099,5.9099,5.9099,5.9099,5.9099,5.9099,5.9045,5.8936,5.8664,5.8252,5.7668,5.6822,5.576,5.4531,5.3146,5.2346,5.2037,5.1408,5.0873,5.0423,5.0072,4.9815,4.9622,4.959,4.959,4.959,4.959,4.959,4.959,4.959,4.959,4.959,4.959,4.959,4.9751,5.0582,5.156,5.2406,5.333,5.4289,5.5055,5.5142,5.5109,5.5188,5.5133,5.5053,5.5053,5.4798,5.4543,5.4337,5.3707,5.3136,5.2582,5.1847,5.1431,5.147,5.09,5.0314,5.0076,4.9574,4.9175,4.8837,4.8617,4.846,4.8485,4.8812,4.9012,4.917,4.9339,4.959,4.954,4.9296,4.9245,4.954,4.959,4.959,4.959,4.959,4.9267,4.8551,4.7383,4.6079,4.4721,4.341,4.2187,4.1019,4.0038,3.9445,3.9067,3.8793,3.8611,3.8611,3.8611,3.8611,3.8689,3.8747,3.8708,3.8708,3.8747,3.8728,3.8806,3.8806,3.8926,3.9277,3.9531,3.9707,4.0,4.043,4.0625,4.0723,4.0859,4.1035,4.1132,4.1172,4.1211,5.9099,5.9099,5.9099,5.9099,5.9099,5.9072,5.8936,5.8637,5.8307,5.764,5.6794,5.579,5.4529,5.3116,5.2099,5.1094,5.0455,5.0264,5.0168,5.0072,4.9783,4.9622,4.959,4.959,4.959,4.959,4.959,4.959,4.959,4.959,4.959,4.959,4.959,4.959,4.959,5.0518,5.1403,5.2187,5.3396,5.4403,5.4895,5.5315,5.5408,5.5185,5.4973,5.4849,5.4815,5.4469,5.4023,5.353,5.2707,5.1765,5.1114,5.0822,5.0658,5.0509,5.052,5.0312,4.9882,4.9914,4.9767,4.9543,4.949,4.9414,4.9389,4.9464,4.9515,4.9515,4.954,4.959,4.959,4.954,4.954,4.959,4.959,4.959,4.959,4.9558,4.904,4.7738,4.655,4.5085,4.3458,4.2187,4.1055,4.011,3.9445,3.9067,3.8776,3.8647,3.8611,3.863,3.8689,3.8767,3.8845,3.8923,3.8865,3.8826,3.8884,3.8923,3.9141,3.9238,3.9434,3.9746,4.0039,4.0234,4.041,4.0801,4.0937,4.1035,4.1191,4.1211,4.1211,4.1211,4.1211,5.9099,5.9099,5.9099,5.9099,5.9072,5.8939,5.8637,5.828,5.7612,5.6737,5.5761,5.459,5.345,5.2373,5.1346,5.0614,5.0104,4.9879,4.9751,4.9751,4.9622,4.959,4.959,4.959,4.959,4.959,4.959,4.959,4.959,4.959,4.959,4.959,4.959,4.959,4.9622,5.0136,5.0836,5.1736,5.2433,5.336,5.4488,5.4786,5.4981,5.5235,5.5179,5.4995,5.4589,5.3885,5.3386,5.3142,5.21,5.1167,5.0551,5.0059,4.9962,5.0149,4.9832,4.9848,4.9926,4.9842,4.9719,4.9622,4.959,4.959,4.959,4.959,4.959,4.959,4.959,4.959,4.959,4.959,4.959,4.959,4.959,4.959,4.9525,4.9227,4.8387,4.7208,4.5934,4.4378,4.27,4.136,4.0382,3.9518,3.9011,3.872,3.8647,3.865,3.8611,3.8611,3.8787,3.9004,3.9121,3.9336,3.9453,3.9355,3.9316,3.9316,3.9531,3.9707,3.9922,4.0195,4.0488,4.0703,4.0879,4.1016,4.1172,4.1211,4.1211,4.1211,4.1211,4.1211,4.1211,5.9099,5.9099,5.9099,5.9045,5.8909,5.8637,5.8197,5.7612,5.6737,5.5731,5.459,5.348,5.2439,5.1534,5.0741,5.0232,4.9937,4.9687,4.959,4.959,4.959,4.959,4.959,4.959,4.959,4.959,4.959,4.959,4.959,4.959,4.959,4.959,4.959,4.959,4.9622,4.9969,5.055,5.1356,5.2032,5.2889,5.3907,5.4346,5.4626,5.4895,5.4728,5.4397,5.395,5.2965,5.2435,5.2266,5.1234,5.0359,4.9893,4.9538,4.9517,4.9765,4.966,4.9558,4.9854,4.9719,4.959,4.959,4.959,4.959,4.959,4.959,4.959,4.959,4.959,4.959,4.959,4.959,4.959,4.959,4.959,4.959,4.9493,4.9,4.8059,4.6841,4.5471,4.3757,4.1997,4.0755,3.9806,3.9139,3.8756,3.8611,3.865,3.8767,3.8806,3.8906,3.9219,3.9394,3.9492,3.9746,4.0078,4.0,3.9883,3.9922,4.0039,4.0117,4.0254,4.0586,4.0937,4.0957,4.1113,4.1132,4.1211,4.1211,4.1211,4.1211,4.1211,4.1211,4.1211,5.9045,5.9018,5.9018,5.88,5.8527,5.8167,5.7528,5.6709,5.5703,5.456,5.342,5.2465,5.1502,5.0677,5.0333,5.0031,4.973,4.9715,4.9741,4.969,4.964,4.959,4.959,4.959,4.959,4.959,4.959,4.959,4.959,4.959,4.959,4.959,4.959,4.959,4.9654,4.9937,5.0327,5.1,5.1913,5.2665,5.3312,5.3874,5.4201,5.4205,5.3782,5.3382,5.298,5.1968,5.1387,5.1358,5.0304,4.961,4.9316,4.9229,4.9387,4.965,4.9597,4.9572,4.959,4.9622,4.959,4.959,4.959,4.959,4.959,4.959,4.959,4.959,4.959,4.959,4.959,4.959,4.959,4.959,4.959,4.959,4.9525,4.9,4.7993,4.6583,4.5074,4.3388,4.136,4.0289,3.9498,3.8865,3.8611,3.863,3.8787,3.8926,3.9141,3.9394,3.9648,3.9824,3.9941,4.0254,4.0547,4.0527,4.043,4.0449,4.0488,4.0527,4.0586,4.0976,4.1152,4.1191,4.1211,4.1211,4.1211,4.1211,4.1211,4.1211,4.1211,4.1211,4.1211,5.8527,5.8142,5.8142,5.7975,5.7612,5.7106,5.648,5.5674,5.4529,5.3558,5.2461,5.144,5.0824,5.0251,5.0334,5.0258,5.0193,5.0218,5.0218,5.0142,4.9766,4.9615,4.959,4.959,4.959,4.959,4.959,4.959,4.959,4.959,4.959,4.959,4.959,4.959,4.9622,4.9687,4.9944,5.0359,5.0836,5.1481,5.2099,5.2509,5.282,5.3013,5.2929,5.2661,5.2322,5.1342,5.0545,5.0239,5.0098,4.9787,4.9506,4.9467,4.951,4.9572,4.959,4.959,4.959,4.959,4.959,4.959,4.959,4.959,4.959,4.959,4.959,4.959,4.959,4.959,4.959,4.959,4.959,4.959,4.9558,4.9558,4.9461,4.9,4.805,4.656,4.5074,4.3214,4.141,4.0223,3.9429,3.8832,3.8708,3.875,3.9023,3.9199,3.9453,3.9766,4.0039,4.0196,4.0411,4.0762,4.0957,4.1035,4.0976,4.0957,4.0976,4.0937,4.0996,4.1191,4.1191,4.1211,4.1211,4.1211,4.1211,4.1211,4.1211,4.1211,4.1211,4.1211,4.1211,5.7807,5.7389,5.7537,5.7311,5.6881,5.6614,5.5991,5.5034,5.4086,5.3089,5.2169,5.1434,5.0911,5.0637,5.0743,5.0795,5.077,5.0795,5.0645,5.0285,4.9841,4.9615,4.959,4.959,4.959,4.959,4.959,4.959,4.959,4.959,4.959,4.959,4.959,4.959,4.959,4.959,4.9776,5.0072,5.0327,5.0709,5.1372,5.1565,5.1846,5.2063,5.2032,5.1752,5.1251,5.0683,5.0213,4.9939,4.9862,4.9783,4.9622,4.959,4.959,4.959,4.959,4.959,4.959,4.959,4.959,4.959,4.959,4.959,4.959,4.959,4.959,4.959,4.959,4.959,4.959,4.959,4.959,4.9558,4.9461,4.9396,4.9396,4.8747,4.7639,4.618,4.4629,4.2992,4.0954,4.0128,3.9539,3.909,3.9138,3.9258,3.9473,3.9609,3.9805,4.0137,4.0449,4.0664,4.0742,4.0976,4.1074,4.1172,4.1172,4.1211,4.1211,4.1211,4.1211,4.1211,4.1211,4.1211,4.1211,4.1211,4.1211,4.1211,4.1211,4.1211,4.1211,4.1211,4.1211,5.7109,5.6709,5.6962,5.6689,5.6147,5.6257,5.5538,5.4556,5.38,5.3049,5.2235,5.1859,5.1428,5.1306,5.128,5.1373,5.1348,5.1373,5.0921,5.0469,4.9967,4.9715,4.959,4.959,4.959,4.959,4.959,4.959,4.959,4.959,4.959,4.959,4.959,4.959,4.959,4.959,4.9751,4.9969,5.0033,5.0295,5.0741,5.0842,5.1025,5.1157,5.1031,5.0709,5.0295,5.004,5.0014,5.004,4.9751,4.9622,4.959,4.959,4.959,4.959,4.959,4.959,4.959,4.959,4.959,4.959,4.959,4.959,4.959,4.959,4.959,4.959,4.959,4.959,4.959,4.959,4.959,4.9558,4.9332,4.9105,4.8845,4.8322,4.7208,4.5481,4.3942,4.2314,4.0956,4.0044,3.9662,3.9408,3.9492,3.9668,3.9883,4.0059,4.0273,4.0547,4.084,4.1132,4.1152,4.1191,4.1191,4.1191,4.1191,4.1211,4.1211,4.1211,4.1211,4.1211,4.1211,4.1211,4.1211,4.1211,4.1211,4.1211,4.1211,4.1211,4.1211,4.1211,4.1211,5.7201,5.5933,5.5706,5.5267,5.4643,5.443,5.4065,5.3541,5.2919,5.2473,5.1936,5.1564,5.1422,5.1381,5.1749,5.1925,5.1925,5.185,5.1398,5.0436,5.031,4.9967,4.969,4.959,4.959,4.959,4.959,4.959,4.959,4.959,4.959,4.959,4.959,4.959,4.959,4.959,4.9622,4.9712,4.9719,4.9783,4.9944,5.0008,5.004,5.0136,5.004,4.9912,4.9751,4.9687,4.9719,4.9687,4.9654,4.959,4.959,4.959,4.959,4.959,4.959,4.959,4.959,4.959,4.959,4.959,4.959,4.959,4.959,4.959,4.959,4.959,4.959,4.959,4.959,4.959,4.9558,4.9493,4.9259,4.8764,4.7993,4.7407,4.6449,4.5017,4.3558,4.216,4.0904,4.0191,3.988,3.978,3.9902,4.0059,4.0273,4.0508,4.0664,4.0879,4.0976,4.1211,4.1211,4.1211,4.1211,4.1211,4.1211,4.1211,4.1211,4.1211,4.1211,4.1211,4.1211,4.1211,4.1211,4.1211,4.1211,4.1211,4.1211,4.1211,4.1211,4.1211,4.1211,5.6381,5.5235,5.4841,5.4399,5.3999,5.4007,5.3777,5.3366,5.3025,5.2657,5.2329,5.2118,5.2051,5.2076,5.2352,5.2468,5.2427,5.2176,5.1649,5.0896,5.0569,5.0117,4.969,4.959,4.959,4.959,4.959,4.959,4.959,4.959,4.959,4.959,4.959,4.959,4.959,4.959,4.959,4.959,4.959,4.959,4.959,4.959,4.959,4.959,4.959,4.959,4.959,4.959,4.959,4.959,4.959,4.959,4.959,4.959,4.959,4.959,4.959,4.959,4.959,4.959,4.959,4.959,4.959,4.959,4.959,4.959,4.959,4.959,4.959,4.959,4.959,4.959,4.9558,4.9349,4.91,4.84,4.7341,4.6648,4.5756,4.4279,4.2834,4.1745,4.0849,4.0296,4.02,4.0176,4.0488,4.0664,4.0703,4.0898,4.0937,4.1093,4.1152,4.1211,4.1211,4.1211,4.1211,4.1211,4.1211,4.1211,4.1211,4.1211,4.1211,4.1211,4.1211,4.1211,4.1211,4.1211,4.1211,4.1211,4.1211,4.1211,4.1211,4.1211,4.1211,5.5447,5.4709,5.421,5.3819,5.3597,5.401,5.3886,5.3427,5.341,5.3087,5.2939,5.2895,5.2719,5.2845,5.282,5.287,5.277,5.2443,5.1925,5.1197,5.082,5.0243,4.9766,4.959,4.959,4.959,4.959,4.959,4.959,4.959,4.959,4.959,4.959,4.959,4.959,4.959,4.959,4.959,4.959,4.959,4.959,4.959,4.959,4.959,4.959,4.959,4.959,4.959,4.959,4.959,4.959,4.959,4.959,4.959,4.959,4.959,4.959,4.959,4.959,4.959,4.959,4.959,4.959,4.959,4.959,4.959,4.959,4.959,4.959,4.959,4.959,4.9493,4.9382,4.9173,4.8884,4.7939,4.6747,4.5943,4.4721,4.3498,4.2301,4.1285,4.0873,4.0458,4.0543,4.0606,4.0957,4.1211,4.1211,4.1211,4.1172,4.1172,4.1191,4.1211,4.1211,4.1211,4.1211,4.1211,4.1211,4.1211,4.1211,4.1211,4.1211,4.1211,4.1211,4.1211,4.1211,4.1211,4.1211,4.1211,4.1211,4.1211,4.1211,4.1211,4.1211,5.5693,5.4493,5.3885,5.336,5.3078,5.3119,5.317,5.3033,5.3033,5.2964,5.2895,5.2895,5.2895,5.2895,5.2895,5.2895,5.2845,5.2669,5.2201,5.1423,5.1071,5.0627,4.9741,4.959,4.959,4.959,4.959,4.959,4.959,4.959,4.959,4.959,4.959,4.959,4.959,4.959,4.959,4.959,4.959,4.959,4.959,4.959,4.959,4.959,4.959,4.959,4.959,4.959,4.959,4.959,4.959,4.959,4.959,4.959,4.959,4.959,4.959,4.959,4.959,4.959,4.959,4.959,4.959,4.959,4.959,4.959,4.959,4.959,4.959,4.959,4.959,4.9332,4.9223,4.9001,4.8344,4.7427,4.6296,4.5128,4.4026,4.2863,4.1838,4.112,4.0899,4.0776,4.076,4.084,4.1035,4.1211,4.1211,4.1211,4.1211,4.1191,4.1211,4.1211,4.1211,4.1211,4.1211,4.1211,4.1211,4.1211,4.1211,4.1211,4.1211,4.1211,4.1211,4.1211,4.1211,4.1211,4.1211,4.1211,4.1211,4.1211,4.1211,4.1211,4.1211,5.5286,5.4443,5.3555,5.3067,5.2929,5.2895,5.2895,5.2895,5.2895,5.2895,5.2895,5.2895,5.2895,5.2895,5.2895,5.2895,5.2895,5.2895,5.2302,5.1473,5.1255,5.0695,4.969,4.9615,4.959,4.959,4.959,4.9615,4.959,4.959,4.959,4.959,4.959,4.959,4.959,4.959,4.9615,4.9615,4.964,4.964,4.9615,4.9615,4.9615,4.9615,4.9615,4.959,4.959,4.959,4.959,4.959,4.959,4.959,4.959,4.959,4.959,4.959,4.959,4.959,4.959,4.959,4.959,4.959,4.959,4.959,4.959,4.959,4.9558,4.9558,4.959,4.9525,4.9332,4.9007,4.8731,4.8372,4.7667,4.6678,4.5536,4.4426,4.3404,4.2471,4.1676,4.1171,4.1145,4.1034,4.1015,4.1074,4.1191,4.1211,4.1211,4.1211,4.1211,4.1211,4.1211,4.1211,4.1211,4.1211,4.1211,4.1211,4.1211,4.1211,4.1211,4.1211,4.1211,4.1211,4.1211,4.1211,4.1211,4.1211,4.1211,4.1211,4.1211,4.1211,4.1211,4.1211,4.1211,5.4611,5.4208,5.3282,5.2895,5.2895,5.2895,5.2895,5.2895,5.2895,5.2895,5.2895,5.2895,5.2895,5.2895,5.2895,5.2895,5.2895,5.2895,5.2277,5.1473,5.128,5.067,4.9891,4.9715,4.9816,4.9891,5.0042,4.9791,4.9615,4.959,4.959,4.959,4.959,4.969,4.9766,4.9841,4.9791,4.9941,4.9941,4.9941,4.9941,4.9941,4.9841,4.9766,4.9766,4.9741,4.9615,4.959,4.959,4.959,4.959,4.959,4.959,4.959,4.959,4.959,4.959,4.959,4.959,4.959,4.959,4.959,4.959,4.959,4.9558,4.9525,4.9461,4.9493,4.9267,4.9105,4.878,4.8461,4.8016,4.7538,4.6818,4.5926,4.4841,4.3802,4.2929,4.2147,4.1453,4.1205,4.117,4.1152,4.1132,4.1094,4.1211,4.1211,4.1211,4.1211,4.1211,4.1211,4.1211,4.1211,4.1211,4.1211,4.1211,4.1211,4.1211,4.1211,4.1211,4.1211,4.1211,4.1211,4.1211,4.1211,4.1211,4.1211,4.1211,4.1211,4.1211,4.1211,4.1211,4.1211,4.1211,5.3929,5.358,5.3101,5.2895,5.2895,5.2895,5.2895,5.2895,5.2895,5.2895,5.2895,5.2895,5.2895,5.2895,5.2895,5.2895,5.2895,5.282,5.2377,5.1498,5.1348,5.082,4.9891,5.011,5.0293,5.0368,5.077,5.0444,4.9992,4.9766,4.969,4.9741,4.9841,4.9841,5.0293,5.0318,5.0594,5.0946,5.1054,5.1021,5.0996,5.0971,5.072,5.0444,5.021,5.0092,4.9741,4.9665,4.959,4.959,4.959,4.959,4.959,4.959,4.959,4.959,4.959,4.959,4.959,4.959,4.959,4.959,4.959,4.959,4.9493,4.9267,4.9137,4.9137,4.8616,4.8173,4.7973,4.7581,4.7149,4.6539,4.5846,4.5098,4.4158,4.3235,4.2388,4.1946,4.1343,4.1228,4.1172,4.1191,4.1211,4.1211,4.1211,4.1211,4.1211,4.1211,4.1211,4.1211,4.1211,4.1211,4.1211,4.1211,4.1211,4.1211,4.1211,4.1211,4.1211,4.1211,4.1211,4.1211,4.1211,4.1211,4.1211,4.1211,4.1211,4.1211,4.1211,4.1211,4.1211,4.1211,4.1211,5.3444,5.3478,5.3067,5.2895,5.2895,5.2895,5.2895,5.2895,5.2895,5.2895,5.2895,5.2895,5.2895,5.2895,5.2895,5.2895,5.2895,5.2895,5.2494,5.1875,5.1649,5.1331,5.0795,5.077,5.0896,5.0971,5.113,5.1105,5.0619,5.0544,5.0544,5.0519,5.0544,5.067,5.0896,5.0896,5.1046,5.1197,5.1306,5.1306,5.1306,5.1306,5.1172,5.0921,5.0619,5.0318,5.0067,4.9715,4.9615,4.959,4.959,4.959,4.959,4.959,4.959,4.959,4.959,4.959,4.959,4.9558,4.9558,4.9558,4.9558,4.9493,4.9332,4.895,4.8526,4.819,4.7705,4.726,4.6836,4.6413,4.5982,4.5434,4.4763,4.4071,4.3335,4.2655,4.1927,4.1599,4.1327,4.125,4.1211,4.1211,4.1211,4.1211,4.1211,4.1211,4.1211,4.1211,4.1211,4.1211,4.1211,4.1211,4.1211,4.1211,4.1211,4.1211,4.1211,4.1211,4.1211,4.1211,4.1211,4.1211,4.1211,4.1211,4.1211,4.1211,4.1211,4.1211,4.1211,4.1211,4.1211,4.1211,4.1211,5.3067,5.3307,5.3033,5.2895,5.2895,5.2895,5.2895,5.2895,5.2895,5.2895,5.2895,5.2895,5.2895,5.2895,5.2895,5.2895,5.2895,5.2895,5.2544,5.2243,5.2051,5.1724,5.1373,5.1322,5.1473,5.1532,5.1774,5.1749,5.1724,5.1649,5.1548,5.1356,5.1096,5.1322,5.1448,5.1498,5.1599,5.1825,5.1825,5.18,5.1774,5.1774,5.1674,5.1423,5.1096,5.0695,5.0393,5.0092,4.9841,4.959,4.959,4.959,4.959,4.959,4.9493,4.9461,4.9429,4.9267,4.9234,4.9234,4.9396,4.9332,4.9202,4.8942,4.878,4.8363,4.778,4.7108,4.6459,4.5931,4.5517,4.5102,4.4719,4.4194,4.3593,4.2922,4.2346,4.1965,4.1657,4.1444,4.125,4.125,4.1211,4.1211,4.1211,4.1211,4.1211,4.1211,4.1211,4.1211,4.1211,4.1211,4.1211,4.1211,4.1211,4.1211,4.1211,4.1211,4.1211,4.1211,4.1211,4.1211,4.1211,4.1211,4.1211,4.1211,4.1211,4.1211,4.1211,4.1211,4.1211,4.1211,4.1211,4.1211,4.1211,5.2895,5.2929,5.2895,5.2895,5.2895,5.2895,5.2895,5.2895,5.2895,5.2895,5.2895,5.2895,5.2895,5.2895,5.2895,5.2895,5.2895,5.2895,5.2594,5.2268,5.2076,5.19,5.1749,5.185,5.2051,5.2126,5.2352,5.2544,5.2694,5.2494,5.2076,5.1448,5.1574,5.1724,5.19,5.2051,5.2251,5.2443,5.2519,5.2569,5.2594,5.2569,5.2452,5.2126,5.1925,5.1523,5.0486,5.0393,5.0142,4.9766,4.9715,4.9615,4.9615,4.9615,4.9518,4.9417,4.9262,4.8985,4.8641,4.8821,4.8951,4.8698,4.8444,4.8196,4.7883,4.7055,4.6439,4.5822,4.5015,4.4426,4.3987,4.3649,4.3473,4.314,4.2768,4.2418,4.1945,4.1578,4.1366,4.125,4.1211,4.1211,4.1211,4.1211,4.1211,4.1211,4.1211,4.1211,4.1211,4.1211,4.1211,4.1211,4.1211,4.1211,4.1211,4.1211,4.1211,4.1211,4.1211,4.1211,4.1211,4.1211,4.1211,4.1211,4.1211,4.1211,4.1211,4.1211,4.1211,4.1211,4.1211,4.1211,4.1211,4.1211,4.1211,5.2895,5.2895,5.2895,5.2895,5.2895,5.2895,5.2895,5.2895,5.2895,5.2895,5.2895,5.2895,5.2895,5.2895,5.2895,5.2895,5.2895,5.2895,5.2719,5.2669,5.2544,5.2443,5.2393,5.2427,5.2628,5.2594,5.282,5.2895,5.2845,5.2895,5.2744,5.2377,5.2201,5.2402,5.2544,5.2519,5.2694,5.2795,5.2895,5.2895,5.2895,5.2895,5.2795,5.2619,5.2201,5.195,5.1473,5.1122,5.067,5.0268,5.0117,4.9941,4.9766,4.9715,4.9614,4.9479,4.9306,4.8701,4.8108,4.8406,4.8758,4.8503,4.8096,4.7556,4.6865,4.6137,4.5039,4.4232,4.3578,4.3114,4.2554,4.2592,4.2614,4.2277,4.2057,4.181,4.1579,4.1327,4.1211,4.1211,4.1211,4.1211,4.1211,4.1211,4.1211,4.1211,4.1211,4.1211,4.1211,4.1211,4.1211,4.1211,4.1211,4.1211,4.1211,4.1211,4.1211,4.1211,4.1211,4.1211,4.1211,4.1211,4.1211,4.1211,4.1211,4.1211,4.1211,4.1211,4.1211,4.1211,4.1211,4.1211,4.1211,4.1211,4.1211,5.2895,5.2895,5.2895,5.2895,5.2895,5.2895,5.2895,5.2895,5.2895,5.2895,5.2895,5.2895,5.2895,5.2895,5.2895,5.2895,5.2895,5.2895,5.2895,5.287,5.2845,5.2895,5.2895,5.287,5.282,5.2895,5.2895,5.2895,5.2895,5.2895,5.282,5.282,5.2895,5.2845,5.2845,5.2895,5.2895,5.2895,5.2895,5.2895,5.2895,5.2895,5.2895,5.2845,5.2519,5.2251,5.2,5.1649,5.1247,5.087,5.0645,5.0469,5.0243,5.0077,4.999,4.9727,4.9331,4.8608,4.7733,4.7526,4.7729,4.733,4.6841,4.6238,4.5681,4.5041,4.3826,4.2878,4.2436,4.2083,4.1525,4.1782,4.1913,4.1712,4.1655,4.1483,4.1405,4.1211,4.1211,4.1211,4.1211,4.1211,4.1211,4.1211,4.1211,4.1211,4.1211,4.1211,4.1211,4.1211,4.1211,4.1211,4.1211,4.1211,4.1211,4.1211,4.1211,4.1211,4.1211,4.1211,4.1211,4.1211,4.1211,4.1211,4.1211,4.1211,4.1211,4.1211,4.1211,4.1211,4.1211,4.1211,4.1211,4.1211,4.1211,5.2895,5.2895,5.2895,5.2895,5.2895,5.2895,5.2895,5.2895,5.2895,5.2895,5.2895,5.2895,5.2895,5.2895,5.2895,5.2895,5.2895,5.2895,5.2895,5.2895,5.2895,5.2895,5.2895,5.2895,5.2895,5.2895,5.2895,5.2895,5.2895,5.2895,5.2895,5.2895,5.2895,5.2895,5.2895,5.2895,5.2895,5.2895,5.2895,5.2895,5.2895,5.2895,5.2895,5.287,5.2795,5.2544,5.2302,5.2176,5.18,5.1373,5.1272,5.1147,5.093,5.093,5.0505,4.9626,4.9207,4.7899,4.5991,4.5791,4.5689,4.5779,4.5445,4.4764,4.4272,4.3555,4.2727,4.1917,4.18,4.1563,4.1294,4.1205,4.1267,4.1327,4.1308,4.1327,4.125,4.1211,4.1211,4.1211,4.1211,4.1211,4.1211,4.1211,4.1211,4.1211,4.1211,4.1211,4.1211,4.1211,4.1211,4.1211,4.1211,4.1211,4.1211,4.1211,4.1211,4.1211,4.1211,4.1211,4.1211,4.1211,4.1211,4.1211,4.1211,4.1211,4.1211,4.1211,4.1211,4.1211,4.1211,4.1211,4.1211,4.1211,4.1211,5.2895,5.2895,5.2895,5.2895,5.2895,5.2895,5.2895,5.2895,5.2895,5.2895,5.2895,5.2895,5.2895,5.2895,5.2895,5.2895,5.2895,5.2895,5.2895,5.2895,5.2895,5.2895,5.2895,5.2895,5.2895,5.2895,5.2895,5.2895,5.2895,5.2895,5.2895,5.2895,5.2895,5.2895,5.2895,5.2895,5.2895,5.2895,5.2895,5.2895,5.2895,5.2895,5.2895,5.2895,5.2895,5.277,5.2594,5.2544,5.2302,5.19,5.1825,5.154,5.1146,5.098,5.0395,4.94,4.8754,4.7232,4.5163,4.4167,4.3922,4.4124,4.4135,4.3562,4.3043,4.272,4.198,4.1373,4.1356,4.11,4.0796,4.1072,4.121,4.123,4.125,4.125,4.1211,4.1211,4.1211,4.1211,4.1211,4.1211,4.1211,4.1211,4.1211,4.1211,4.1211,4.1211,4.1211,4.1211,4.1211,4.1211,4.1211,4.1211,4.1211,4.1211,4.1211,4.1211,4.1211,4.1211,4.1211,4.1211,4.1211,4.1211,4.1211,4.1211,4.1211,4.1211,4.1211,4.1211,4.1211,4.1211,4.1211,4.1211,4.1211,5.2895,5.2895,5.2895,5.2895,5.2895,5.2895,5.2895,5.2895,5.2895,5.2895,5.2895,5.2895,5.2895,5.2895,5.2895,5.2895,5.2895,5.2895,5.2895,5.2895,5.2895,5.2895,5.2895,5.2895,5.2895,5.2895,5.2895,5.2895,5.2895,5.2895,5.2895,5.2895,5.2895,5.2895,5.2895,5.2895,5.2895,5.2895,5.2895,5.2895,5.2895,5.2895,5.2895,5.2895,5.2895,5.287,5.2895,5.282,5.2719,5.2443,5.2132,5.1827,5.1231,5.067,5.0104,4.9109,4.7164,4.5727,4.4017,4.2693,4.2632,4.292,4.2945,4.2708,4.2218,4.2006,4.1561,4.112,4.1027,4.0933,4.0858,4.1172,4.1172,4.1211,4.1211,4.1211,4.1211,4.1211,4.1211,4.1211,4.1211,4.1211,4.1211,4.1211,4.1211,4.1211,4.1211,4.1211,4.1211,4.1211,4.1211,4.1211,4.1211,4.1211,4.1211,4.1211,4.1211,4.1211,4.1211,4.1211,4.1211,4.1211,4.1211,4.1211,4.1211,4.1211,4.1211,4.1211,4.1211,4.1211,4.1211,4.1211,4.1211,4.1211,4.1211,5.2895,5.2895,5.2895,5.2895,5.2895,5.2895,5.2895,5.2895,5.2895,5.2895,5.2895,5.2895,5.2895,5.2895,5.2895,5.2895,5.2895,5.2895,5.2895,5.2895,5.2895,5.2895,5.2895,5.2895,5.2895,5.2895,5.2895,5.2895,5.2895,5.2895,5.2895,5.2895,5.2895,5.2895,5.2895,5.2895,5.2895,5.2895,5.2895,5.2895,5.2895,5.2895,5.2895,5.2895,5.2895,5.2895,5.2861,5.2836,5.2776,5.2623,5.2416,5.207,5.1583,5.0952,4.9712,4.7863,4.5223,4.3873,4.2984,4.185,4.1521,4.1811,4.1811,4.1753,4.1733,4.1558,4.1305,4.1169,4.1151,4.1171,4.1211,4.1211,4.1211,4.1211,4.1211,4.1211,4.1211,4.1211,4.1211,4.1211,4.1211,4.1211,4.1211,4.1211,4.1211,4.1211,4.1211,4.1211,4.1211,4.1211,4.1211,4.1211,4.1211,4.1211,4.1211,4.1211,4.1211,4.1211,4.1211,4.1211,4.1211,4.1211,4.1211,4.1211,4.1211,4.1211,4.1211,4.1211,4.1211,4.1211,4.1211,4.1211,4.1211,4.1211,4.1211,5.2895,5.2895,5.2895,5.2895,5.2895,5.2895,5.2895,5.2895,5.2895,5.2895,5.2895,5.2895,5.2895,5.2895,5.2895,5.2895,5.2895,5.2895,5.2895,5.2895,5.2895,5.2895,5.2895,5.2895,5.2895,5.2895,5.2895,5.2895,5.2895,5.2895,5.2895,5.2895,5.2895,5.2895,5.2895,5.2895,5.2895,5.2895,5.2895,5.2895,5.2895,5.2895,5.2895,5.2895,5.2861,5.2861,5.2826,5.2619,5.2515,5.2387,5.1866,5.1282,5.0601,4.9771,4.849,4.5937,4.3932,4.2562,4.212,4.156,4.1211,4.1211,4.1327,4.1327,4.1327,4.1288,4.1211,4.1211,4.1211,4.1211,4.1211,4.1211,4.1211,4.1211,4.1211,4.1211,4.1211,4.1211,4.1211,4.1211,4.1211,4.1211,4.1211,4.1211,4.1211,4.1211,4.1211,4.1211,4.1211,4.1211,4.1211,4.1211,4.1211,4.1211,4.1211,4.1211,4.1211,4.1211,4.1211,4.1211,4.1211,4.1211,4.1211,4.1211,4.1211,4.1211,4.1211,4.1211,4.1211,4.1211,4.1211,4.1211,4.1211,4.1211,4.1211,5.2895,5.2895,5.2895,5.2895,5.2895,5.2895,5.2895,5.2895,5.2895,5.2895,5.2895,5.2895,5.2895,5.2895,5.2895,5.2895,5.2895,5.2895,5.2895,5.2895,5.2895,5.2895,5.2895,5.2895,5.2895,5.2895,5.2895,5.2895,5.2895,5.2895,5.2895,5.2895,5.2895,5.2895,5.2895,5.2895,5.2895,5.2895,5.2895,5.2895,5.2895,5.2895,5.2895,5.2861,5.2792,5.2688,5.256,5.2213,5.1866,5.1562,5.086,4.9949,4.8946,4.7836,4.6477,4.4142,4.3001,4.2216,4.185,4.1483,4.125,4.1211,4.1211,4.1211,4.1211,4.1211,4.1211,4.1211,4.1211,4.1211,4.1211,4.1211,4.1211,4.1211,4.1211,4.1211,4.1211,4.1211,4.1211,4.1211,4.1211,4.1211,4.1211,4.1211,4.1211,4.1211,4.1211,4.1211,4.1211,4.1211,4.1211,4.1211,4.1211,4.1211,4.1211,4.1211,4.1211,4.1211,4.1211,4.1211,4.1211,4.1211,4.1211,4.1211,4.1211,4.1211,4.1211,4.1211,4.1211,4.1211,4.1211,4.1211,4.1211,4.1211,4.1211,5.2895,5.2895,5.2895,5.2895,5.2895,5.2895,5.2895,5.2895,5.2895,5.2895,5.2895,5.2895,5.2895,5.2895,5.2895,5.2895,5.2895,5.2895,5.2895,5.2895,5.2895,5.2895,5.2895,5.2895,5.2895,5.2895,5.2895,5.2895,5.2895,5.2895,5.2895,5.2895,5.2895,5.2895,5.2895,5.2895,5.2895,5.2895,5.2895,5.2895,5.2895,5.2895,5.2861,5.2757,5.255,5.2308,5.2005,5.1492,5.086,5.0198,4.9318,4.8308,4.6861,4.5512,4.3974,4.3119,4.2197,4.185,4.1618,4.1366,4.125,4.1211,4.1211,4.1211,4.1211,4.1211,4.1211,4.1211,4.1211,4.1211,4.1211,4.1211,4.1211,4.1211,4.1211,4.1211,4.1211,4.1211,4.1211,4.1211,4.1211,4.1211,4.1211,4.1211,4.1211,4.1211,4.1211,4.1211,4.1211,4.1211,4.1211,4.1211,4.1211,4.1211,4.1211,4.1211,4.1211,4.1211,4.1211,4.1211,4.1211,4.1211,4.1211,4.1211,4.1211,4.1211,4.1211,4.1211,4.1211,4.1211,4.1211,4.1211,4.1211,4.1211,4.1211,5.2895,5.2895,5.2895,5.2895,5.2895,5.2895,5.2895,5.2895,5.2895,5.2895,5.2895,5.2895,5.2895,5.2895,5.2895,5.2895,5.2895,5.2895,5.2895,5.2895,5.2895,5.2895,5.2895,5.2895,5.2895,5.2895,5.2895,5.2895,5.2895,5.2895,5.2895,5.2895,5.2895,5.2895,5.2895,5.2895,5.2895,5.2895,5.2895,5.2861,5.2861,5.2826,5.2792,5.2491,5.2144,5.1527,5.1,5.0021,4.9378,4.8707,4.7434,4.6085,4.4612,4.3459,4.2677,4.212,4.1676,4.1483,4.1366,4.1288,4.1211,4.1211,4.1211,4.1211,4.1211,4.1211,4.1211,4.1211,4.1211,4.1211,4.1211,4.1211,4.1211,4.1211,4.1211,4.1211,4.1211,4.1211,4.1211,4.1211,4.1211,4.1211,4.1211,4.1211,4.1211,4.1211,4.1211,4.1211,4.1211,4.1211,4.1211,4.1211,4.1211,4.1211,4.1211,4.1211,4.1211,4.1211,4.1211,4.1211,4.1211,4.1211,4.1211,4.1211,4.1211,4.1211,4.1211,4.1211,4.1211,4.1211,4.1211,4.1211,4.1211,4.1211,4.1211,5.2895,5.2895,5.2895,5.2895,5.2895,5.2895,5.2895,5.2895,5.2895,5.2895,5.2895,5.2895,5.2895,5.2895,5.2895,5.2895,5.2895,5.2895,5.2895,5.2895,5.2895,5.2895,5.2895,5.2895,5.2895,5.2895,5.2895,5.2895,5.2895,5.2895,5.2895,5.2895,5.2895,5.2861,5.2861,5.2895,5.2861,5.2895,5.2895,5.2792,5.2723,5.2654,5.2352,5.197,5.1317,5.0683,4.9676,4.8634,4.769,4.6773,4.5474,4.4294,4.3154,4.2485,4.2005,4.1618,4.1366,4.1211,4.1211,4.1211,4.1211,4.1211,4.1211,4.1211,4.1211,4.1211,4.1211,4.1211,4.1211,4.1211,4.1211,4.1211,4.1211,4.1211,4.1211,4.1211,4.1211,4.1211,4.1211,4.1211,4.1211,4.1211,4.1211,4.1211,4.1211,4.1211,4.1211,4.1211,4.1211,4.1211,4.1211,4.1211,4.1211,4.1211,4.1211,4.1211,4.1211,4.1211,4.1211,4.1211,4.1211,4.1211,4.1211,4.1211,4.1211,4.1211,4.1211,4.1211,4.1211,4.1211,4.1211,4.1211,4.1211,4.1211,4.123,5.2895,5.2895,5.2895,5.2895,5.2895,5.2895,5.2895,5.2895,5.2895,5.2895,5.2895,5.2895,5.2895,5.2895,5.2895,5.2895,5.2895,5.2895,5.2895,5.2895,5.2895,5.2895,5.2895,5.2895,5.2895,5.2895,5.2895,5.2895,5.2895,5.2895,5.2895,5.2861,5.2826,5.2792,5.2792,5.2826,5.2792,5.2792,5.2757,5.2619,5.2481,5.2248,5.1796,5.113,5.0293,4.9437,4.8368,4.7177,4.5996,4.495,4.3839,4.2869,4.2236,4.1773,4.1638,4.1327,4.125,4.1211,4.1211,4.1211,4.1211,4.1211,4.1211,4.1211,4.1211,4.1211,4.1211,4.1211,4.1211,4.1211,4.1211,4.1211,4.1211,4.1211,4.1211,4.1211,4.1211,4.1211,4.1211,4.1211,4.1211,4.1211,4.1211,4.1211,4.1211,4.1211,4.1211,4.1211,4.1211,4.1211,4.1211,4.1211,4.1211,4.1211,4.1211,4.1211,4.1211,4.1211,4.1211,4.1211,4.1211,4.1211,4.1211,4.1211,4.1211,4.1211,4.1211,4.1211,4.1211,4.1211,4.1211,4.1211,4.1211,4.123,4.1289,5.2895,5.2895,5.2895,5.2895,5.2895,5.2895,5.2895,5.2895,5.2895,5.2895,5.2895,5.2895,5.2895,5.2895,5.2895,5.2895,5.2895,5.2895,5.2895,5.2895,5.2895,5.2895,5.2895,5.2895,5.2895,5.2895,5.2895,5.2895,5.2861,5.2861,5.2757,5.2515,5.2481,5.2342,5.2099,5.2179,5.2421,5.2456,5.255,5.2412,5.1761,5.1457,5.1236,5.0364,4.9234,4.7931,4.6647,4.5346,4.4352,4.3442,4.2659,4.1927,4.1599,4.1405,4.1288,4.1288,4.1211,4.1211,4.1211,4.1211,4.1211,4.1211,4.1211,4.1211,4.1211,4.1211,4.1211,4.1211,4.1211,4.1211,4.1211,4.1211,4.1211,4.1211,4.1211,4.1211,4.1211,4.1211,4.1211,4.1211,4.1211,4.1211,4.1211,4.1211,4.1211,4.1211,4.1211,4.1211,4.1211,4.1211,4.1211,4.1211,4.1211,4.1211,4.1211,4.1211,4.1211,4.1211,4.1211,4.1211,4.1211,4.1211,4.1211,4.1211,4.1211,4.1211,4.1211,4.1211,4.1211,4.1211,4.1211,4.1211,4.123,4.1367,4.1504]},{"header":{"parameterUnit":"m.s-1","parameterCategory":1,"la1":31.0,"la2":29.5877,"lo1":-88.7671,"lo2":-86.6584,"dx":0.0162,"dy":0.0185,"nx":115,"ny":88,"refTime":"2022-11-22T06:00:00:Z","depth":0,"parameterNumber":3,"parameterNumberName":"V-component_of_WINDS"},"data":[0.0,0.0,0.0,0.0,0.0,0.0,0.0,0.0,0.0,0.0,0.0,0.0,0.0,0.0,0.0,0.0,0.0,0.0,0.0,0.0,0.0,0.0,0.0,0.0,0.0,0.0,0.0,0.0,0.0,0.0,0.0,0.0,0.0,0.0,0.0,0.0,0.0,0.0,0.0,0.0,0.0,0.0,0.0,0.0,0.0,0.0,0.0,0.0,0.0,0.0,0.0,0.0,0.0,0.0,0.0,0.0,0.0,0.0,0.0,0.0,0.0,0.0,0.0,0.0,0.0,0.0,0.0,0.0,0.0,0.0,0.0,0.0,0.0,0.0,0.0,0.0,0.0,0.0,0.0,0.0,0.0,0.0,0.0,0.0,0.0,0.0,0.0,0.0,0.0,0.0,0.0,0.0,0.0,0.0,0.0,0.0,0.0,0.0,0.0,0.0,0.0,0.0,0.0,0.0,0.0,0.0,0.0,0.0,0.0,0.0,0.0,0.0,0.0,0.0,0.0,0.0,0.0,0.0,0.0,0.0,0.0,0.0,0.0,0.0,0.0,0.0,0.0,0.0,0.0,0.0,0.0,0.0,0.0,0.0,0.0,0.0,0.0,0.0,0.0,0.0,0.0,0.0,0.0,0.0,0.0,0.0,0.0,0.0,0.0,0.0,0.0,0.0,0.0,0.0,0.0,0.0,0.0,0.0,0.0,0.0,0.0,0.0,0.0,0.0,0.0,0.0,0.0,0.0,0.0,0.0,0.0,0.0,0.0,0.0,0.0,0.0,0.0,0.0,0.0,0.0,0.0,0.0,0.0,0.0,0.0,0.0,0.0,0.0,0.0,0.0,0.0,0.0,0.0,0.0,0.0,0.0,0.0,0.0,0.0,0.0,0.0,0.0,0.0,0.0,0.0,0.0,0.0,0.0,0.0,0.0,0.0,0.0,0.0,0.0,0.0,0.0,0.0,0.0,0.0,0.0,0.0,0.0,0.0,0.0,0.0,0.0,0.0,0.0,0.0,0.0,0.0,0.0,0.0,0.0,0.0,0.0,0.0,0.0,0.0,0.0,0.0,0.0,0.0,0.0,0.0,0.0,0.0,0.0,0.0,0.0,0.0,0.0,0.0,0.0,0.0,0.0,0.0,0.0,0.0,0.0,0.0,0.0,0.0,0.0,0.0,0.0,0.0,0.0,0.0,0.0,0.0,0.0,0.0,0.0,0.0,0.0,0.0,0.0,0.0,0.0,0.0,0.0,0.0,0.0,0.0,0.0,0.0,0.0,0.0,0.0,0.0,0.0,0.0,0.0,0.0,0.0,0.0,0.0,0.0,0.0,0.0,0.0,0.0,0.0,0.0,0.0,0.0,0.0,0.0,0.0,0.0,0.0,0.0,0.0,0.0,0.0,0.0,0.0,0.0,0.0,0.0,0.0,0.0,0.0,0.0,0.0,0.0,0.0,0.0,0.0,0.0,0.0,0.0,0.0,0.0,0.0,0.0,0.0,0.0,0.0,0.0,0.0,0.0,0.0,0.0,0.0,0.0,0.0,0.0,0.0,0.0,0.0,0.0,0.0,0.0,0.0,0.0,0.0,0.0,0.0,0.0,0.0,0.0,0.0,0.0,0.0,0.0,0.0,0.0,0.0,0.0,0.0,0.0,0.0,0.0,0.0,0.0,0.0,0.0,0.0,0.0,0.0,0.0,0.0,0.0,0.0,0.0,0.0,0.0,0.0,0.0,0.0,0.0,0.0,0.0,0.0,0.0,0.0,0.0,0.0,0.0,0.0,0.0,0.0,0.0,0.0,0.0,0.0,0.0,0.0,0.0,0.0,0.0,0.0,0.0,0.0,0.0,0.0,0.0,0.0,0.0,0.0,0.0,0.0,0.0,0.0,0.0,0.0,0.0,0.0,0.0,0.0,0.0,0.0,0.0,0.0,0.0,0.0,0.0,0.0,0.0,0.0,0.0,0.0,0.0,0.0,0.0,0.0,0.0,0.0,0.0,0.0,0.0,0.0,0.0,0.0,0.0,0.0,0.0,0.0,0.0,0.0,0.0,0.0,0.0,0.0,0.0,0.0,0.0,0.0,0.0,0.0,0.0,0.0,0.0,0.0,0.0,0.0,0.0,0.0,0.0,0.0,0.0,0.0,0.0,0.0,0.0,0.0,0.0,0.0,0.0,0.0,0.0,0.0,0.0,0.0,0.0,0.0,0.0,0.0,0.0,0.0,0.0,0.0,0.0,0.0,0.0,0.0,0.0,0.0,0.0,0.0,0.0,0.0,0.0,0.0,0.0,0.0,0.0,0.0,0.0,0.0,0.0,0.0,0.0,0.0,0.0,0.0,0.0,0.0,0.0,0.0,0.0,0.0,0.0,0.0,0.0,0.0,0.0,0.0,0.0,0.0,0.0,0.0,0.0,0.0,0.0,0.0,0.0,0.0,0.0,0.0,0.0,0.0,0.0,0.0,0.0,0.0,0.0,0.0,0.0,0.0,0.0,0.0,0.0,0.0,0.0,0.0,0.0,0.0,0.0,0.0,0.0,0.0,0.0,0.0,0.0,0.0,0.0,0.0,0.0,0.0,0.0,0.0,0.0,0.0,0.0,0.0,0.0,0.0,0.0,0.0,0.0,0.0,0.0,0.0,0.0,0.0,0.0,0.0,0.0,0.0,0.0,0.0,0.0,0.0,0.0,0.0,0.0,0.0,0.0,0.0,0.0,0.0,0.0,0.0,0.0,0.0,0.0,0.0,0.0,0.0,0.0,0.0,0.0,0.0,0.0,0.0,0.0,0.0,0.0,0.0,0.0,0.0,0.0,0.0,0.0,0.0,0.0,0.0,0.0,0.0,0.0,0.0,0.0,0.0,0.0,0.0,0.0,0.0,0.0,0.0,0.0,0.0,0.0,0.0,0.0,0.0,0.0,0.0,0.0,0.0,0.0,0.0,0.0,0.0,0.0,0.0,0.0,0.0,0.0,0.0,0.0,0.0,0.0,0.0,0.0,0.0,0.0,0.0,0.0,0.0,0.0,0.0,0.0,0.0,0.0,0.0,0.0,0.0,0.0,0.0,0.0,0.0,0.0,0.0,0.0,0.0,0.0,0.0,0.0,0.0,0.0,0.0,0.0,0.0,0.0,0.0,0.0,0.0,0.0,0.0,0.0,0.0,0.0,0.0,0.0,0.0,0.0,0.0,0.0,0.0,0.0,0.0,0.0,0.0,0.0,0.0,0.0,0.0,0.0,0.0,0.0,0.0,0.0,0.0,0.0,0.0,0.0,0.0,0.0,0.0,0.0,0.0,0.0,0.0,0.0,0.0,0.0,0.0,0.0,0.0,0.0,0.0,0.0,0.0,0.0,0.0,0.0,0.0,0.0,0.0,0.0,0.0,0.0,0.0,0.0,0.0,0.0,0.0,0.0,0.0,0.0,0.0,0.0,0.0,0.0,0.0,0.0,0.0,0.0,0.0,0.0,0.0,0.0,0.0,0.0,0.0,0.0,0.0,0.0,0.0,0.0,0.0,0.0,0.0,0.0,0.0,0.0,0.0,0.0,0.0,0.0,0.0,0.0,0.0,0.0,0.0,0.0,0.0,0.0,0.0,0.0,0.0,0.0,0.0,0.0,0.0,0.0,0.0,0.0,0.0,0.0,0.0,0.0,0.0,0.0,0.0,0.0,0.0,0.0,0.0,0.0,0.0,0.0,0.0,0.0,0.0,0.0,0.0,0.0,0.0,0.0,0.0,0.0,0.0,0.0,0.0,0.0,0.0,0.0,0.0,0.0,0.0,0.0,0.0,0.0,0.0,0.0,0.0,0.0,0.0,0.0,0.0,0.0,0.0,0.0,0.0,0.0,0.0,0.0,0.0,0.0,0.0,0.0,0.0,0.0,0.0,0.0,0.0,0.0,0.0,0.0,0.0,0.0,0.0,0.0,0.0,0.0,0.0,0.0,0.0,0.0,0.0,0.0,0.0,0.0,0.0,0.0,0.0,0.0,0.0,0.0,0.0,0.0,0.0,0.0,0.0,0.0,0.0,0.0,0.0,0.0,0.0,0.0,0.0,0.0,0.0,0.0,0.0,0.0,0.0,0.0,0.0,0.0,0.0,0.0,0.0,0.0,0.0,0.0,0.0,0.0,0.0,0.0,0.0,0.0,0.0,0.0,0.0,0.0,0.0,0.0,0.0,0.0,0.0,0.0,0.0,0.0,0.0,0.0,0.0,0.0,0.0,0.0,0.0,0.0,0.0,0.0,0.0,0.0,0.0,0.7223,0.0,0.0,0.0,0.4958,0.0,0.0,0.0,0.0,0.0,0.0,0.0,0.0,0.0,0.0,0.0,0.0,0.0,0.0,0.0,0.0,0.0,0.0,0.0,0.0,0.0,0.0,0.0,0.0,0.0,0.0,0.0,0.0,0.0,0.0,0.0,0.0,0.0,0.0,0.0,0.0,0.0,0.0,0.0,0.0,0.0,0.0,0.0,0.0,0.0,0.0,0.0,0.0,0.0,0.0,0.0,0.0,0.0,0.0,0.0,0.0,0.0,0.0,0.0,0.0,0.0,0.0,0.0,0.0,0.0,0.0,0.0,0.0,0.0,0.0,0.0,0.0,0.0,0.0,0.0,0.0,0.0,0.0,0.0,0.0,0.0,0.0,0.0,0.0,0.0,0.0,0.0,0.0,0.0,0.0,0.0,0.0,0.0,0.0,0.0,0.0,0.0,0.0,0.0,0.0,0.0,0.0,0.0,0.0,0.0,0.0,0.0,0.0,0.0,0.0,0.7489,0.6791,0.6278,0.5857,0.5566,0.0,0.0,0.0,0.0,0.0,0.0,0.0,0.0,0.0,0.0,0.0,0.0,0.0,0.0,0.0,0.0,0.0,0.0,0.0,0.0,0.0,0.0,0.0,0.0,0.0,0.0,0.0,0.0,0.0,0.0,0.0,0.0,0.0,0.0,0.0,0.0,0.0,0.0,0.0,0.0,0.0,0.0,0.0,0.0,0.0,0.0,0.0,0.0,0.0,0.0,0.0,0.0,0.0,0.0,0.0,0.0,0.0,0.0,0.0,0.0,0.0,0.0,0.0,0.0,0.0,0.0,0.0,0.0,0.0,0.0,0.0,0.0,0.0,0.0,0.0,0.0,0.0,0.0,0.0,0.0,0.0,0.0,0.0,0.0,0.0,0.0,0.0,0.0,0.0,0.0,0.0,0.0,0.0,0.0,0.0,0.0,0.0,0.0,0.0,0.0,0.0,0.0,0.0,0.0,0.0,0.0,0.0,0.0,0.0,0.0,0.0,0.0,0.6719,0.6356,0.6201,0.0,0.0,0.0,0.0,0.0,0.0,0.0,0.0,0.0,0.0,0.0,0.0,0.0,0.0,0.0,0.0,0.0,0.0,0.0,0.0,0.0,0.0,0.0,0.0,0.0,0.0,0.0,0.0,0.0,0.0,0.0,0.0,0.0,0.0,0.0,0.0,0.0,0.0,0.0,0.0,0.0,0.0,0.0,0.0,0.0,0.0,0.0,0.0,0.0,0.0,0.0,0.0,0.0,0.0,0.0,0.0,0.0,0.0,0.0,0.0,0.0,0.0,0.0,0.0,0.0,0.0,0.0,0.0,0.0,0.0,0.0,0.0,0.0,0.0,0.0,0.0,0.0,0.0,0.0,0.0,0.0,0.0,0.0,0.0,0.0,0.0,0.0,0.0,0.0,0.0,0.0,0.0,0.0,0.0,0.0,0.0,0.0,0.0,0.0,0.0,0.0,0.0,0.0,0.0,0.0,0.0,0.0,0.0,0.0,0.0,0.7914,0.7391,0.719,0.0,0.6772,0.0,0.0,0.0,0.0,0.0,0.0,0.0,0.0,0.0,0.0,0.0,0.0,0.0,0.0,0.0,0.0,0.0,0.0,0.0,0.0,0.0,0.0,0.0,0.0,0.0,0.0,0.0,0.0,0.0,0.0,0.0,0.0,0.0,0.0,0.0,0.0,0.0,0.0,0.0,0.0,0.0,0.0,0.0,0.0,0.0,0.0,0.0,0.0,0.0,0.0,0.0,0.0,0.0,0.0,0.0,0.0,0.0,0.0,0.0,0.0,0.0,0.0,0.0,0.0,0.0,0.0,0.0,0.0,0.0,0.0,0.0,0.0,0.0,0.0,0.0,0.0,0.0,0.0,0.0,0.0,0.0,0.0,0.0,0.0,0.0,0.0,0.0,0.0,0.0,0.0,0.0,0.0,0.0,0.0,0.0,0.0,0.0,0.0,0.0,0.0,0.0,0.0,0.0,0.0,0.0,0.0,0.0,0.0,0.0,0.0,0.7815,0.7864,0.7483,0.7146,0.0,0.0,0.0,0.0,0.0,0.0,0.0,0.0,0.0,0.0,0.0,0.0,0.0,0.0,0.0,0.0,0.0,0.0,0.0,0.0,0.0,0.0,0.0,0.0,0.0,0.0,0.0,0.0,0.0,0.0,0.0,0.0,0.0,0.0,0.0,0.0,0.0,0.0,0.0,0.0,0.0,0.0,0.0,0.0,0.0,0.0,0.0,0.0,0.0,0.0,0.0,0.0,0.0,0.0,0.0,0.0,0.0,0.0,0.0,0.0,0.0,0.0,0.0,0.0,0.0,0.0,0.0,0.0,0.0,0.0,0.0,0.0,0.0,0.0,0.0,0.0,0.0,0.0,0.0,0.0,0.0,0.0,0.0,0.0,0.0,0.0,0.0,0.0,0.0,0.0,0.0,0.0,0.0,0.0,0.0,0.0,0.0,0.0,0.0,0.0,0.0,0.0,0.0,0.0,0.0,0.0,0.0,0.0,0.0,0.0,0.7647,0.7806,0.8198,0.771,0.7272,0.703,0.0,0.0,0.0,0.0,0.0,0.0,0.0,0.0,0.0,0.0,0.0,0.0,0.0,0.0,0.0,0.0,0.0,0.0,0.0,0.0,0.0,0.0,0.0,0.0,0.0,0.0,0.0,0.0,0.0,0.0,0.0,0.0,0.0,0.0,0.0,0.0,0.0,0.0,0.0,0.0,0.0,0.0,0.0,0.0,0.0,0.0,0.0,0.0,0.0,0.0,0.0,0.0,0.0,0.0,0.0,0.0,0.0,0.0,0.0,0.0,0.0,0.0,0.0,0.0,0.0,0.0,0.0,0.0,0.0,0.0,0.0,0.0,0.0,0.0,0.0,0.0,0.0,0.0,0.0,0.0,0.0,0.0,0.0,0.0,0.0,0.0,0.0,0.0,0.0,0.0,0.0,0.0,0.0,0.0,0.0,0.0,0.0,0.0,0.0,0.0,0.0,0.0,0.0,0.0,0.0,0.0,0.0,0.0,0.705,0.7536,0.7986,0.8355,0.7945,0.7577,0.0,0.0,0.0,0.0,0.0,0.0,0.0,0.0,0.0,0.0,0.0,0.0,0.0,0.0,0.0,0.0,0.0,0.0,0.0,0.0,0.0,0.0,0.0,0.0,0.0,0.0,0.0,0.0,0.0,0.0,0.0,0.0,0.0,0.0,0.0,0.0,0.0,0.0,0.0,0.0,0.0,0.0,0.0,0.0,0.0,0.0,0.0,0.0,0.0,0.0,0.0,0.0,0.0,0.0,0.0,0.0,0.0,0.0,0.0,0.0,0.0,0.0,0.0,0.0,0.0,0.0,0.0,0.0,0.0,0.0,0.0,0.0,0.0,0.0,0.0,0.0,0.0,0.0,0.0,0.0,0.0,0.0,0.0,0.0,0.0,0.0,0.0,0.0,0.0,0.0,0.0,0.0,0.0,0.0,0.0,0.0,0.0,0.0,0.0,0.0,0.0,0.0,0.0,0.0,0.0,0.0,0.0,0.0,0.0,0.6821,0.7868,0.8506,0.8623,0.8191,0.7783,0.0,0.0,0.0,0.0,0.0,0.0,0.0,0.0,0.0,0.0,0.0,0.0,0.0,0.0,0.0,0.0,0.0,0.0,0.0,0.0,0.0,0.0,0.0,0.0,0.0,0.0,0.0,0.0,0.0,0.0,0.0,0.0,0.0,0.0,0.0,0.0,0.0,0.0,0.0,0.0,0.0,0.0,0.0,0.0,0.0,0.0,0.0,0.0,0.0,0.0,0.0,0.0,0.0,0.0,0.0,0.0,0.0,0.0,0.0,0.0,0.0,0.0,0.0,0.0,0.0,0.0,0.0,0.0,0.0,0.0,0.0,0.0,0.0,0.0,0.0,0.0,0.0,0.0,0.0,0.0,0.0,0.0,0.0,0.0,0.0,0.0,0.0,0.0,0.0,0.0,0.0,0.0,0.0,0.0,0.0,0.0,0.0,0.0,0.0,0.0,0.0,0.0,0.0,0.0,0.0,0.0,0.0,0.0,0.0,0.7255,0.8455,0.9184,0.9385,0.8858,0.8245,0.0,0.0,0.0,0.0,0.0,0.0,0.0,0.0,0.0,0.0,0.0,0.0,0.0,0.0,0.0,0.0,0.0,0.0,0.0,0.0,0.0,0.0,0.0,0.0,0.0,0.0,0.0,0.0,0.0,0.0,0.0,0.0,0.0,0.0,0.0,0.0,0.0,0.0,0.0,0.0,0.0,0.0,0.0,0.0,0.0,0.0,0.0,0.0,0.0,0.0,0.0,0.0,0.0,0.0,0.0,0.0,0.0,0.0,0.0,0.0,0.0,0.0,0.0,0.0,0.0,0.0,0.0,0.0,0.0,0.0,0.0,0.0,0.0,0.0,0.0,0.0,0.0,0.0,0.0,0.0,0.0,0.0,0.0,0.0,0.0,0.0,0.0,0.0,0.0,0.0,0.0,0.0,0.0,0.0,0.0,0.0,0.0,0.0,0.0,0.0,0.0,0.0,0.0,0.0,0.0,0.0,0.0,0.0,0.6139,0.8441,0.9316,1.0104,1.0685,0.9951,0.9036,0.0,0.0,0.0,0.0,0.0,0.0,0.0,0.0,0.0,0.0,0.0,0.0,0.0,0.0,0.0,0.0,0.0,0.0,0.0,0.0,0.0,0.0,0.0,0.0,0.0,0.0,0.0,0.0,0.0,0.0,0.0,0.0,0.0,0.0,0.0,0.0,0.0,0.0,0.0,0.0,0.0,0.0,0.0,0.0,0.0,0.0,0.0,0.0,0.0,0.0,0.0,0.0,0.0,0.0,0.0,0.0,0.0,0.0,0.0,0.0,0.0,0.0,0.0,0.0,0.0,0.0,0.0,0.0,0.0,0.0,0.0,0.0,0.0,0.0,0.0,0.0,0.0,0.0,0.0,0.0,0.0,0.0,0.0,0.0,0.0,0.0,0.0,0.0,0.0,0.0,0.0,0.0,0.0,0.0,0.0,0.0,0.0,0.0,0.0,0.0,0.0,0.0,0.0,0.0,0.0,0.0,0.0,0.0,0.0,0.9973,1.1065,1.1936,1.2495,1.1536,1.052,0.0,0.0,0.0,0.0,0.0,0.0,0.0,0.0,0.0,0.0,0.0,0.0,0.0,0.0,0.0,0.0,0.0,0.0,0.0,0.0,0.0,0.0,0.0,0.0,0.0,0.0,0.0,0.0,0.0,0.0,0.0,0.0,0.0,0.0,0.0,0.0,0.0,0.0,0.0,0.0,0.0,0.0,0.0,0.0,0.0,0.0,0.0,0.0,0.0,0.0,0.0,0.0,0.0,0.0,0.0,0.0,0.0,0.0,0.0,0.0,0.0,0.0,0.0,0.0,0.0,0.0,0.0,0.0,0.0,0.0,0.0,0.0,0.0,0.0,0.0,0.0,0.0,0.0,0.0,0.0,0.0,0.0,0.0,0.0,0.0,0.0,0.0,0.0,0.0,0.0,0.0,0.0,0.0,0.0,0.0,0.0,0.0,0.0,0.0,0.0,0.0,0.0,0.0,0.0,0.0,0.0,0.0,0.0,0.0,1.3006,1.3474,1.4098,1.4911,1.3798,1.2538,1.1142,0.0,0.0,0.0,0.0,0.0,0.0,0.0,0.0,0.0,0.0,0.0,0.0,0.0,0.0,0.0,0.0,0.0,0.0,0.0,0.0,0.0,0.0,0.0,0.0,0.0,0.0,0.0,0.0,0.0,0.0,0.0,0.0,0.0,0.0,0.0,0.0,0.0,0.0,0.0,0.0,0.0,0.0,0.0,0.0,0.0,0.0,0.0,0.0,0.0,0.0,0.0,0.0,0.0,0.0,0.0,0.0,0.0,0.0,0.0,0.0,0.0,0.0,0.0,0.0,0.0,0.0,0.0,0.0,0.0,0.0,0.0,0.0,0.0,0.0,0.0,0.0,0.0,0.0,0.0,0.0,0.0,0.0,0.0,0.0,0.0,0.0,0.0,0.0,0.0,0.0,0.0,0.0,0.0,0.0,0.0,0.0,0.0,0.0,0.0,0.0,0.0,0.0,0.0,0.0,0.0,0.0,0.0,0.0,1.725,1.6566,1.6712,1.7695,1.6553,1.4992,0.0,0.0,0.0,0.0,0.0,0.0,0.0,0.0,0.0,0.0,0.0,0.0,0.0,0.0,0.0,0.0,0.0,0.0,0.0,0.0,0.0,0.0,0.0,0.0,0.0,0.0,0.0,0.0,0.0,0.0,0.0,0.0,0.0,0.0,0.0,0.0,0.0,0.0,0.0,0.0,0.0,0.0,0.0,0.0,0.0,0.0,0.0,0.0,0.0,0.0,0.0,0.0,0.0,0.0,0.0,0.0,0.0,0.0,0.0,0.0,0.0,0.0,0.0,0.0,0.0,0.0,0.0,0.0,0.0,0.0,0.0,0.0,0.0,0.0,0.0,0.0,0.0,0.0,0.0,0.0,0.0,0.0,0.0,0.0,0.0,0.0,0.0,0.0,0.0,0.0,0.0,0.0,0.0,0.0,0.0,0.0,0.0,0.0,0.0,0.0,0.0,0.0,0.0,0.0,0.0,0.0,0.0,0.0,0.0,1.9507,2.1109,2.157,2.0874,1.9247,1.7533,0.0,0.0,0.0,0.0,0.0,0.0,0.0,0.0,0.0,0.0,0.0,0.0,0.0,0.0,0.0,0.0,0.0,0.0,0.0,0.0,0.0,0.0,0.0,0.0,0.0,0.0,0.0,0.0,0.0,0.0,0.0,0.0,0.0,0.0,0.0,0.0,0.0,0.0,0.0,0.0,0.0,0.0,0.0,0.0,0.0,0.0,0.0,0.0,0.0,0.0,0.0,0.0,0.0,0.0,0.0,0.0,0.0,0.0,0.0,0.0,0.0,0.0,0.0,0.0,0.0,0.0,0.0,0.0,0.0,0.0,0.0,0.0,0.0,0.0,0.0,0.0,0.0,0.0,0.0,0.0,0.0,0.0,0.0,0.0,0.0,0.0,0.0,0.0,0.0,0.0,0.0,0.0,0.0,0.0,0.0,0.0,0.0,0.0,0.0,0.0,0.0,0.0,0.0,0.0,0.0,0.0,0.0,0.0,1.8753,2.2168,2.4366,2.5459,2.5367,2.2593,2.0167,0.0,0.0,0.0,0.0,0.0,0.0,0.0,0.0,0.0,0.0,0.0,0.0,0.0,0.0,0.0,0.0,0.0,0.0,0.0,0.0,0.0,0.0,0.0,0.0,0.0,0.0,0.0,0.0,0.0,0.0,0.0,0.0,0.0,0.0,0.0,0.0,0.0,0.0,0.0,0.0,0.0,0.0,0.0,0.0,0.0,0.0,0.0,0.0,0.0,0.0,0.0,0.0,0.0,0.0,0.0,0.0,0.0,0.0,0.0,0.0,0.0,0.0,0.0,0.0,0.0,0.0,0.0,0.0,0.0,0.0,0.0,0.0,0.0,0.0,0.0,0.0,0.0,0.0,0.0,0.0,0.0,0.0,0.0,0.0,0.0,0.0,0.0,0.0,0.0,0.0,0.0,0.0,0.0,0.0,0.0,0.0,0.0,0.0,0.0,0.0,0.0,0.0,0.0,0.0,0.0,0.0,0.0,0.0,2.1071,2.4715,2.6683,2.838,2.9731,2.6015,2.2802,0.0,0.0,0.0,0.0,0.0,0.0,0.0,0.0,0.0,0.0,0.0,0.0,0.0,0.0,0.0,0.0,0.0,0.0,0.0,0.0,0.0,0.0,0.0,0.0,0.0,0.0,0.0,0.0,0.0,0.0,0.0,0.0,0.0,0.0,0.0,0.0,0.0,0.0,0.0,0.0,0.0,0.0,0.0,0.0,0.0,0.0,0.0,0.0,0.0,0.0,0.0,0.0,0.0,0.0,0.0,0.0,0.0,0.0,0.0,0.0,0.0,0.0,0.0,0.0,0.0,0.0,0.0,0.0,0.0,0.0,0.0,0.0,0.0,0.0,0.0,0.0,0.0,0.0,0.0,0.0,0.0,0.0,0.0,0.0,0.0,0.0,0.0,0.0,0.0,0.0,0.0,0.0,0.0,0.0,0.0,0.0,0.0,0.0,0.0,0.0,0.0,0.0,0.0,0.0,0.0,0.0,0.0,0.0,2.2633,2.601,2.8191,2.96,3.017,2.7412,2.4859,0.0,0.0,0.0,0.0,0.0,0.0,0.0,0.0,0.0,0.0,0.0,0.0,0.0,0.0,0.0,0.0,0.0,0.0,0.0,0.0,0.0,0.0,0.0,0.0,0.0,0.0,0.0,0.0,0.0,0.0,0.0,0.0,0.0,0.0,0.0,0.0,0.0,0.0,0.0,0.0,0.0,0.0,0.0,0.0,0.0,0.0,0.0,0.0,1.3379,0.0,0.0,0.0,0.0,0.0,0.0,0.0,0.0,0.0,0.0,0.0,0.0,0.0,0.0,0.0,0.0,0.0,0.0,0.0,0.0,0.0,0.0,0.0,0.0,0.0,0.0,0.0,0.0,0.0,0.0,0.0,0.0,0.0,0.0,0.0,0.0,0.0,0.0,0.0,0.0,0.0,0.0,0.0,0.0,0.0,0.0,0.0,0.0,0.0,0.0,0.0,0.0,0.0,0.0,0.0,0.0,0.0,0.0,0.0,2.4155,2.758,2.9412,3.0686,3.1383,2.9244,2.6698,0.0,0.0,0.0,0.0,0.0,0.0,0.0,0.0,0.0,0.0,0.0,0.0,0.0,0.0,0.0,0.0,0.0,0.0,0.0,0.0,0.0,0.0,0.0,0.0,0.0,0.0,0.0,0.0,0.0,0.0,0.0,0.0,0.0,0.0,0.0,0.0,0.0,0.0,0.0,0.0,0.0,0.0,0.0,0.0,0.0,0.0,0.0,0.0,0.0,0.0,0.0,0.0,0.0,0.0,0.0,0.0,0.0,0.0,0.0,0.0,0.0,0.0,0.0,0.0,0.0,0.0,0.0,0.0,0.0,0.0,0.0,0.0,0.0,0.0,0.0,0.0,0.0,0.0,0.0,0.0,0.0,0.0,0.0,0.0,0.0,0.0,0.0,0.0,0.0,0.0,0.0,0.0,0.0,0.0,0.0,0.0,0.0,0.0,0.0,0.0,0.0,0.0,0.0,0.0,0.0,0.0,0.0,2.1886,2.546,2.9028,3.0432,3.1718,3.2943,3.1086,2.8384,2.482,0.0,0.0,0.0,0.0,0.0,0.0,0.0,0.0,0.0,0.0,0.0,0.0,0.0,0.0,0.0,0.0,0.0,0.0,0.0,0.0,0.0,0.0,0.0,0.0,0.0,0.0,0.0,0.0,0.0,0.0,0.0,0.0,0.0,0.0,0.0,0.0,0.0,0.0,1.1724,1.4678,0.0,0.0,0.0,0.0,0.0,0.0,0.0,0.0,1.5642,0.0,0.0,0.0,0.0,0.0,0.0,0.0,0.0,0.0,0.0,0.0,0.0,0.0,0.0,0.0,0.0,0.0,0.0,0.0,0.0,0.0,0.0,0.0,0.0,0.0,0.0,0.0,0.0,0.0,0.0,0.0,0.0,0.0,0.0,0.0,0.0,0.0,0.0,0.0,0.0,0.0,0.0,0.0,0.0,0.0,0.0,0.0,0.0,0.0,0.0,0.0,0.0,0.0,0.0,0.0,0.0,1.8775,2.2543,2.6265,2.982,3.1265,3.2522,3.3571,3.2031,2.9555,2.6244,0.0,0.0,0.0,0.0,0.0,0.0,0.0,0.0,0.0,0.0,0.0,0.0,0.0,0.0,0.0,0.0,0.0,0.0,0.0,0.0,0.0,0.0,0.0,0.0,0.0,0.0,0.0,0.0,0.0,0.0,0.0,0.0,0.0,0.0,0.0,0.0,0.0,0.0,0.0,1.6433,1.7873,0.0,0.0,0.0,0.0,0.0,0.0,0.0,0.0,1.6992,0.0,0.0,0.0,0.0,0.0,0.0,0.0,0.0,0.0,0.0,0.0,0.0,0.0,0.0,0.0,0.0,0.0,0.0,0.0,0.0,0.0,0.0,0.0,0.0,0.0,0.0,0.0,0.0,0.0,0.0,0.0,0.0,0.0,0.0,0.0,0.0,0.0,0.0,0.0,0.0,0.0,0.0,0.0,0.0,0.0,0.0,0.0,0.0,0.0,0.0,0.0,0.0,0.0,0.0,0.0,2.0428,2.4151,2.7706,3.1015,3.2371,3.3407,3.4181,3.2538,3.0048,0.0,0.0,0.0,0.0,0.0,0.0,0.0,0.0,0.0,0.0,0.0,0.0,0.0,0.0,0.0,0.0,0.0,0.0,0.0,0.0,0.0,0.0,0.0,0.0,0.0,0.0,0.0,0.0,0.0,0.0,0.0,0.0,0.0,0.0,0.0,0.0,0.0,0.0,0.0,0.0,1.7998,1.946,1.9411,0.0,0.0,0.0,0.0,0.0,0.0,1.9331,1.9045,0.0,0.0,0.0,0.0,0.0,0.0,0.0,0.0,0.0,0.0,0.0,0.0,0.0,0.0,0.0,0.0,0.0,0.0,0.0,0.0,0.0,0.0,0.0,0.0,0.0,0.0,0.0,0.0,0.0,0.0,0.0,0.0,0.0,0.0,0.0,0.0,0.0,0.0,0.0,0.0,0.0,0.0,0.0,0.0,0.0,0.0,0.0,0.0,0.0,0.0,0.0,0.0,0.0,0.0,0.0,2.2008,2.5696,2.915,3.2252,3.3493,3.4382,3.4985,3.3117,3.047,0.0,0.0,0.0,0.0,0.0,0.0,0.0,0.0,0.0,0.0,0.0,0.0,0.0,0.0,0.0,0.0,0.0,0.0,0.0,0.0,0.0,0.0,0.0,0.0,0.0,0.0,0.0,0.0,0.0,0.0,0.0,0.0,0.0,0.0,0.0,0.0,0.0,0.0,0.0,0.0,0.0,2.095,2.1315,2.2034,0.0,0.0,0.0,0.0,2.1878,2.1537,0.0,0.0,0.0,0.0,0.0,0.0,0.0,0.0,0.0,0.0,0.0,0.0,0.0,0.0,0.0,0.0,0.0,0.0,0.0,0.0,0.0,0.0,0.0,0.0,0.0,0.0,0.0,0.0,0.0,0.0,0.0,0.0,0.0,0.0,0.0,0.0,0.0,0.0,0.0,0.0,0.0,0.0,0.0,0.0,0.0,0.0,0.0,0.0,0.0,0.0,0.0,0.0,0.0,0.0,0.0,0.0,2.2568,2.6468,3.0033,3.3194,3.4468,3.5451,3.6236,3.4062,3.1218,0.0,0.0,0.0,0.0,0.0,0.0,0.0,0.0,0.0,0.0,0.0,0.0,0.0,0.0,0.0,0.0,0.0,0.0,0.0,0.0,0.0,0.0,0.0,0.0,0.0,0.0,0.0,0.0,0.0,0.0,0.0,0.0,0.0,0.0,0.0,0.0,0.0,0.0,0.0,0.0,0.0,2.1818,2.3404,2.412,2.4449,0.0,0.0,0.0,2.4396,2.3166,0.0,0.0,0.0,0.0,0.0,0.0,0.0,0.0,0.0,0.0,0.0,0.0,0.0,0.0,0.0,0.0,0.0,0.0,0.0,0.0,0.0,0.0,0.0,0.0,0.0,0.0,0.0,0.0,0.0,0.0,0.0,0.0,0.0,0.0,0.0,0.0,0.0,0.0,0.0,0.0,0.0,0.0,0.0,0.0,0.0,0.0,0.0,0.0,0.0,0.0,0.0,0.0,0.0,0.0,0.0,2.0504,2.4607,2.8938,3.244,3.5057,3.6242,3.6896,3.7012,3.4749,3.1842,0.0,0.0,0.0,0.0,0.0,0.0,0.0,0.0,0.0,0.0,0.0,0.0,0.0,0.0,0.0,0.0,0.0,0.0,0.0,0.0,0.0,0.0,0.0,0.0,0.0,0.0,0.0,0.0,0.0,0.0,0.0,0.0,0.0,0.0,0.0,0.0,0.0,0.0,0.0,0.0,0.0,0.0,2.4608,2.5532,0.0,0.0,0.0,2.654,2.6856,0.0,0.0,0.0,0.0,0.0,0.0,0.0,0.0,0.0,0.0,0.0,0.0,0.0,0.0,0.0,0.0,0.0,0.0,0.0,0.0,0.0,0.0,0.0,0.0,0.0,0.0,0.0,0.0,0.0,0.0,0.0,0.0,0.0,0.0,0.0,0.0,0.0,0.0,0.0,0.0,0.0,0.0,0.0,0.0,0.0,0.0,0.0,0.0,0.0,0.0,0.0,0.0,0.0,0.0,0.0,0.0,0.0,2.6629,3.1179,3.462,3.6796,3.7917,3.828,3.7929,3.5503,0.0,0.0,0.0,0.0,0.0,0.0,0.0,0.0,0.0,0.0,0.0,0.0,0.0,0.0,0.0,0.0,0.0,0.0,0.0,0.0,0.0,0.0,0.0,0.0,0.0,0.0,0.0,0.6868,0.0,0.0,0.0,0.0,0.0,0.0,0.0,0.0,0.0,0.0,0.0,0.0,0.0,0.0,2.3433,2.6113,2.7229,2.8067,0.0,0.0,2.8983,2.9075,2.8639,2.7804,0.0,0.0,0.0,0.0,0.0,0.0,0.0,0.0,0.0,0.0,0.0,0.0,0.0,0.0,0.0,0.0,0.0,0.0,0.0,0.0,0.0,0.0,0.0,0.0,0.0,0.0,0.0,0.0,0.0,0.0,0.0,0.0,0.0,0.0,0.0,0.0,0.0,0.0,0.0,0.0,0.0,0.0,0.0,0.0,0.0,0.0,0.0,0.0,0.0,0.0,0.0,0.0,0.0,0.0,0.0,2.8097,3.2475,3.5827,3.8096,3.8978,3.9433,3.9394,3.6579,3.359,0.0,0.0,0.0,0.0,0.0,0.0,0.0,0.0,0.0,0.0,0.0,0.0,0.0,0.0,0.0,0.0,0.0,0.0,0.0,0.0,0.0,0.0,0.0,0.0,0.0,0.0,0.0,0.0,0.0,0.0,0.0,0.0,0.0,0.0,0.0,0.0,0.0,0.0,0.0,0.0,0.0,2.5238,2.8433,2.9611,3.0538,0.0,0.0,3.1251,3.0968,3.0502,2.971,2.8142,0.0,0.0,0.0,0.0,0.0,0.0,0.0,0.0,0.0,0.0,0.0,0.0,0.0,0.0,0.0,0.0,0.0,0.0,0.0,0.0,0.0,0.0,0.0,0.0,0.0,0.0,0.0,0.0,0.0,0.0,0.0,0.0,0.0,0.0,0.0,0.0,0.0,0.0,0.0,0.0,0.0,0.0,0.0,0.0,0.0,0.0,0.0,0.0,0.0,0.0,0.0,0.0,0.0,2.4872,2.9687,3.4102,3.7317,3.9292,4.0342,4.0564,3.9917,3.7643,3.4888,0.0,0.0,0.0,0.0,0.0,0.0,0.0,0.0,0.0,0.0,0.0,0.0,0.0,0.0,0.0,0.0,0.0,0.0,0.0,0.0,0.0,0.0,0.0,0.0,0.0,0.0,0.0,0.0,1.2089,1.2616,1.2795,0.0,0.0,0.0,0.0,0.0,0.0,0.0,0.0,0.0,0.0,2.6693,2.9851,3.118,0.0,0.0,3.2796,3.2475,3.236,3.1605,3.0493,2.9025,2.708,0.0,0.0,0.0,0.0,0.0,0.0,0.0,0.0,0.0,0.0,0.0,0.0,0.0,0.0,0.0,0.0,0.0,0.0,0.0,0.0,0.0,0.0,0.0,0.0,0.0,0.0,0.0,0.0,0.0,0.0,0.0,0.0,0.0,0.0,0.0,0.0,0.0,0.0,0.0,0.0,0.0,0.0,0.0,0.0,0.0,0.0,0.0,0.0,0.0,0.0,0.0,0.0,2.6215,3.1246,3.5502,3.8575,4.0492,4.1409,4.1509,4.0711,3.8768,3.6358,0.0,0.0,0.0,0.0,0.0,0.0,0.0,0.0,0.0,0.0,0.0,0.0,0.0,0.0,0.0,0.0,0.0,0.0,0.0,0.0,0.0,0.0,0.0,0.0,0.0,0.0,0.0,0.0,1.3396,1.3542,1.3292,0.0,0.0,0.0,0.0,0.0,0.0,0.0,0.0,0.0,0.0,2.8659,3.1628,3.2884,3.3749,3.4499,3.4316,3.3958,3.3672,3.2832,3.1676,3.0253,0.0,0.0,0.0,0.0,0.0,0.0,0.0,0.0,0.0,0.0,0.0,0.0,0.0,0.0,0.0,0.0,0.0,0.0,0.0,0.0,0.0,0.0,0.0,0.0,0.0,0.0,0.0,0.0,0.0,0.0,0.0,0.0,0.0,0.0,0.0,0.0,0.0,0.0,0.0,0.0,0.0,0.0,0.0,0.0,0.0,0.0,0.0,0.0,0.0,0.0,0.0,0.0,0.0,0.0,3.2809,3.6526,3.9496,4.1591,4.2021,4.2185,4.2085,4.0024,3.8065,3.6234,0.0,0.0,0.0,0.0,0.0,0.0,0.0,0.0,0.0,0.0,0.0,0.0,0.0,0.0,0.0,0.0,0.0,0.0,0.0,0.0,0.0,0.0,0.0,0.0,0.0,0.0,1.4635,1.5145,1.5057,0.0,0.0,0.0,0.0,0.0,0.0,0.0,0.0,0.0,0.0,2.8422,3.1226,3.3988,3.481,3.5372,3.6134,3.6234,3.5917,3.5033,3.4357,3.3483,0.0,0.0,0.0,0.0,0.0,0.0,0.0,0.0,0.0,0.0,0.0,0.0,0.0,0.0,0.0,0.0,0.0,0.0,0.0,0.0,0.0,0.0,0.0,0.0,0.0,0.0,0.0,1.2383,1.2274,0.0,0.0,0.0,0.0,0.0,0.0,0.0,0.0,0.0,0.0,0.0,2.5713,2.6377,0.0,0.0,0.0,0.0,0.0,0.0,0.0,0.0,0.0,0.0,0.0,0.0,2.8601,3.3956,3.7,3.9654,4.1971,4.2482,4.2537,4.2213,4.1078,3.8843,3.5355,0.0,0.0,0.0,0.0,0.0,0.0,0.0,0.0,0.0,0.0,0.0,0.0,0.0,0.0,0.0,0.0,0.0,0.0,0.0,0.0,0.0,0.0,0.0,0.0,0.0,1.4717,0.0,0.0,0.0,0.0,0.0,0.0,0.0,0.0,0.0,0.0,0.0,2.5271,2.8853,3.1342,3.3505,3.544,3.6379,3.7075,0.0,0.0,0.0,0.0,0.0,0.0,0.0,0.0,0.0,0.0,0.0,0.0,0.0,0.0,3.0267,2.6467,2.7273,2.8906,2.9918,0.0,0.0,0.0,0.0,0.0,0.0,0.0,0.0,0.0,0.0,0.0,0.0,0.0,0.0,0.0,0.0,1.4297,0.0,0.0,0.0,0.0,0.0,0.0,0.0,0.0,2.5074,2.7798,3.0183,3.0673,3.1147,0.0,2.972,2.7348,0.0,0.0,0.0,0.0,0.0,0.0,0.0,0.0,3.0184,3.5257,3.782,4.0166,4.2359,4.2813,4.2838,4.2462,4.1679,3.9596,3.5958,3.3373,3.0412,0.0,0.0,0.0,0.0,0.0,0.0,0.0,0.0,0.0,0.0,0.0,0.0,0.0,0.0,0.0,0.0,0.0,0.0,0.0,0.0,0.0,0.0,0.0,1.6975,0.0,0.0,0.0,0.0,0.0,0.0,0.0,0.0,0.0,2.3416,2.5838,2.8752,3.2008,3.4122,3.5878,3.7361,0.0,0.0,0.0,0.0,0.0,0.0,0.0,3.7688,3.7507,3.7056,3.6903,3.7387,3.7506,3.7779,3.853,0.0,0.0,3.2368,3.2925,3.4583,3.5805,3.6312,3.6545,3.6545,3.7572,3.8672,0.0,0.0,0.0,0.0,0.0,0.0,0.0,0.0,1.9627,1.9439,0.0,1.8094,0.0,0.0,0.0,0.0,0.0,0.0,0.0,0.0,2.8926,3.1857,3.4572,3.493,3.5591,3.6504,3.4574,3.3469,3.2853,2.5869,0.0,0.0,0.0,0.0,0.0,0.0,3.2249,3.6691,3.897,4.106,4.2886,4.3014,4.3014,4.2964,4.1904,4.0324,3.8165,3.5983,3.3574,3.0839,2.71,0.0,0.0,0.0,0.0,0.0,0.0,0.0,0.0,0.0,0.0,0.0,0.0,0.0,0.0,0.0,0.0,0.0,0.0,0.0,0.0,1.9045,0.0,0.0,0.0,0.0,0.0,0.0,0.0,0.0,0.0,0.0,2.6677,2.9637,3.2721,3.5018,0.0,0.0,0.0,0.0,4.0971,4.1849,4.1978,4.1937,4.1843,4.1338,4.0937,4.0818,0.0,0.0,4.1326,4.196,4.2576,4.3486,4.4007,4.3646,4.0906,4.0334,4.088,4.2169,4.2489,4.2708,4.2828,4.3638,4.467,2.8518,0.0,0.0,0.0,0.0,2.2816,2.3096,2.3863,2.2899,2.2511,2.2548,2.1241,0.0,0.0,0.0,0.0,0.0,0.0,2.7437,3.0695,3.3078,3.5308,3.7419,3.8041,3.839,3.8487,3.7543,3.6973,3.6603,3.3413,3.02,2.7124,0.0,0.0,0.0,0.0,3.4607,3.8175,3.9922,4.1486,4.2989,4.3014,4.3014,4.3014,4.2336,4.143,4.0374,3.8642,3.6584,3.4201,3.1165,0.0,0.0,0.0,0.0,0.0,0.0,0.0,0.0,0.0,0.0,0.0,0.0,0.0,0.0,0.0,0.0,0.0,0.0,0.0,2.0987,2.1825,2.1825,0.0,0.0,0.0,0.0,0.0,0.0,0.0,0.0,0.0,3.4721,3.5386,3.6646,0.0,0.0,4.0903,4.146,4.1943,4.2569,4.3488,0.0,0.0,0.0,4.4607,4.4544,4.4654,4.4854,4.5073,4.5314,4.562,4.6053,4.6794,4.7171,4.7377,4.7521,4.5794,4.5153,4.6644,4.6792,4.6603,4.6935,4.8131,4.9357,3.3882,3.0884,2.8184,2.7214,2.7439,2.6803,2.6963,2.7576,2.6821,2.646,2.6348,2.529,2.4503,2.3991,2.402,0.0,0.0,0.0,3.1676,3.4565,3.6459,3.8224,3.9756,4.0395,4.0724,4.0739,4.032,4.0122,4.0098,3.8793,3.6936,3.4354,0.0,0.0,3.3534,3.5278,3.7369,3.9882,4.1043,4.208,4.2989,4.3014,4.3014,4.2989,4.2688,4.2233,4.1681,4.0501,3.8919,3.6911,3.4625,3.1708,0.0,0.0,0.0,0.0,0.0,0.0,0.0,0.0,0.0,0.0,0.0,1.2979,0.0,0.0,0.0,0.0,2.0189,2.2587,2.4884,2.5028,0.0,0.0,0.0,0.0,0.0,0.0,0.0,3.2045,3.5233,3.8255,4.0894,4.1323,4.1602,4.2338,4.3076,4.367,4.401,0.0,4.4973,4.5885,4.6243,4.6584,4.7055,4.7137,4.7204,4.7458,4.7711,4.8052,4.838,4.8722,4.9298,5.0102,5.0653,5.1235,5.22,5.053,4.9323,5.0545,5.0932,5.1101,5.1458,5.2574,5.3703,3.8331,3.7899,3.3964,3.2028,3.1529,3.0917,3.0949,3.1366,3.0977,3.0785,3.0627,2.9822,2.9164,2.8701,2.9359,0.0,0.0,3.3777,3.5801,3.7762,3.9182,4.0533,4.1795,4.2098,4.2564,4.312,4.2865,4.2965,4.3264,4.2579,4.2421,4.2674,3.8604,3.6955,3.7847,3.9137,4.0389,4.1594,4.2337,4.2815,4.2989,4.3014,4.3014,4.3014,4.3014,4.2763,4.2288,4.1681,4.0625,3.9095,3.7462,3.51,3.1834,0.0,0.0,0.0,0.0,0.0,0.0,0.0,0.0,0.0,0.0,0.0,0.0,0.0,0.0,0.0,2.4425,0.0,2.8774,2.8464,0.0,0.0,0.0,2.8529,2.912,3.163,3.4491,3.7518,0.0,0.0,0.0,0.0,4.6897,4.5334,4.573,4.6418,4.6978,4.719,4.7734,4.846,4.867,4.885,4.9129,4.9287,4.9468,4.968,4.9674,5.008,5.0774,5.1432,5.2313,5.3193,5.4067,5.4614,5.51,5.4334,5.3982,5.3844,5.4688,5.5561,5.573,5.6475,5.7183,4.1213,4.0349,3.9057,3.677,3.3924,3.3324,3.3058,3.3014,3.2876,3.2945,3.3112,3.2824,3.2662,3.269,3.372,3.4661,3.5594,3.7127,3.8755,4.0358,4.0945,4.1723,4.2677,4.2758,4.3201,4.3984,4.4138,4.4821,4.5933,4.582,4.6218,4.7076,4.5779,4.3877,4.1549,4.1952,4.2606,4.3279,4.3496,4.3388,4.3014,4.3014,4.3014,4.3014,4.3014,4.2939,4.2813,4.2286,4.1431,4.0174,3.8944,3.696,3.4073,3.1712,0.0,0.0,0.0,0.0,0.0,0.0,0.0,0.0,0.0,1.762,1.9496,0.0,2.2166,0.0,2.7992,3.0429,3.1469,3.1596,0.0,0.0,3.2504,3.3709,3.4878,3.72,3.9541,4.164,4.3731,4.5562,4.6958,4.8388,4.9393,4.9558,4.8676,4.8044,4.8168,4.8404,4.8778,4.9446,4.9763,5.02,5.1218,5.2042,5.2455,5.2562,5.2886,5.3258,5.345,5.3922,5.4376,5.4668,5.528,5.5767,5.601,5.6658,5.7362,5.7309,5.6961,5.6716,5.7281,5.8169,5.8981,4.3152,4.2302,4.1933,4.013,3.7392,3.6347,3.5647,3.5293,3.5397,3.5574,3.583,3.5975,3.6127,3.6347,3.7138,3.7932,3.8755,3.9701,4.0752,4.1818,4.2121,4.2755,4.3563,4.3563,4.4119,4.5107,4.5475,4.6302,4.7427,4.8055,4.8796,4.9632,4.9649,4.866,4.6717,4.5632,4.5016,4.4838,4.4212,4.3653,4.3184,4.3045,4.3014,4.2989,4.2763,4.2637,4.2637,4.211,4.1379,4.0524,3.9923,3.8492,3.5956,3.4173,3.1763,0.0,0.0,0.0,0.0,0.0,0.0,0.0,0.0,0.0,0.0,0.0,2.6197,0.0,3.1932,0.0,3.4394,3.4875,3.5184,3.5253,3.6588,3.8031,3.9399,4.1435,4.3582,4.5756,4.7232,4.8559,4.9757,5.0751,5.1536,5.2013,5.128,5.0638,5.0638,5.0732,5.0975,5.1309,5.1464,5.1791,5.272,5.3446,5.3999,5.4111,5.4442,5.4815,5.517,5.5655,5.6153,5.6613,5.7491,5.8293,5.8656,5.9415,6.025,6.0683,6.0672,6.0313,5.9882,6.0604,6.1509,4.4344,4.3738,4.3448,4.2472,4.1014,3.9544,3.8462,3.7731,3.8027,3.8282,3.8515,3.9033,3.9403,3.9627,4.0029,4.0598,4.1341,4.1821,4.2292,4.2768,4.3131,4.3717,4.4455,4.454,4.5245,4.6439,4.7002,4.7724,4.8708,4.9864,5.0682,5.1253,5.1653,5.1903,5.1795,4.9449,4.7581,4.6301,4.4879,4.3976,4.3591,4.3235,4.3017,4.2989,4.2462,4.2213,4.2213,4.163,4.1076,4.0524,4.0499,3.9572,3.7537,3.6358,3.4354,0.0,2.9227,0.0,0.0,0.0,0.0,0.0,0.0,0.0,0.0,2.8444,3.0727,3.3963,3.576,3.6887,3.7367,3.8065,3.8615,3.8889,4.0369,4.191,4.3278,4.5028,4.7088,4.9511,5.0369,5.1343,5.254,5.3052,5.3174,5.3234,5.3204,5.315,5.3354,5.3174,5.2995,5.3223,5.341,5.3543,5.3905,5.445,5.4991,5.5178,5.5634,5.5874,5.6575,5.7338,5.8096,5.8896,6.0098,6.1185,6.1925,6.2166,6.2635,6.3327,6.4027,6.4082,6.2786,6.2999,6.399,4.4865,4.4115,4.4031,4.3561,4.2825,4.2489,4.1228,3.9439,3.9802,4.0176,4.0597,4.1369,4.1745,4.1909,4.2868,4.3428,4.3561,4.3908,4.4102,4.4231,4.4547,4.4938,4.5383,4.5868,4.6831,4.8202,4.8787,4.9913,5.1446,5.2174,5.2914,5.3638,5.3444,5.3385,5.33,0.0,0.0,0.0,4.6405,4.529,4.4459,4.3718,4.3212,4.2989,4.2489,0.0,4.2187,4.163,4.1051,4.0524,4.0499,0.0,0.0,0.0,0.0,0.0,0.0,0.0,0.0,0.0,0.0,0.0,3.2539,3.2051,3.0664,3.3007,3.546,3.7369,3.8116,3.8894,4.0056,4.0517,4.1235,4.242,4.4218,4.5869,4.7077,4.8887,5.0605,5.1673,5.2157,5.254,5.3077,5.3174,5.3438,5.3922,5.4012,5.4221,5.4725,5.3917,5.3331,5.3525,5.4389,5.5053,5.5262,5.6302,5.7144,5.757,5.8246,5.8759,5.9022,6.0044,6.0881,6.1215,6.2219,6.3072,6.3242,6.3584,6.3948,6.4128,6.492,6.5205,6.4148,6.4048,6.4306,4.5545,0.0,4.4997,4.4615,0.0,4.4225,4.3559,4.2302,4.1981,4.2182,4.2665,4.323,4.3469,4.3523,4.4116,4.4411,4.4411,4.4531,4.4676,4.485,4.5192,4.5834,4.6721,4.7318,4.8614,5.0462,5.11,5.2204,5.3753,5.4403,5.4961,5.5486,5.5444,5.53,5.4947,5.3761,5.1805,4.9108,4.7676,4.637,4.5171,4.4275,4.3574,4.3014,0.0,0.0,0.0,0.0,0.0,0.0,0.0,0.0,0.0,0.0,0.0,3.7237,3.6132,3.5378,3.5102,3.476,3.504,3.6139,3.7094,3.6873,3.5047,3.6971,3.8617,3.9416,4.0479,4.1501,4.2302,4.3404,4.457,4.5714,4.7259,4.8612,4.9623,5.0922,5.213,5.2925,5.3313,5.3655,5.4132,5.4186,5.4311,5.464,5.4825,5.502,5.5285,5.4835,5.4532,5.5068,5.5961,5.6652,5.6988,5.7895,5.8955,5.9518,6.0226,6.0892,6.1479,6.2164,6.2761,6.3006,6.3826,6.4497,6.4657,6.5101,6.5551,6.5551,6.5938,6.6115,6.5618,6.5551,6.5572,4.6395,4.6152,4.6182,4.5827,4.5214,4.5484,4.5404,4.4994,0.0,0.0,0.0,4.4627,4.4769,4.474,4.4865,4.489,4.492,4.4949,4.5153,4.5472,4.6007,4.701,4.837,4.9213,5.0711,5.277,5.338,5.435,5.56,5.6116,5.6518,5.6753,5.6989,5.6769,5.6064,5.4775,5.2882,5.0507,4.8926,4.7427,4.6038,4.504,4.4136,4.3291,4.2663,4.2363,4.2311,4.1681,4.1302,4.1302,4.1302,4.1102,4.0675,4.0625,4.0223,3.9396,3.8868,3.8592,3.8567,3.8266,3.8567,3.9673,4.0729,4.075,3.9388,4.0373,4.1108,4.1309,4.2924,4.4073,4.4432,4.6041,4.7508,4.8409,4.9645,5.0701,5.15,5.2331,5.3182,5.3902,5.4221,5.4581,5.5059,5.5144,5.5234,5.5259,5.5496,5.5972,5.6177,5.607,5.6018,5.6673,5.7582,5.8369,5.876,5.9643,6.0532,6.1404,6.1915,6.2607,6.3424,6.3872,6.4107,6.4412,6.5156,6.5623,6.5891,6.6284,6.6791,6.6791,6.6791,6.6791,6.6791,6.6791,6.6724,4.7651,4.762,4.7589,4.7307,4.679,4.682,4.657,4.601,4.5147,4.4684,4.4581,4.5116,4.5372,4.5397,4.5849,4.6075,4.6075,4.6344,4.6641,0.0,4.829,4.9486,5.0548,5.2208,5.3556,5.4614,5.5244,5.5869,5.6462,5.6624,5.6779,5.7046,5.7094,5.6665,5.5779,5.5083,5.3936,5.2233,5.0351,4.8758,4.7502,4.615,4.5097,4.4396,4.3416,4.2889,4.2864,4.1879,4.1302,4.1302,4.1302,4.125,4.1202,4.1227,4.11,4.0976,4.0876,4.0851,4.0851,4.1229,4.1959,4.3039,4.3944,4.3872,4.2534,4.2783,4.3455,4.4342,4.5214,4.5959,4.6465,4.7455,4.8599,4.967,5.1043,5.2191,5.2985,5.3837,5.4527,5.4929,5.5004,5.5089,5.5294,5.5269,5.5324,5.5379,5.6179,5.7056,5.8214,5.7755,5.7201,5.7715,5.9009,6.009,6.067,6.1852,6.268,6.319,6.3605,6.3944,6.4262,6.4899,6.5327,6.5465,6.6039,6.6479,6.6609,6.669,6.6791,6.6791,6.6791,6.6791,6.6791,6.6791,6.6791,4.7908,4.7908,4.7908,4.7782,4.75,4.7224,4.6798,4.6271,4.59,4.5649,4.5543,4.5824,4.5949,4.5949,4.62,4.6416,4.6596,4.723,4.7842,4.8525,5.0049,5.1339,5.2458,5.3782,5.504,5.6238,5.6675,5.7256,5.7958,5.8014,5.8095,5.8171,5.7816,5.7355,5.6737,5.5554,5.4231,5.2865,5.1017,4.9301,4.7823,4.6645,4.5584,4.4618,4.4116,4.3865,4.3865,4.336,4.2958,4.2685,4.2657,4.2507,4.2258,4.2233,4.2233,4.2233,4.2509,4.274,4.2934,4.3802,4.4507,4.4965,4.5528,4.5804,4.5654,4.515,4.5173,4.583,4.685,4.7737,4.8349,4.9556,5.0753,5.1581,5.268,5.3528,5.4099,5.4641,5.5202,5.5658,5.5743,5.5863,5.6196,5.6226,5.6329,5.6543,5.7446,5.8739,6.0162,6.0136,5.9913,6.022,6.1067,6.1862,6.2408,6.3176,6.3969,6.4464,6.4837,6.5213,6.5551,6.6094,6.6216,6.6305,6.6609,6.6757,6.6791,6.6791,6.6791,6.6791,6.6791,6.6791,6.6791,6.6791,6.6791,4.8284,4.8284,4.8284,4.8209,4.8058,4.75,4.7023,4.6677,4.6647,4.6677,4.6652,4.6552,4.6522,4.6677,4.6768,4.698,4.7362,4.8227,4.9128,5.0103,5.1694,5.3096,5.4233,5.524,5.6386,5.7537,5.7892,5.8402,5.9042,5.9099,5.9099,5.9069,5.8563,5.8104,5.7606,5.6035,5.4477,5.2934,5.1265,4.9592,4.792,4.6969,4.6006,4.5075,4.484,4.4819,4.479,4.4665,4.4418,4.4016,4.3991,4.379,4.3388,4.3366,4.3338,4.3416,4.3825,4.4355,4.4962,4.5915,4.6541,4.6702,4.7068,4.7562,4.8158,4.7755,4.7321,4.7458,4.8616,4.961,5.0243,5.153,5.273,5.3314,5.4114,5.472,5.5062,5.5436,5.5833,5.6312,5.6402,5.6555,5.7,5.7172,5.7462,5.8176,5.9197,6.0357,6.1585,6.2402,6.2832,6.3133,6.3309,6.3514,6.3942,6.4535,6.5068,6.5649,6.5842,6.6128,6.6555,6.6757,6.6791,6.6757,6.6757,6.6791,6.6791,6.6791,6.6791,6.6791,6.6791,6.6859,6.7062,6.7354,6.7129,4.9414,4.9439,4.9389,4.9138,4.8667,4.8083,4.7782,4.7732,4.7757,4.7757,4.7707,4.7224,4.733,4.7763,4.8098,4.8411,4.8753,4.9736,5.0694,5.1749,5.3487,5.4856,5.5845,5.72,5.8132,5.8518,5.879,5.8955,5.9099,5.9099,5.9099,5.9099,5.9039,5.844,5.7394,5.6614,5.4986,5.2436,5.111,4.9694,4.8149,4.7239,4.6585,4.615,4.5648,4.5422,4.5397,4.492,4.4589,4.4514,4.4514,4.4518,4.4414,4.4414,4.4439,4.4443,4.4807,4.5579,4.6848,4.7379,4.8012,4.8746,4.9344,4.9709,4.9847,5.0657,5.074,5.0158,5.0768,5.1509,5.1973,5.2863,5.3664,5.4251,5.5049,5.5712,5.6034,5.6585,5.6944,5.703,5.7004,5.7034,5.7266,5.7587,5.8337,5.9745,6.0725,6.1902,6.3437,6.4223,6.4895,6.5487,6.5402,6.4945,6.5245,6.5994,6.6323,6.658,6.6635,6.669,6.6757,6.6791,6.6791,6.6791,6.6791,6.6791,6.6791,6.6791,6.6791,6.696,6.6994,6.7062,6.7692,6.8267,6.8233,4.959,4.959,4.959,4.9321,4.8793,4.8542,4.8234,4.7933,4.7908,4.8083,4.8416,4.8403,4.837,4.83,4.8856,4.9351,4.9871,5.1146,5.2378,5.3515,5.5196,5.6419,5.7346,5.8077,5.8637,5.8939,5.9045,5.9099,5.9099,5.9099,5.9099,5.9099,5.9099,5.8763,5.8087,5.6963,5.5474,5.3668,5.1375,4.9613,4.8436,4.7321,4.6656,4.6331,4.6075,4.5974,4.5949,4.5748,4.5472,4.5171,4.5121,4.497,4.4614,4.4589,4.4676,4.4933,4.6074,4.7262,4.853,4.9378,5.0103,5.0628,5.1183,5.1594,5.1812,5.2748,5.3193,5.2973,5.285,5.3031,5.3726,5.4393,5.5067,5.5656,5.6218,5.6575,5.6705,5.6971,5.7214,5.7603,5.7693,5.7925,5.849,5.9236,6.0183,6.1389,6.2403,6.3603,6.4796,6.5481,6.6064,6.6461,6.6276,6.6141,6.6226,6.6492,6.6791,6.6791,6.6791,6.6791,6.6791,6.6791,6.6791,6.6791,6.6791,6.6791,6.6791,6.6825,6.6859,6.7231,6.7963,6.8267,6.8571,6.8876,6.8707,4.959,4.959,4.959,4.9364,4.9044,4.9044,4.8793,4.841,4.836,4.8674,4.9178,4.9615,4.9731,4.9714,5.0123,5.0702,5.1396,5.2875,5.4156,5.531,5.665,5.7641,5.8335,5.8664,5.8909,5.9072,5.9099,5.9099,5.9099,5.9099,5.9099,5.9099,5.9099,5.8964,5.858,5.7282,5.5961,5.4456,5.1727,4.9729,4.8569,4.7329,4.6566,4.6301,4.6296,4.6296,4.6296,4.6296,4.6125,4.5748,4.5787,4.567,4.5238,4.5333,4.5683,4.6283,4.7727,4.9172,5.0286,5.1516,5.2374,5.273,5.3218,5.3594,5.3895,5.459,5.5145,5.5248,5.4838,5.4808,5.5266,5.5804,5.6303,5.6776,5.7109,5.7363,5.7393,5.7483,5.7872,5.8294,5.8461,5.8851,5.9856,6.083,6.1765,6.2656,6.3744,6.4751,6.5459,6.6086,6.655,6.6749,6.6791,6.6791,6.6791,6.6791,6.6791,6.6791,6.6791,6.6791,6.6791,6.6791,6.6791,6.6791,6.6791,6.696,6.7218,6.7218,6.74,6.8098,6.8808,6.935,6.9383,6.9519,6.9722,4.959,4.959,4.959,4.9565,4.9565,4.954,4.954,4.9389,4.9497,4.9707,5.006,5.0721,5.1513,5.2302,5.2402,5.2792,5.3522,5.495,5.605,5.6764,5.7666,5.8335,5.8694,5.8936,5.9072,5.9099,5.9099,5.9099,5.9099,5.9099,5.9099,5.9099,5.9099,5.8964,5.8609,5.7749,5.6392,5.4626,5.2167,5.0155,4.8647,4.7145,4.6331,4.6301,4.6296,4.6296,4.6301,4.6301,4.6276,4.6276,4.6555,4.6704,4.6709,4.7221,4.7902,4.8846,5.0074,5.1257,5.2463,5.3664,5.4585,5.5161,5.5427,5.5706,5.564,5.6158,5.6538,5.6618,5.672,5.6802,5.6674,5.6858,5.7072,5.7191,5.7696,5.8022,5.8082,5.8504,5.8949,5.9063,5.9302,5.9883,6.0964,6.1834,6.272,6.3634,6.4499,6.5248,6.5878,6.6335,6.6592,6.6728,6.6791,6.6791,6.6791,6.6791,6.6791,6.6791,6.6791,6.6791,6.6791,6.6791,6.6791,6.6859,6.6927,6.7218,6.7658,6.803,6.8335,6.891,6.962,7.006,7.0128,7.077,7.085,4.959,4.959,4.959,4.959,4.959,4.959,4.959,4.9622,4.984,5.0104,5.055,5.134,5.228,5.3234,5.4261,5.4825,5.515,5.6251,5.7162,5.7723,5.828,5.8664,5.8936,5.9045,5.9099,5.9099,5.9099,5.9099,5.9099,5.9099,5.9099,5.9099,5.9099,5.9045,5.88,5.8086,5.699,5.5594,5.2966,5.0845,4.9445,4.7624,4.6511,4.6301,4.6296,4.6296,4.6296,4.6506,4.6626,4.6626,4.7108,4.7438,4.7703,4.8611,4.9603,5.0554,5.1708,5.291,5.4081,5.5106,5.5877,5.6223,5.6515,5.668,5.6763,5.7219,5.7594,5.7653,5.8091,5.8327,5.8184,5.7942,5.7932,5.8321,5.859,5.871,5.8743,5.8949,5.9153,5.9422,6.0031,6.0969,6.1828,6.2768,6.3658,6.4499,6.5248,6.5834,6.6237,6.6571,6.6707,6.677,6.6791,6.6791,6.6791,6.6791,6.6791,6.6791,6.6791,6.6825,6.6825,6.6893,6.6893,6.7523,6.7523,6.7827,6.8402,6.9113,6.9383,6.9688,7.0398,7.0669,7.0906,7.112,7.1222,4.959,4.959,4.959,4.959,4.959,4.959,4.9654,4.9783,5.0104,5.0582,5.1189,5.2125,5.3204,5.4352,5.5761,5.6566,5.685,5.7472,5.7946,5.839,5.8691,5.8909,5.9072,5.9099,5.9099,5.9099,5.9099,5.9099,5.9099,5.9099,5.9099,5.9099,5.9099,5.9099,5.8964,5.8252,5.7389,5.6137,5.3564,5.1462,5.0063,4.8146,4.6808,4.6411,4.6416,4.6451,4.6451,4.6751,4.7049,4.7286,4.7883,4.869,4.9572,5.0397,5.1375,5.2491,5.3638,5.4668,5.5676,5.6591,5.7196,5.7434,5.762,5.7752,5.7782,5.8171,5.8411,5.8534,5.88,5.9099,5.9039,5.8683,5.8623,5.9039,5.9099,5.9099,5.9099,5.9099,5.9369,5.9955,6.0784,6.1778,6.2768,6.3682,6.4499,6.5248,6.59,6.6302,6.6571,6.6686,6.6791,6.6791,6.6791,6.6791,6.6927,6.7028,6.696,6.696,6.7028,6.6994,6.7129,6.7129,6.7421,6.803,6.847,6.8774,6.9282,7.0026,7.0364,7.0534,7.077,7.1075,7.1154,7.1222,7.1289,4.959,4.959,4.959,4.959,4.959,4.9622,4.9783,5.0136,5.0518,5.122,5.2156,5.3116,5.441,5.579,5.6794,5.7751,5.8362,5.8527,5.8609,5.8691,5.8936,5.9072,5.9099,5.9099,5.9099,5.9099,5.9099,5.9099,5.9099,5.9099,5.9099,5.9099,5.9099,5.9099,5.9099,5.8307,5.7529,5.6394,5.4159,5.2079,5.0412,4.8778,4.748,4.6718,4.6847,4.7052,4.6972,4.7193,4.7586,4.8198,4.9096,5.0537,5.2184,5.2686,5.3383,5.47,5.5801,5.6618,5.7256,5.8055,5.8592,5.8782,5.8979,5.889,5.886,5.8949,5.9009,5.9009,5.9039,5.9099,5.9099,5.9039,5.9039,5.9099,5.9099,5.9099,5.9099,5.9126,5.9556,6.0555,6.1424,6.2411,6.3602,6.4499,6.5225,6.5856,6.6302,6.6571,6.6741,6.677,6.6791,6.6825,6.6927,6.7062,6.7197,6.7332,6.7231,6.7163,6.7265,6.7332,6.7793,6.7963,6.8301,6.8842,6.935,6.9688,6.9992,7.0669,7.0906,7.1075,7.1255,7.1289,7.1289,7.1289,7.1289,4.959,4.959,4.959,4.959,4.9622,4.984,5.0136,5.055,5.1251,5.2161,5.3146,5.4293,5.547,5.6594,5.7528,5.8225,5.8664,5.8855,5.8964,5.8964,5.9072,5.9099,5.9099,5.9099,5.9099,5.9099,5.9099,5.9099,5.9099,5.9099,5.9099,5.9099,5.9099,5.9099,5.9072,5.8637,5.8031,5.7019,5.5253,5.3535,5.2047,5.0588,4.9505,4.8868,4.8872,4.9139,4.9531,4.8679,4.8705,4.9718,5.0809,5.2296,5.3914,5.4689,5.5306,5.6187,5.6885,5.7596,5.8199,5.8681,5.8991,5.9072,5.9099,5.9099,5.9099,5.9099,5.9099,5.9099,5.9099,5.9099,5.9099,5.9099,5.9099,5.9099,5.9099,5.9099,5.9153,5.9452,6.0088,6.0969,6.1935,6.3011,6.4207,6.5078,6.5736,6.6259,6.6558,6.6728,6.677,6.6859,6.6791,6.6791,6.7096,6.7557,6.776,6.8132,6.8335,6.8166,6.8098,6.8098,6.847,6.8774,6.9147,6.962,7.0128,7.05,7.0804,7.1041,7.1222,7.1289,7.1289,7.1289,7.1289,7.1289,7.1289,4.959,4.959,4.959,4.9654,4.9815,5.0136,5.0646,5.1251,5.2218,5.3234,5.4293,5.5441,5.648,5.736,5.8114,5.8555,5.8857,5.9018,5.9099,5.9099,5.9099,5.9099,5.9099,5.9099,5.9099,5.9099,5.9099,5.9099,5.9099,5.9099,5.9099,5.9099,5.9099,5.9099,5.9072,5.883,5.828,5.7414,5.6165,5.4708,5.3206,5.2082,5.1162,5.0412,5.0479,5.0893,5.1309,5.087,5.0969,5.1755,5.2939,5.4359,5.584,5.6363,5.69,5.7564,5.8016,5.8411,5.8825,5.8991,5.9099,5.9099,5.9099,5.9099,5.9099,5.9099,5.9099,5.9099,5.9099,5.9099,5.9099,5.9099,5.9099,5.9099,5.9099,5.9099,5.918,5.964,6.0351,6.1252,6.2227,6.3444,6.4669,6.5459,6.6086,6.6528,6.6707,6.6791,6.6859,6.7062,6.7129,6.7387,6.7929,6.8233,6.8402,6.8842,6.9417,6.9282,6.9079,6.9147,6.935,6.9485,6.9722,7.0297,7.0816,7.085,7.112,7.1154,7.1289,7.1289,7.1289,7.1289,7.1289,7.1289,7.1289,4.9654,4.9687,4.9687,4.9944,5.0264,5.062,5.1346,5.2249,5.3207,5.4323,5.5499,5.6509,5.7388,5.8169,5.8673,5.9034,5.9135,5.9249,5.9279,5.9219,5.9159,5.9099,5.9099,5.9099,5.9099,5.9099,5.9099,5.9099,5.9099,5.9099,5.9099,5.9099,5.9099,5.9099,5.9045,5.8857,5.8472,5.7835,5.6964,5.5679,5.4132,5.3406,5.257,5.1551,5.1993,5.2459,5.2865,5.3697,5.4092,5.412,5.5259,5.6508,5.7487,5.7767,5.8145,5.8844,5.9042,5.9012,5.9099,5.9072,5.9099,5.9099,5.9099,5.9099,5.9099,5.9099,5.9099,5.9099,5.9099,5.9099,5.9099,5.9099,5.9099,5.9099,5.9099,5.9099,5.9153,5.964,6.0403,6.1399,6.2467,6.3649,6.5078,6.5746,6.6225,6.6643,6.6791,6.6825,6.7096,6.7421,6.7793,6.8233,6.8673,6.8977,6.918,6.9722,7.0229,7.0195,7.0026,7.006,7.0128,7.0195,7.0297,7.0883,7.1188,7.1255,7.1289,7.1289,7.1289,7.1289,7.1289,7.1289,7.1289,7.1289,7.1289,5.0264,5.0709,5.0709,5.0899,5.1251,5.1815,5.2496,5.3238,5.441,5.5582,5.6566,5.7444,5.8145,5.8641,5.9391,5.9762,5.9817,5.9847,5.9847,5.9757,5.9308,5.9129,5.9099,5.9099,5.9099,5.9099,5.9099,5.9099,5.9099,5.9099,5.9099,5.9099,5.9099,5.9099,5.9072,5.9018,5.88,5.8445,5.8031,5.7301,5.6422,5.588,5.5478,5.5077,5.5049,5.5252,5.5681,5.6585,5.6881,5.6474,5.7378,5.8164,5.8608,5.8692,5.8809,5.9012,5.9099,5.9099,5.9099,5.9099,5.9099,5.9099,5.9099,5.9099,5.9099,5.9099,5.9099,5.9099,5.9099,5.9099,5.9099,5.9099,5.9099,5.9099,5.9126,5.9126,5.9207,5.964,6.0407,6.1368,6.2467,6.3768,6.5,6.5879,6.6357,6.6753,6.696,6.7117,6.759,6.7895,6.8335,6.8876,6.935,6.971,7.0082,7.0601,7.0939,7.0985,7.0883,7.085,7.0883,7.0906,7.1007,7.1255,7.1255,7.1289,7.1289,7.1289,7.1289,7.1289,7.1289,7.1289,7.1289,7.1289,7.1289,5.1031,5.156,5.192,5.2401,5.2868,5.3666,5.4484,5.5395,5.6376,5.7369,5.8259,5.8908,5.9412,5.9749,6.0273,6.0535,6.0505,6.0535,6.0356,5.9994,5.9398,5.9129,5.9099,5.9099,5.9099,5.9099,5.9099,5.9099,5.9099,5.9099,5.9099,5.9099,5.9099,5.9099,5.9099,5.9099,5.8993,5.8691,5.8472,5.8142,5.7557,5.7331,5.7078,5.6879,5.6908,5.7162,5.7612,5.8112,5.821,5.8085,5.851,5.8936,5.9072,5.9099,5.9099,5.9099,5.9099,5.9099,5.9099,5.9099,5.9099,5.9099,5.9099,5.9099,5.9099,5.9099,5.9099,5.9099,5.9099,5.9099,5.9099,5.9099,5.9099,5.9126,5.9207,5.9261,5.9261,5.9796,6.0633,6.1702,6.2785,6.3964,6.5381,6.6211,6.6791,6.7281,6.7704,6.7996,6.8368,6.8605,6.8944,6.9519,7.006,7.0432,7.0567,7.0973,7.1142,7.1222,7.1222,7.1289,7.1289,7.1289,7.1289,7.1289,7.1289,7.1289,7.1289,7.1289,7.1289,7.1289,7.1289,7.1289,7.1289,7.1289,7.1289,5.2159,5.2651,5.3525,5.4267,5.4995,5.5829,5.6763,5.7869,5.852,5.9306,6.0024,6.0452,6.0615,6.1076,6.1046,6.1224,6.1194,6.1224,6.0685,6.0146,5.9548,5.9249,5.9099,5.9099,5.9099,5.9099,5.9099,5.9099,5.9099,5.9099,5.9099,5.9099,5.9099,5.9099,5.9099,5.9099,5.8964,5.883,5.8776,5.85,5.8114,5.7974,5.7864,5.7696,5.7807,5.8142,5.85,5.8719,5.8689,5.8719,5.8964,5.9072,5.9099,5.9099,5.9099,5.9099,5.9099,5.9099,5.9099,5.9099,5.9099,5.9099,5.9099,5.9099,5.9099,5.9099,5.9099,5.9099,5.9099,5.9099,5.9099,5.9099,5.9099,5.9126,5.9315,5.9503,5.9716,6.014,6.0969,6.2171,6.3268,6.4462,6.5702,6.6809,6.7671,6.8,6.8402,6.8707,6.9079,6.9383,6.9755,7.0229,7.0737,7.1154,7.1188,7.1255,7.1255,7.1255,7.1255,7.1289,7.1289,7.1289,7.1289,7.1289,7.1289,7.1289,7.1289,7.1289,7.1289,7.1289,7.1289,7.1289,7.1289,7.1289,7.1289,5.4579,5.5933,5.6379,5.6919,5.7518,5.7988,5.8488,5.9073,5.9683,6.0231,6.0541,6.0909,6.108,6.1166,6.1672,6.1882,6.1882,6.1792,6.1253,6.0174,6.0024,5.9548,5.9219,5.9099,5.9099,5.9099,5.9099,5.9099,5.9099,5.9099,5.9099,5.9099,5.9099,5.9099,5.9099,5.9099,5.9072,5.9048,5.8991,5.8936,5.88,5.8746,5.8719,5.8637,5.8719,5.8828,5.8964,5.9018,5.8991,5.9018,5.9045,5.9099,5.9099,5.9099,5.9099,5.9099,5.9099,5.9099,5.9099,5.9099,5.9099,5.9099,5.9099,5.9099,5.9099,5.9099,5.9099,5.9099,5.9099,5.9099,5.9099,5.9099,5.9126,5.918,5.9426,5.9883,6.0403,6.0815,6.15,6.2604,6.3675,6.4843,6.6423,6.7221,6.8041,6.8642,6.9113,6.9383,6.9755,7.0161,7.0432,7.0804,7.0973,7.1289,7.1289,7.1289,7.1289,7.1289,7.1289,7.1289,7.1289,7.1289,7.1289,7.1289,7.1289,7.1289,7.1289,7.1289,7.1289,7.1289,7.1289,7.1289,7.1289,7.1289,7.1289,5.6258,5.7385,5.8298,5.8977,5.9449,5.9915,6.0384,6.0852,6.12,6.1518,6.1745,6.1975,6.2032,6.2061,6.2391,6.2599,6.248,6.2181,6.1553,6.0655,6.0266,5.9727,5.9219,5.9099,5.9099,5.9099,5.9099,5.9099,5.9099,5.9099,5.9099,5.9099,5.9099,5.9099,5.9099,5.9099,5.9099,5.9099,5.9099,5.9099,5.9099,5.9099,5.9099,5.9099,5.9099,5.9099,5.9099,5.9099,5.9099,5.9099,5.9099,5.9099,5.9099,5.9099,5.9099,5.9099,5.9099,5.9099,5.9099,5.9099,5.9099,5.9099,5.9099,5.9099,5.9099,5.9099,5.9099,5.9099,5.9099,5.9099,5.9099,5.9099,5.9126,5.9402,5.9962,6.0778,6.1557,6.1693,6.226,6.3605,6.4868,6.6083,6.7235,6.8068,6.8759,6.9586,7.0128,7.0432,7.05,7.0838,7.0906,7.1086,7.1188,7.1289,7.1289,7.1289,7.1289,7.1289,7.1289,7.1289,7.1289,7.1289,7.1289,7.1289,7.1289,7.1289,7.1289,7.1289,7.1289,7.1289,7.1289,7.1289,7.1289,7.1289,7.1289,5.7668,5.8476,5.9943,6.0765,6.1116,6.1586,6.2057,6.2555,6.2673,6.2639,6.302,6.3108,6.2898,6.3048,6.3018,6.3078,6.2958,6.2569,6.1882,6.1014,6.0565,5.9877,5.9308,5.9099,5.9099,5.9099,5.9099,5.9099,5.9099,5.9099,5.9099,5.9099,5.9099,5.9099,5.9099,5.9099,5.9099,5.9099,5.9099,5.9099,5.9099,5.9099,5.9099,5.9099,5.9099,5.9099,5.9099,5.9099,5.9099,5.9099,5.9099,5.9099,5.9099,5.9099,5.9099,5.9099,5.9099,5.9099,5.9099,5.9099,5.9099,5.9099,5.9099,5.9099,5.9099,5.9099,5.9099,5.9099,5.9099,5.9099,5.9099,5.918,5.9375,5.9851,6.0841,6.1984,6.2888,6.2801,6.3868,6.5177,6.6239,6.7289,6.8361,6.9287,6.987,7.042,7.0939,7.1289,7.1289,7.1289,7.1222,7.1222,7.1255,7.1289,7.1289,7.1289,7.1289,7.1289,7.1289,7.1289,7.1289,7.1289,7.1289,7.1289,7.1289,7.1289,7.1289,7.1289,7.1289,7.1289,7.1289,7.1289,7.1289,7.1289,7.1289,5.9855,6.1054,6.1851,6.2407,6.2698,6.2817,6.2876,6.2992,6.2992,6.305,6.3108,6.3108,6.3108,6.3108,6.3108,6.3108,6.3048,6.2838,6.2211,6.1283,6.0864,6.0268,5.9279,5.9099,5.9099,5.9099,5.9099,5.9099,5.9099,5.9099,5.9099,5.9099,5.9099,5.9099,5.9099,5.9099,5.9099,5.9099,5.9099,5.9099,5.9099,5.9099,5.9099,5.9099,5.9099,5.9099,5.9099,5.9099,5.9099,5.9099,5.9099,5.9099,5.9099,5.9099,5.9099,5.9099,5.9099,5.9099,5.9099,5.9099,5.9099,5.9099,5.9099,5.9099,5.9099,5.9099,5.9099,5.9099,5.9099,5.9099,5.9099,5.9315,5.9912,6.0646,6.1669,6.2867,6.4235,6.5203,6.5811,6.7039,6.7775,6.835,6.9345,7.0096,7.0421,7.0737,7.1075,7.1289,7.1289,7.1289,7.1289,7.1255,7.1289,7.1289,7.1289,7.1289,7.1289,7.1289,7.1289,7.1289,7.1289,7.1289,7.1289,7.1289,7.1289,7.1289,7.1289,7.1289,7.1289,7.1289,7.1289,7.1289,7.1289,7.1289,7.1289,6.0865,6.1673,6.2497,6.2963,6.3079,6.3108,6.3108,6.3108,6.3108,6.3108,6.3108,6.3108,6.3108,6.3108,6.3108,6.3108,6.3108,6.3108,6.2331,6.1343,6.1016,6.0416,5.9219,5.9129,5.9099,5.9099,5.9099,5.9129,5.9099,5.9099,5.9099,5.9099,5.9099,5.9099,5.9099,5.9099,5.9129,5.9129,5.9159,5.9159,5.9129,5.9129,5.9129,5.9129,5.9129,5.9099,5.9099,5.9099,5.9099,5.9099,5.9099,5.9099,5.9099,5.9099,5.9099,5.9099,5.9099,5.9099,5.9099,5.9099,5.9099,5.9099,5.9099,5.9099,5.9099,5.9099,5.9126,5.9126,5.9099,5.9153,5.9315,5.9583,6.0312,6.1498,6.2685,6.4247,6.587,6.728,6.813,6.8716,6.9018,6.9547,7.0288,7.0805,7.0951,7.1142,7.1255,7.1289,7.1289,7.1289,7.1289,7.1289,7.1289,7.1289,7.1289,7.1289,7.1289,7.1289,7.1289,7.1289,7.1289,7.1289,7.1289,7.1289,7.1289,7.1289,7.1289,7.1289,7.1289,7.1289,7.1289,7.1289,7.1289,7.1289,7.1289,6.1524,6.188,6.273,6.3108,6.3108,6.3108,6.3108,6.3108,6.3108,6.3108,6.3108,6.3108,6.3108,6.3108,6.3108,6.3108,6.3108,6.3108,6.2301,6.1343,6.1046,6.0386,5.9458,5.9249,5.9368,5.9458,5.9638,5.9338,5.9129,5.9099,5.9099,5.9099,5.9099,5.9219,5.9308,5.9398,5.9338,5.9518,5.9518,5.9518,5.9518,5.9518,5.9398,5.9308,5.9308,5.9279,5.9129,5.9099,5.9099,5.9099,5.9099,5.9099,5.9099,5.9099,5.9099,5.9099,5.9099,5.9099,5.9099,5.9099,5.9099,5.9099,5.9099,5.9099,5.9126,5.9153,5.9207,5.918,5.9369,5.9503,5.977,6.0179,6.1182,6.2587,6.4145,6.5742,6.7427,6.8756,6.9626,7.0057,7.0198,7.0479,7.0951,7.1098,7.1154,7.1176,7.1289,7.1289,7.1289,7.1289,7.1289,7.1289,7.1289,7.1289,7.1289,7.1289,7.1289,7.1289,7.1289,7.1289,7.1289,7.1289,7.1289,7.1289,7.1289,7.1289,7.1289,7.1289,7.1289,7.1289,7.1289,7.1289,7.1289,7.1289,7.1289,6.2175,6.2527,6.2934,6.3108,6.3108,6.3108,6.3108,6.3108,6.3108,6.3108,6.3108,6.3108,6.3108,6.3108,6.3108,6.3108,6.3108,6.3018,6.2421,6.1373,6.1194,6.0565,5.9458,5.9785,5.9937,6.0027,6.0505,6.0116,5.9578,5.9308,5.9219,5.9279,5.9398,5.9398,5.9937,5.9967,6.0296,6.0715,6.0777,6.0805,6.0775,6.0745,6.0446,6.0116,5.9904,5.9697,5.9279,5.9189,5.9099,5.9099,5.9099,5.9099,5.9099,5.9099,5.9099,5.9099,5.9099,5.9099,5.9099,5.9099,5.9099,5.9099,5.9099,5.9099,5.918,5.9369,5.9476,5.9476,5.9902,6.0359,6.0718,6.152,6.2782,6.4203,6.5703,6.7256,6.8899,6.9528,7.0459,7.0768,7.0715,7.0873,7.1222,7.1255,7.1289,7.1289,7.1289,7.1289,7.1289,7.1289,7.1289,7.1289,7.1289,7.1289,7.1289,7.1289,7.1289,7.1289,7.1289,7.1289,7.1289,7.1289,7.1289,7.1289,7.1289,7.1289,7.1289,7.1289,7.1289,7.1289,7.1289,7.1289,7.1289,7.1289,7.1289,6.2644,6.2615,6.2963,6.3108,6.3108,6.3108,6.3108,6.3108,6.3108,6.3108,6.3108,6.3108,6.3108,6.3108,6.3108,6.3108,6.3108,6.3108,6.2629,6.1822,6.1553,6.1106,6.0535,6.0505,6.0655,6.0745,6.0867,6.0837,6.0326,6.0236,6.0236,6.0206,6.0236,6.0386,6.0655,6.0655,6.0835,6.1014,6.1076,6.1076,6.1076,6.1076,6.0984,6.0685,6.0326,5.9967,5.9668,5.9249,5.9129,5.9099,5.9099,5.9099,5.9099,5.9099,5.9099,5.9099,5.9099,5.9099,5.9099,5.9126,5.9126,5.9126,5.9126,5.918,5.9315,5.958,5.9925,6.0246,6.0581,6.1175,6.1942,6.2795,6.4316,6.5799,6.7151,6.8352,6.9604,7.0206,7.0825,7.1063,7.1222,7.1267,7.1289,7.1289,7.1289,7.1289,7.1289,7.1289,7.1289,7.1289,7.1289,7.1289,7.1289,7.1289,7.1289,7.1289,7.1289,7.1289,7.1289,7.1289,7.1289,7.1289,7.1289,7.1289,7.1289,7.1289,7.1289,7.1289,7.1289,7.1289,7.1289,7.1289,7.1289,7.1289,7.1289,6.2963,6.276,6.2992,6.3108,6.3108,6.3108,6.3108,6.3108,6.3108,6.3108,6.3108,6.3108,6.3108,6.3108,6.3108,6.3108,6.3108,6.3108,6.2689,6.2329,6.2032,6.1642,6.1224,6.1164,6.1343,6.1345,6.1702,6.1672,6.1642,6.1553,6.1433,6.1136,6.0894,6.1164,6.1313,6.1373,6.1493,6.1762,6.1762,6.1732,6.1702,6.1702,6.1583,6.1283,6.0894,6.0416,6.0057,5.9697,5.9398,5.9099,5.9099,5.9099,5.9099,5.9099,5.918,5.9207,5.9234,5.9369,5.9395,5.9395,5.9261,5.9315,5.9422,5.9636,5.977,6.0057,6.0472,6.1047,6.1933,6.2713,6.3592,6.4412,6.591,6.7247,6.8427,6.9447,7.0302,7.0712,7.0984,7.1154,7.1267,7.1267,7.1289,7.1289,7.1289,7.1289,7.1289,7.1289,7.1289,7.1289,7.1289,7.1289,7.1289,7.1289,7.1289,7.1289,7.1289,7.1289,7.1289,7.1289,7.1289,7.1289,7.1289,7.1289,7.1289,7.1289,7.1289,7.1289,7.1289,7.1289,7.1289,7.1289,7.1289,7.1289,7.1289,6.3108,6.3079,6.3108,6.3108,6.3108,6.3108,6.3108,6.3108,6.3108,6.3108,6.3108,6.3108,6.3108,6.3108,6.3108,6.3108,6.3108,6.3108,6.2748,6.2359,6.2061,6.1852,6.1672,6.1792,6.2032,6.2121,6.2391,6.2689,6.2868,6.2629,6.2061,6.1313,6.1463,6.1642,6.1852,6.2032,6.2271,6.2569,6.2659,6.2718,6.2748,6.2718,6.251,6.2121,6.1882,6.1403,6.0234,6.0057,5.9757,5.9308,5.9249,5.9129,5.9129,5.9129,5.921,5.9549,5.9627,5.9955,6.0335,6.0088,5.978,5.9937,6.0293,6.0591,6.0739,6.1186,6.1557,6.2066,6.3182,6.4264,6.5367,6.6576,6.7668,6.8621,6.945,7.0075,7.0678,7.094,7.1199,7.1267,7.1289,7.1289,7.1289,7.1289,7.1289,7.1289,7.1289,7.1289,7.1289,7.1289,7.1289,7.1289,7.1289,7.1289,7.1289,7.1289,7.1289,7.1289,7.1289,7.1289,7.1289,7.1289,7.1289,7.1289,7.1289,7.1289,7.1289,7.1289,7.1289,7.1289,7.1289,7.1289,7.1289,7.1289,7.1289,6.3108,6.3108,6.3108,6.3108,6.3108,6.3108,6.3108,6.3108,6.3108,6.3108,6.3108,6.3108,6.3108,6.3108,6.3108,6.3108,6.3108,6.3108,6.2898,6.2838,6.2689,6.2569,6.2509,6.248,6.272,6.2748,6.3018,6.3108,6.3048,6.3108,6.2928,6.2421,6.2211,6.245,6.2689,6.2659,6.2868,6.2988,6.3108,6.3108,6.3108,6.3108,6.2988,6.2778,6.2211,6.1912,6.1343,6.0924,6.0386,5.9907,5.9727,5.9518,5.9308,5.9249,5.9588,6.0156,6.0348,6.1088,6.1853,6.1471,6.1092,6.1941,6.2257,6.2327,6.2263,6.2707,6.3069,6.3685,6.4606,6.5759,6.6958,6.7996,6.8948,6.9842,7.0429,7.0803,7.103,7.1222,7.1289,7.1289,7.1289,7.1289,7.1289,7.1289,7.1289,7.1289,7.1289,7.1289,7.1289,7.1289,7.1289,7.1289,7.1289,7.1289,7.1289,7.1289,7.1289,7.1289,7.1289,7.1289,7.1289,7.1289,7.1289,7.1289,7.1289,7.1289,7.1289,7.1289,7.1289,7.1289,7.1289,7.1289,7.1289,7.1289,7.1289,6.3108,6.3108,6.3108,6.3108,6.3108,6.3108,6.3108,6.3108,6.3108,6.3108,6.3108,6.3108,6.3108,6.3108,6.3108,6.3108,6.3108,6.3108,6.3108,6.3078,6.3048,6.3108,6.3108,6.3078,6.3018,6.3108,6.3108,6.3108,6.3108,6.3108,6.3018,6.3018,6.3108,6.3048,6.3048,6.3108,6.3108,6.3108,6.3108,6.3108,6.3108,6.3108,6.3108,6.3048,6.2659,6.2271,6.1972,6.1553,6.1074,6.0625,6.0356,6.0146,5.9877,5.9812,6.024,6.0862,6.1534,6.2355,6.3272,6.3428,6.2981,6.3671,6.4177,6.4228,6.4338,6.455,6.5051,6.54,6.6292,6.7347,6.8516,6.9365,7.0015,7.0725,7.0804,7.1131,7.1176,7.1289,7.1289,7.1289,7.1289,7.1289,7.1289,7.1289,7.1289,7.1289,7.1289,7.1289,7.1289,7.1289,7.1289,7.1289,7.1289,7.1289,7.1289,7.1289,7.1289,7.1289,7.1289,7.1289,7.1289,7.1289,7.1289,7.1289,7.1289,7.1289,7.1289,7.1289,7.1289,7.1289,7.1289,7.1289,7.1289,7.1289,7.1289,6.3108,6.3108,6.3108,6.3108,6.3108,6.3108,6.3108,6.3108,6.3108,6.3108,6.3108,6.3108,6.3108,6.3108,6.3108,6.3108,6.3108,6.3108,6.3108,6.3108,6.3108,6.3108,6.3108,6.3108,6.3108,6.3108,6.3108,6.3108,6.3108,6.3108,6.3108,6.3108,6.3108,6.3108,6.3108,6.3108,6.3108,6.3108,6.3108,6.3108,6.3108,6.3108,6.3108,6.3078,6.2988,6.2689,6.2331,6.2181,6.1732,6.1224,6.1104,6.0954,6.083,6.083,6.1335,6.2249,6.263,6.3636,6.5076,6.5169,6.5479,6.5607,6.6123,6.6209,6.6258,6.6591,6.6987,6.7082,6.8211,6.9086,6.9929,7.0479,7.094,7.1132,7.1188,7.1222,7.1267,7.1289,7.1289,7.1289,7.1289,7.1289,7.1289,7.1289,7.1289,7.1289,7.1289,7.1289,7.1289,7.1289,7.1289,7.1289,7.1289,7.1289,7.1289,7.1289,7.1289,7.1289,7.1289,7.1289,7.1289,7.1289,7.1289,7.1289,7.1289,7.1289,7.1289,7.1289,7.1289,7.1289,7.1289,7.1289,7.1289,7.1289,7.1289,6.3108,6.3108,6.3108,6.3108,6.3108,6.3108,6.3108,6.3108,6.3108,6.3108,6.3108,6.3108,6.3108,6.3108,6.3108,6.3108,6.3108,6.3108,6.3108,6.3108,6.3108,6.3108,6.3108,6.3108,6.3108,6.3108,6.3108,6.3108,6.3108,6.3108,6.3108,6.3108,6.3108,6.3108,6.3108,6.3108,6.3108,6.3108,6.3108,6.3108,6.3108,6.3108,6.3108,6.3108,6.3108,6.2958,6.2748,6.2689,6.2331,6.1852,6.1762,6.1695,6.1565,6.1501,6.2232,6.3372,6.4115,6.5534,6.7353,6.8337,6.8448,6.8271,6.8124,6.8214,6.822,6.8284,6.8421,6.8517,6.9255,6.9861,7.013,7.0782,7.1199,7.1233,7.1267,7.1267,7.1289,7.1289,7.1289,7.1289,7.1289,7.1289,7.1289,7.1289,7.1289,7.1289,7.1289,7.1289,7.1289,7.1289,7.1289,7.1289,7.1289,7.1289,7.1289,7.1289,7.1289,7.1289,7.1289,7.1289,7.1289,7.1289,7.1289,7.1289,7.1289,7.1289,7.1289,7.1289,7.1289,7.1289,7.1289,7.1289,7.1289,7.1289,7.1289,6.3108,6.3108,6.3108,6.3108,6.3108,6.3108,6.3108,6.3108,6.3108,6.3108,6.3108,6.3108,6.3108,6.3108,6.3108,6.3108,6.3108,6.3108,6.3108,6.3108,6.3108,6.3108,6.3108,6.3108,6.3108,6.3108,6.3108,6.3108,6.3108,6.3108,6.3108,6.3108,6.3108,6.3108,6.3108,6.3108,6.3108,6.3108,6.3108,6.3108,6.3108,6.3108,6.3108,6.3108,6.3108,6.3078,6.3108,6.3018,6.2898,6.2569,6.2473,6.2523,6.2356,6.2713,6.3415,6.4729,6.6351,6.7633,6.9175,7.0183,7.0083,6.9953,7.0166,7.0036,6.9831,6.9823,6.977,6.9895,7.0086,7.0276,7.0591,7.1222,7.1222,7.1289,7.1289,7.1289,7.1289,7.1289,7.1289,7.1289,7.1289,7.1289,7.1289,7.1289,7.1289,7.1289,7.1289,7.1289,7.1289,7.1289,7.1289,7.1289,7.1289,7.1289,7.1289,7.1289,7.1289,7.1289,7.1289,7.1289,7.1289,7.1289,7.1289,7.1289,7.1289,7.1289,7.1289,7.1289,7.1289,7.1289,7.1289,7.1289,7.1289,7.1289,7.1289,6.3108,6.3108,6.3108,6.3108,6.3108,6.3108,6.3108,6.3108,6.3108,6.3108,6.3108,6.3108,6.3108,6.3108,6.3108,6.3108,6.3108,6.3108,6.3108,6.3108,6.3108,6.3108,6.3108,6.3108,6.3108,6.3108,6.3108,6.3108,6.3108,6.3108,6.3108,6.3108,6.3108,6.3108,6.3108,6.3108,6.3108,6.3108,6.3108,6.3108,6.3108,6.3108,6.3108,6.3108,6.3108,6.3108,6.3137,6.3107,6.3105,6.3132,6.3304,6.3588,6.3984,6.4488,6.5448,6.6716,6.8486,6.9451,7.0143,7.087,7.1109,7.0893,7.0893,7.0882,7.0849,7.0816,7.0738,7.0771,7.0918,7.1041,7.1289,7.1289,7.1289,7.1289,7.1289,7.1289,7.1289,7.1289,7.1289,7.1289,7.1289,7.1289,7.1289,7.1289,7.1289,7.1289,7.1289,7.1289,7.1289,7.1289,7.1289,7.1289,7.1289,7.1289,7.1289,7.1289,7.1289,7.1289,7.1289,7.1289,7.1289,7.1289,7.1289,7.1289,7.1289,7.1289,7.1289,7.1289,7.1289,7.1289,7.1289,7.1289,7.1289,7.1289,7.1289,6.3108,6.3108,6.3108,6.3108,6.3108,6.3108,6.3108,6.3108,6.3108,6.3108,6.3108,6.3108,6.3108,6.3108,6.3108,6.3108,6.3108,6.3108,6.3108,6.3108,6.3108,6.3108,6.3108,6.3108,6.3108,6.3108,6.3108,6.3108,6.3108,6.3108,6.3108,6.3108,6.3108,6.3108,6.3108,6.3108,6.3108,6.3108,6.3108,6.3108,6.3108,6.3108,6.3108,6.3108,6.3137,6.3137,6.3165,6.3338,6.3424,6.348,6.3906,6.4326,6.4912,6.5452,6.6359,6.8104,6.946,7.0399,7.071,7.1086,7.1289,7.1289,7.1222,7.1222,7.1222,7.1244,7.1289,7.1289,7.1289,7.1289,7.1289,7.1289,7.1289,7.1289,7.1289,7.1289,7.1289,7.1289,7.1289,7.1289,7.1289,7.1289,7.1289,7.1289,7.1289,7.1289,7.1289,7.1289,7.1289,7.1289,7.1289,7.1289,7.1289,7.1289,7.1289,7.1289,7.1289,7.1289,7.1289,7.1289,7.1289,7.1289,7.1289,7.1289,7.1289,7.1289,7.1289,7.1289,7.1289,7.1289,7.1289,7.1289,7.1289,7.1289,7.1289,6.3108,6.3108,6.3108,6.3108,6.3108,6.3108,6.3108,6.3108,6.3108,6.3108,6.3108,6.3108,6.3108,6.3108,6.3108,6.3108,6.3108,6.3108,6.3108,6.3108,6.3108,6.3108,6.3108,6.3108,6.3108,6.3108,6.3108,6.3108,6.3108,6.3108,6.3108,6.3108,6.3108,6.3108,6.3108,6.3108,6.3108,6.3108,6.3108,6.3108,6.3108,6.3108,6.3108,6.3137,6.3194,6.328,6.3337,6.3622,6.3906,6.4101,6.466,6.5316,6.6072,6.6832,6.7783,6.9373,7.0086,7.0608,7.087,7.1131,7.1267,7.1289,7.1289,7.1289,7.1289,7.1289,7.1289,7.1289,7.1289,7.1289,7.1289,7.1289,7.1289,7.1289,7.1289,7.1289,7.1289,7.1289,7.1289,7.1289,7.1289,7.1289,7.1289,7.1289,7.1289,7.1289,7.1289,7.1289,7.1289,7.1289,7.1289,7.1289,7.1289,7.1289,7.1289,7.1289,7.1289,7.1289,7.1289,7.1289,7.1289,7.1289,7.1289,7.1289,7.1289,7.1289,7.1289,7.1289,7.1289,7.1289,7.1289,7.1289,7.1289,7.1289,7.1289,6.3108,6.3108,6.3108,6.3108,6.3108,6.3108,6.3108,6.3108,6.3108,6.3108,6.3108,6.3108,6.3108,6.3108,6.3108,6.3108,6.3108,6.3108,6.3108,6.3108,6.3108,6.3108,6.3108,6.3108,6.3108,6.3108,6.3108,6.3108,6.3108,6.3108,6.3108,6.3108,6.3108,6.3108,6.3108,6.3108,6.3108,6.3108,6.3108,6.3108,6.3108,6.3108,6.3137,6.3223,6.3395,6.3595,6.3793,6.4158,6.466,6.5125,6.5745,6.6491,6.7471,6.8436,6.9526,7.0106,7.0664,7.087,7.1007,7.1199,7.1267,7.1289,7.1289,7.1289,7.1289,7.1289,7.1289,7.1289,7.1289,7.1289,7.1289,7.1289,7.1289,7.1289,7.1289,7.1289,7.1289,7.1289,7.1289,7.1289,7.1289,7.1289,7.1289,7.1289,7.1289,7.1289,7.1289,7.1289,7.1289,7.1289,7.1289,7.1289,7.1289,7.1289,7.1289,7.1289,7.1289,7.1289,7.1289,7.1289,7.1289,7.1289,7.1289,7.1289,7.1289,7.1289,7.1289,7.1289,7.1289,7.1289,7.1289,7.1289,7.1289,7.1289,7.1289,6.3108,6.3108,6.3108,6.3108,6.3108,6.3108,6.3108,6.3108,6.3108,6.3108,6.3108,6.3108,6.3108,6.3108,6.3108,6.3108,6.3108,6.3108,6.3108,6.3108,6.3108,6.3108,6.3108,6.3108,6.3108,6.3108,6.3108,6.3108,6.3108,6.3108,6.3108,6.3108,6.3108,6.3108,6.3108,6.3108,6.3108,6.3108,6.3108,6.3137,6.3137,6.3165,6.3194,6.3394,6.3679,6.4129,6.4549,6.5262,6.575,6.62,6.7118,6.8004,6.9026,6.9803,7.033,7.071,7.1018,7.1131,7.1199,7.1244,7.1289,7.1289,7.1289,7.1289,7.1289,7.1289,7.1289,7.1289,7.1289,7.1289,7.1289,7.1289,7.1289,7.1289,7.1289,7.1289,7.1289,7.1289,7.1289,7.1289,7.1289,7.1289,7.1289,7.1289,7.1289,7.1289,7.1289,7.1289,7.1289,7.1289,7.1289,7.1289,7.1289,7.1289,7.1289,7.1289,7.1289,7.1289,7.1289,7.1289,7.1289,7.1289,7.1289,7.1289,7.1289,7.1289,7.1289,7.1289,7.1289,7.1289,7.1289,7.1289,7.1289,7.1289,7.1289,6.3108,6.3108,6.3108,6.3108,6.3108,6.3108,6.3108,6.3108,6.3108,6.3108,6.3108,6.3108,6.3108,6.3108,6.3108,6.3108,6.3108,6.3108,6.3108,6.3108,6.3108,6.3108,6.3108,6.3108,6.3108,6.3108,6.3108,6.3108,6.3108,6.3108,6.3108,6.3108,6.3108,6.3137,6.3137,6.3108,6.3137,6.3108,6.3108,6.3194,6.3252,6.3309,6.3508,6.3821,6.4298,6.4798,6.5475,6.6253,6.6936,6.758,6.8461,6.9277,6.9992,7.0446,7.0779,7.1007,7.1199,7.1289,7.1289,7.1289,7.1289,7.1289,7.1289,7.1289,7.1289,7.1289,7.1289,7.1289,7.1289,7.1289,7.1289,7.1289,7.1289,7.1289,7.1289,7.1289,7.1289,7.1289,7.1289,7.1289,7.1289,7.1289,7.1289,7.1289,7.1289,7.1289,7.1289,7.1289,7.1289,7.1289,7.1289,7.1289,7.1289,7.1289,7.1289,7.1289,7.1289,7.1289,7.1289,7.1289,7.1289,7.1289,7.1289,7.1289,7.1289,7.1289,7.1289,7.1289,7.1289,7.1289,7.1289,7.1289,7.1289,7.1289,7.1323,6.3108,6.3108,6.3108,6.3108,6.3108,6.3108,6.3108,6.3108,6.3108,6.3108,6.3108,6.3108,6.3108,6.3108,6.3108,6.3108,6.3108,6.3108,6.3108,6.3108,6.3108,6.3108,6.3108,6.3108,6.3108,6.3108,6.3108,6.3108,6.3108,6.3108,6.3108,6.3137,6.3165,6.3194,6.3194,6.3165,6.3194,6.3194,6.3223,6.3338,6.3453,6.3594,6.3963,6.4496,6.5101,6.5754,6.6496,6.7298,6.8111,6.8806,6.9565,7.0213,7.0641,7.0916,7.1041,7.1222,7.1267,7.1289,7.1289,7.1289,7.1289,7.1289,7.1289,7.1289,7.1289,7.1289,7.1289,7.1289,7.1289,7.1289,7.1289,7.1289,7.1289,7.1289,7.1289,7.1289,7.1289,7.1289,7.1289,7.1289,7.1289,7.1289,7.1289,7.1289,7.1289,7.1289,7.1289,7.1289,7.1289,7.1289,7.1289,7.1289,7.1289,7.1289,7.1289,7.1289,7.1289,7.1289,7.1289,7.1289,7.1289,7.1289,7.1289,7.1289,7.1289,7.1289,7.1289,7.1289,7.1289,7.1289,7.1289,7.1289,7.1289,7.1323,7.1424,6.3108,6.3108,6.3108,6.3108,6.3108,6.3108,6.3108,6.3108,6.3108,6.3108,6.3108,6.3108,6.3108,6.3108,6.3108,6.3108,6.3108,6.3108,6.3108,6.3108,6.3108,6.3108,6.3108,6.3108,6.3108,6.3108,6.3108,6.3108,6.3137,6.3137,6.3223,6.3424,6.3453,6.3567,6.3766,6.3651,6.3451,6.3422,6.3395,6.351,6.3991,6.4186,6.4412,6.5046,6.5857,6.6811,6.7714,6.8592,6.9285,6.986,7.0386,7.0825,7.1063,7.1176,7.1244,7.1244,7.1289,7.1289,7.1289,7.1289,7.1289,7.1289,7.1289,7.1289,7.1289,7.1289,7.1289,7.1289,7.1289,7.1289,7.1289,7.1289,7.1289,7.1289,7.1289,7.1289,7.1289,7.1289,7.1289,7.1289,7.1289,7.1289,7.1289,7.1289,7.1289,7.1289,7.1289,7.1289,7.1289,7.1289,7.1289,7.1289,7.1289,7.1289,7.1289,7.1289,7.1289,7.1289,7.1289,7.1289,7.1289,7.1289,7.1289,7.1289,7.1289,7.1289,7.1289,7.1289,7.1289,7.1289,7.1289,7.1289,7.1323,7.156,7.1887]}]]